GFSSW_sfc_dewp_003.txt.gz
Dewpoint
55 55 55 55 54 54 55 54 53 53 54 53 52 53 53 53 53 52 47 41 48 55 50 32 32 34 34 31 27 21 17 14 11 10 4 8 22 26 38 46 44 45 45 55 58
55 55 55 55 55 54 55 53 53 54 53 52 52 53 53 52 51 49 51 56 57 58 28 27 26 32 30 28 25 21 16 14 13 11 4 10 34 34 41 45 46 44 44 53 55
55 55 56 55 55 55 54 54 54 54 53 52 52 52 52 52 49 40 56 56 59 55 29 28 28 27 27 24 21 16 9 8 9 10 7 9 16 24 43 44 46 43 44 50 54
55 55 55 54 54 54 55 54 54 54 53 52 52 51 52 51 29 33 57 60 61 39 32 29 29 28 27 23 21 9 8 6 8 7 5 7 10 25 28 43 47 44 44 46 48
54 54 54 54 54 55 54 54 54 52 52 51 51 51 51 47 38 35 61 61 46 37 30 29 29 27 19 17 18 4 5 8 12 9 6 5 6 13 17 37 47 44 42 44 45
53 53 53 53 53 55 55 53 52 52 51 50 50 51 48 32 33 32 46 42 40 36 34 31 27 28 24 15 5 9 9 6 13 13 9 6 14 15 18 47 46 44 42 42 42
53 53 54 53 54 55 54 53 52 51 50 50 50 50 49 33 36 36 37 37 36 33 29 33 33 27 19 17 13 10 7 9 9 15 13 16 16 13 20 47 46 45 45 46 45
53 53 53 53 54 53 52 52 51 51 50 50 50 50 37 37 39 32 22 21 26 33 31 22 27 24 19 16 16 13 13 10 12 18 18 12 8 17 22 46 46 46 46 46 45
53 53 55 55 54 52 52 51 50 50 50 50 48 49 30 38 23 22 23 22 25 26 26 19 25 20 19 13 11 14 9 14 15 18 19 16 17 19 18 37 32 40 43 43 45
54 55 55 55 54 51 51 50 50 50 50 50 49 40 36 26 24 23 23 24 28 29 25 25 25 19 20 10 3 9 12 21 13 16 19 18 25 31 37 38 41 43 41 42 44
55 55 55 55 54 52 50 49 41 40 48 24 29 36 35 36 22 20 23 25 27 26 23 26 21 17 18 20 18 17 16 14 17 18 27 29 32 37 39 42 43 41 41 41 42
55 55 55 55 54 54 50 49 43 43 39 39 41 38 36 27 24 23 30 25 25 23 25 22 21 22 26 28 25 22 20 21 21 27 29 32 30 34 36 39 42 41 40 40 41
54 54 55 54 54 51 46 43 50 47 36 26 34 30 27 27 24 25 29 30 26 24 24 21 23 24 26 27 27 28 24 22 21 28 29 30 28 28 32 35 38 40 41 41 41
54 54 53 53 49 49 46 47 50 41 24 22 24 22 28 30 26 26 28 27 28 25 24 24 30 27 27 25 27 26 29 26 24 26 25 26 25 28 32 35 38 40 41 42 42
53 54 53 53 48 52 49 56 52 42 16 21 25 28 25 28 26 23 31 32 25 25 27 27 29 28 26 27 29 29 30 26 25 22 22 25 25 28 32 34 36 38 40 41 41
53 54 53 52 50 50 56 49 40 33 17 25 26 26 23 27 28 27 31 34 32 28 28 28 30 28 28 30 29 28 31 31 31 28 23 26 26 27 30 32 34 36 39 40 40
53 54 52 53 53 57 53 40 30 27 29 22 25 27 27 27 28 29 29 28 28 25 27 27 27 27 30 29 30 29 29 27 24 22 23 28 28 29 30 33 35 36 37 39 40
53 53 52 51 59 55 45 34 28 30 27 25 27 28 26 29 30 31 29 26 28 30 28 25 24 25 26 27 26 27 27 26 20 21 22 27 26 28 32 35 36 37 37 38 41
53 51 55 57 59 50 43 32 33 32 26 25 28 27 28 29 28 29 29 27 29 30 28 26 25 27 27 27 30 28 23 27 27 26 24 25 27 29 32 35 35 36 37 36 37
53 49 47 56 50 47 41 37 39 36 31 27 26 29 26 27 28 30 31 33 33 31 31 28 21 26 25 30 29 25 28 25 26 17 17 23 26 27 29 32 30 32 36 36 36
48 35 39 53 40 36 33 38 40 32 36 28 27 27 28 27 30 32 33 34 37 35 31 33 25 24 29 27 26 27 26 27 28 25 19 18 24 27 30 30 32 35 36 36 36
45 30 50 39 29 38 35 40 40 31 34 36 36 33 30 34 36 35 34 36 39 38 28 33 28 25 25 28 30 27 28 25 21 24 25 21 20 29 32 33 35 35 36 36 36
43 49 54 38 27 29 36 41 36 32 33 34 34 37 37 36 34 37 37 39 35 35 33 31 27 24 27 29 28 26 29 31 28 26 25 17 19 32 33 34 35 36 36 36 36
44 40 43 45 37 29 33 35 35 36 36 35 34 37 35 37 39 36 37 39 35 34 41 37 32 24 24 26 26 20 25 30 27 22 23 23 22 31 33 34 35 36 36 35 34
46 37 39 35 38 43 39 37 34 33 35 34 33 35 34 33 36 37 38 36 35 39 39 33 26 30 29 30 27 25 23 28 27 27 24 25 26 30 34 35 36 36 35 34 33
46 40 40 31 35 39 39 38 34 35 34 34 33 38 36 33 34 35 35 33 32 38 39 34 29 27 28 32 31 25 24 25 25 25 28 30 32 35 36 37 36 35 34 32 31
48 48 40 38 36 37 37 37 36 37 39 38 38 37 35 39 39 40 40 39 38 37 34 31 29 22 17 29 27 16 24 27 26 31 29 29 32 35 36 36 35 34 34 32 31

GFSSW_sfc_dewp_006.txt.gz
Dewpoint
55 57 55 56 55 56 54 54 53 53 53 52 52 52 53 53 52 52 46 43 48 55 48 32 30 33 33 31 27 20 17 14 20 29 28 21 31 29 44 46 46 45 52 58 65
56 57 56 57 56 56 56 55 55 54 53 52 52 52 53 52 49 49 51 57 57 57 28 28 28 32 30 29 26 21 18 15 14 21 33 32 35 39 44 45 44 46 57 62 64
56 56 55 56 56 56 56 55 55 54 52 52 51 51 52 51 47 39 55 57 58 53 29 28 27 29 28 24 23 19 16 10 10 14 12 26 26 37 44 43 44 49 56 59 62
56 54 55 55 56 55 55 55 54 53 52 52 51 51 51 50 28 32 59 58 60 42 29 28 28 27 26 23 22 14 13 7 11 15 10 25 17 40 34 39 46 52 56 56 58
55 54 54 54 54 55 55 55 53 52 52 51 51 51 50 47 40 45 62 60 49 33 29 28 27 26 24 24 14 12 8 11 9 6 8 8 20 33 22 43 44 49 53 53 55
53 53 53 53 54 55 53 54 52 51 51 50 50 50 47 37 32 46 52 44 38 33 31 29 27 27 25 16 17 15 7 8 14 7 5 8 13 15 22 46 43 47 50 50 51
54 53 53 54 54 53 54 53 52 51 50 49 49 49 49 38 33 39 43 38 39 34 32 32 29 25 24 19 13 11 4 8 9 13 12 16 13 13 33 45 43 42 44 43 44
54 53 53 53 53 53 53 52 51 51 50 50 51 49 43 39 41 37 31 25 34 34 31 30 33 30 21 20 17 11 13 6 9 16 18 9 6 17 40 45 45 45 46 46 45
53 53 53 53 53 52 52 51 51 50 50 51 48 48 35 37 30 22 21 22 25 30 31 24 26 21 16 14 11 13 9 12 14 18 17 14 19 31 32 44 41 42 42 44 46
53 53 53 55 54 52 51 51 50 51 50 49 49 41 34 24 29 22 23 24 27 30 28 26 24 19 19 10 8 7 10 21 12 22 30 28 35 38 40 40 42 41 43 44 44
54 55 55 55 54 52 50 48 44 42 48 28 30 30 34 30 28 20 23 27 27 26 23 25 21 16 17 17 12 13 12 12 16 24 32 34 35 36 41 42 40 41 41 42 42
55 55 55 55 54 52 50 48 39 40 38 42 41 38 37 34 23 22 30 25 25 22 25 22 19 22 27 26 23 21 20 22 26 30 33 33 30 32 35 38 41 40 40 41 42
54 55 55 54 54 52 48 44 48 46 38 28 37 34 29 29 23 24 29 29 25 22 22 21 22 27 28 26 26 27 21 21 25 31 32 31 30 31 34 39 40 41 41 41 42
54 54 54 53 50 49 45 44 51 43 24 23 23 22 27 28 25 26 28 27 27 23 25 28 30 27 26 25 26 24 28 26 29 28 26 28 27 29 33 37 39 40 40 41 41
53 53 53 51 48 52 49 56 51 38 16 21 23 26 25 27 22 25 33 28 24 26 27 27 28 26 25 26 29 27 28 26 24 22 23 26 27 27 34 35 37 39 40 41 41
53 53 53 52 49 49 55 46 37 31 18 22 25 23 25 27 27 28 31 33 30 30 29 28 29 28 27 29 28 30 30 30 30 27 22 24 25 26 31 33 36 37 39 40 40
53 54 52 51 52 57 50 36 28 26 28 22 23 25 25 27 29 29 28 28 26 24 26 26 26 27 29 28 29 30 28 25 23 21 23 28 26 26 31 34 37 37 38 40 40
53 53 52 52 53 53 41 30 25 30 26 25 26 26 26 29 29 29 28 26 28 29 28 24 22 25 26 27 25 26 28 25 19 21 23 27 25 28 31 33 37 37 38 39 40
53 51 51 57 54 49 37 27 30 31 26 26 27 25 27 29 28 29 28 26 29 29 27 25 24 26 26 28 29 26 24 27 26 25 23 25 27 30 35 35 36 36 37 39 37
51 51 49 55 49 44 37 33 38 39 32 28 24 27 26 27 28 29 30 33 31 33 31 29 21 26 26 30 29 26 28 22 24 17 17 22 25 27 31 34 35 36 36 37 37
44 35 39 54 39 35 29 34 40 39 35 27 27 28 28 26 30 31 30 34 36 35 32 29 25 24 28 26 25 26 25 27 27 24 18 17 23 29 31 34 33 35 36 36 36
38 30 46 39 30 36 30 39 41 31 35 36 33 30 28 34 34 33 32 34 38 37 28 31 28 24 23 28 31 27 26 23 18 18 24 20 19 29 31 32 35 36 36 36 35
41 48 53 38 27 28 32 38 38 31 33 34 34 35 37 36 33 35 36 37 33 34 31 30 27 25 24 24 26 25 30 28 26 26 25 19 19 32 34 35 35 35 36 35 35
45 41 44 41 36 28 29 31 34 36 35 34 35 36 36 36 38 36 36 37 35 36 42 36 29 23 21 22 25 23 28 27 24 21 22 22 19 31 33 34 36 36 35 35 33
42 40 42 35 37 33 31 35 33 33 34 34 33 34 34 33 34 35 37 34 35 40 39 30 26 27 29 30 27 23 22 28 24 24 22 22 23 24 33 34 36 36 35 34 33
45 38 35 35 41 40 37 34 34 34 34 32 32 37 35 33 32 34 34 30 27 38 36 32 26 26 28 31 29 25 24 24 26 26 27 27 26 34 35 36 36 35 35 34 32
48 46 38 36 36 38 37 38 36 36 39 38 36 36 34 38 39 39 38 38 37 36 32 28 28 20 13 27 22 17 22 24 25 26 27 26 27 35 35 36 36 35 34 33 31

GFSSW_sfc_dewp_009.txt.gz
Dewpoint
55 55 56 56 56 56 56 56 55 55 54 53 53 52 52 52 52 51 46 42 47 57 49 32 30 32 33 31 26 21 19 25 26 33 41 37 43 36 46 46 46 45 57 60 64
56 55 56 56 56 56 56 55 55 54 53 53 52 52 51 51 49 47 50 56 57 58 29 26 25 33 30 29 27 22 21 19 21 37 37 35 35 43 44 44 44 56 62 63 64
55 55 56 56 56 56 56 55 55 54 53 52 52 51 51 50 47 38 55 57 58 52 29 29 31 32 29 26 25 22 20 16 13 23 35 34 31 42 44 42 44 54 59 61 62
55 54 56 54 54 55 55 55 55 54 52 52 52 51 51 49 26 31 61 59 59 36 30 29 27 26 26 24 23 17 19 10 18 19 23 32 34 43 41 38 46 57 61 61 60
55 54 54 54 54 54 53 53 54 52 52 52 51 50 49 46 42 47 61 60 51 32 29 29 28 28 26 26 20 17 13 11 10 11 28 18 35 41 24 45 52 58 60 61 62
55 53 54 53 53 54 52 53 53 52 52 51 49 50 47 36 34 52 54 49 41 32 30 28 26 27 25 20 21 19 9 10 11 9 9 18 14 20 31 45 53 57 58 58 57
54 53 54 52 54 52 53 52 53 52 50 49 49 48 48 39 35 48 45 42 38 33 31 31 30 27 28 20 15 11 9 11 14 13 14 16 14 19 38 44 49 54 52 51 50
54 53 52 53 53 52 52 53 53 51 50 50 50 48 44 43 43 39 38 34 38 35 32 34 32 29 24 19 18 11 15 11 11 16 18 11 10 31 38 44 44 45 46 47 46
53 52 52 52 52 52 52 52 51 49 49 51 48 48 40 41 33 29 28 26 33 36 35 31 33 30 18 17 16 18 9 12 14 27 19 20 22 37 40 44 43 44 45 45 47
53 52 53 53 53 53 51 51 49 50 49 49 49 44 36 25 33 23 26 27 29 32 31 29 25 22 18 13 11 13 12 13 14 23 31 32 35 39 42 43 43 43 45 45 46
53 53 54 54 54 52 50 48 44 43 47 37 36 33 30 33 28 22 27 32 31 30 27 27 22 19 19 17 12 14 13 14 20 31 35 35 35 38 41 41 42 43 44 45 46
53 54 55 54 54 51 50 47 40 43 42 44 42 40 38 36 27 23 33 30 31 26 25 25 23 22 27 26 22 22 21 25 30 33 34 34 36 38 39 40 42 43 44 45 45
54 54 55 54 52 50 48 48 48 48 42 33 40 36 32 34 27 23 31 32 26 25 24 25 23 28 27 27 27 25 24 25 27 33 33 33 33 37 39 41 42 43 43 44 44
53 54 54 53 49 50 48 48 49 49 29 26 25 25 29 29 30 27 31 30 29 25 28 29 29 27 26 27 27 26 27 31 32 29 26 28 21 33 38 39 41 41 42 43 41
53 54 53 51 49 49 50 57 49 43 24 25 24 27 28 26 25 28 34 30 27 27 28 28 29 27 27 27 30 28 32 30 26 24 25 27 26 29 36 38 39 40 41 41 39
53 54 53 51 50 51 53 50 43 34 24 24 26 26 28 29 30 30 32 34 32 31 30 29 29 28 28 30 30 33 31 31 30 28 25 25 24 26 33 36 38 40 41 40 40
53 54 52 52 50 57 53 40 33 29 30 23 25 27 27 30 30 30 30 31 28 29 29 27 27 27 31 29 30 31 30 27 26 27 24 28 26 27 31 35 38 39 40 41 41
53 53 52 52 53 52 43 33 25 28 29 26 27 27 27 30 31 29 28 28 30 29 28 23 24 24 28 28 27 28 29 30 23 25 24 28 27 26 31 34 37 38 40 41 41
52 51 51 53 54 51 38 31 27 30 28 26 27 26 30 30 29 30 29 28 29 30 29 28 24 25 28 29 29 26 25 29 28 26 25 25 27 30 33 33 37 38 39 40 41
51 50 50 56 55 45 37 30 34 38 34 29 25 29 28 30 29 29 30 33 31 34 32 31 24 27 27 30 30 28 29 25 27 22 18 20 25 26 32 33 35 37 39 40 40
49 45 45 53 45 39 34 31 40 41 36 29 29 30 30 29 31 30 30 34 36 33 32 28 30 28 28 27 27 28 27 28 27 26 18 18 19 31 33 34 35 37 38 39 39
43 35 48 44 34 36 33 37 41 38 36 37 33 32 31 34 34 33 33 34 39 38 32 31 32 29 24 28 31 28 27 26 25 20 25 26 21 30 33 33 37 36 38 38 38
39 48 54 43 31 34 34 38 40 35 35 36 37 38 40 37 34 36 36 38 36 35 34 33 31 28 25 24 27 27 29 27 27 30 26 32 20 31 34 34 35 36 37 37 35
47 43 47 40 36 31 31 34 34 38 37 36 37 39 38 38 38 37 37 38 38 38 42 37 29 28 25 23 26 26 29 26 26 27 24 28 23 25 32 34 35 36 37 36 34
43 41 45 38 35 32 31 32 34 35 36 36 36 36 36 35 36 36 37 35 37 40 39 33 29 28 29 29 28 23 27 27 23 25 27 24 24 24 30 34 36 36 36 34 33
41 40 37 38 39 33 34 36 35 35 37 35 35 38 38 35 34 36 36 33 31 38 35 33 30 29 30 30 28 26 24 26 28 27 25 26 27 29 34 35 36 36 35 34 34
49 44 39 35 40 35 36 35 35 38 40 39 38 37 36 39 39 38 38 38 38 37 33 31 31 26 22 26 23 24 26 25 27 27 29 28 28 35 35 35 36 36 35 35 35

GFSSW_sfc_dewp_012.txt.gz
Dewpoint
56 56 57 57 57 56 56 56 56 56 55 54 54 53 53 53 52 48 43 39 45 58 53 38 35 31 30 24 26 24 14 15 30 35 38 41 37 40 45 45 48 48 52 57 63
56 56 56 57 56 56 56 56 55 55 55 55 54 52 52 52 48 43 47 56 56 58 30 26 25 25 22 23 25 22 17 18 31 37 36 37 33 43 46 46 46 53 58 62 63
56 56 56 56 56 56 55 55 55 55 55 54 53 52 52 51 44 33 57 57 58 54 26 24 22 26 20 23 24 22 18 24 33 32 32 32 32 34 44 42 44 52 58 61 61
55 56 56 55 55 56 55 54 55 55 54 53 52 51 51 49 24 29 62 58 59 41 28 26 27 25 18 20 22 21 19 18 30 35 34 31 31 40 39 37 44 54 59 61 60
55 56 55 54 54 54 54 54 54 54 53 52 50 50 49 43 33 47 60 58 44 31 27 25 23 21 15 20 21 20 18 13 14 26 33 33 37 38 33 45 51 55 58 58 57
54 55 55 54 54 54 54 54 53 53 52 51 50 50 47 34 33 46 48 44 35 28 28 27 22 22 19 22 20 19 13 11 12 23 23 30 33 33 34 47 51 54 54 56 56
53 54 55 54 54 54 54 53 53 52 51 50 49 48 46 35 33 46 42 37 33 29 31 29 26 22 24 24 17 14 11 11 12 22 20 22 15 27 39 45 49 50 52 54 54
54 54 54 54 53 53 53 53 53 51 50 50 49 49 40 39 38 39 37 36 37 31 30 32 32 27 27 19 13 10 12 12 15 17 16 14 13 31 42 44 48 49 51 51 49
54 54 54 53 52 53 53 52 51 50 49 50 50 48 32 42 33 27 34 24 35 35 34 29 31 27 24 19 11 13 5 10 12 23 16 12 14 32 43 42 43 47 48 48 48
53 54 53 53 53 53 51 51 49 50 50 49 48 46 38 25 31 24 24 28 28 34 31 29 27 23 19 12 8 8 5 6 8 24 15 16 27 32 42 42 43 43 45 47 47
53 54 53 53 53 52 50 48 46 46 48 35 31 35 25 29 30 20 22 27 28 27 25 27 20 16 16 13 11 11 11 10 18 31 28 27 27 31 39 43 44 44 45 46 47
53 53 54 54 54 51 49 45 40 47 37 41 39 37 34 33 27 20 29 25 26 19 25 24 19 22 24 19 16 14 12 19 26 31 30 29 31 34 35 40 43 44 45 46 48
54 54 54 54 52 50 48 45 48 48 42 35 38 30 30 33 22 18 24 27 22 21 21 19 24 27 24 22 20 21 18 25 20 29 30 29 29 33 37 39 41 43 44 46 47
54 54 54 52 49 49 46 44 45 49 29 24 25 28 28 28 23 26 29 26 27 23 26 26 27 25 24 24 25 23 25 25 28 24 18 28 15 31 36 38 41 43 45 46 48
54 53 53 51 51 45 50 55 54 49 23 23 22 25 27 24 24 28 33 28 23 26 29 27 26 25 24 26 28 26 29 29 27 24 25 25 21 30 36 36 40 43 45 45 45
53 54 53 50 53 52 54 55 51 38 19 21 22 23 26 26 26 29 30 31 31 28 28 28 29 28 28 30 29 31 30 28 28 26 23 22 22 19 32 34 38 42 42 43 42
53 54 52 51 47 56 60 50 34 28 26 20 20 22 24 24 27 29 29 28 25 26 27 26 27 28 30 29 31 30 27 23 20 24 23 27 24 21 28 34 38 41 40 41 41
53 53 53 52 53 57 51 36 25 21 23 23 22 23 24 26 28 29 29 27 29 27 24 18 24 24 28 28 25 29 26 23 17 22 15 27 20 20 31 33 38 40 38 39 40
53 53 51 53 55 55 42 40 27 26 26 23 23 22 25 27 24 28 29 27 28 30 21 23 21 26 29 29 28 27 27 29 28 29 27 20 25 29 32 32 35 38 37 38 39
50 49 49 56 58 51 43 32 26 35 31 26 19 22 23 26 23 24 28 31 30 32 33 29 24 27 28 29 30 27 28 26 29 24 18 16 21 18 31 32 35 36 37 38 39
50 44 54 60 55 45 39 31 33 40 37 28 22 24 23 27 26 24 25 32 33 31 31 28 28 28 30 27 25 27 25 25 25 28 15 12 10 29 30 33 35 36 38 38 40
49 40 55 52 41 37 34 31 40 37 36 33 31 28 28 30 29 29 27 31 37 34 30 31 31 32 26 29 30 28 25 22 21 20 28 30 14 27 33 34 35 36 37 39 41
42 47 53 47 38 44 35 33 38 34 32 35 32 33 36 34 33 34 34 36 35 35 33 33 32 29 26 28 28 27 27 23 28 32 26 32 15 27 32 33 34 36 37 39 41
43 45 49 41 38 34 32 31 29 37 35 35 37 38 38 36 37 37 36 35 37 37 40 36 32 30 27 22 26 28 27 25 22 26 20 24 12 20 25 30 33 36 38 39 40
46 42 42 44 37 33 33 30 28 33 35 36 36 35 36 37 36 36 37 34 38 40 38 35 31 29 27 27 26 24 25 25 22 23 24 15 17 13 20 25 30 36 37 38 38
44 42 43 39 36 32 33 29 26 33 35 33 35 37 37 37 34 36 36 34 33 38 37 35 34 31 30 29 27 26 24 25 25 24 24 20 21 22 27 30 33 36 36 36 36
49 45 41 40 36 33 32 30 28 38 40 37 37 39 38 38 40 40 39 38 36 37 37 36 36 29 24 28 28 33 28 24 24 25 26 24 24 29 31 32 33 35 36 36 36

GFSSW_sfc_dewp_015.txt.gz
Dewpoint
55 55 56 57 57 57 57 56 56 56 56 56 55 54 53 53 52 48 43 39 42 57 54 32 29 31 24 19 17 19 15 10 17 32 39 35 33 37 41 42 50 48 48 55 61
56 55 56 57 57 57 56 56 55 56 56 55 55 53 53 53 48 42 46 58 55 59 34 28 28 24 19 19 17 13 11 13 32 45 37 36 36 38 38 40 46 49 53 58 60
55 56 55 56 56 56 56 55 55 55 55 55 54 53 53 51 44 33 59 58 57 56 28 23 22 19 18 17 17 14 17 21 34 30 35 34 35 35 38 44 44 49 54 56 59
56 55 54 55 56 56 55 55 55 55 55 54 53 52 51 49 31 36 60 58 58 42 28 21 19 19 19 16 16 17 18 22 31 26 26 27 30 35 48 48 50 50 54 53 57
56 55 55 55 55 55 55 54 54 55 54 52 51 51 49 44 36 50 59 58 42 38 26 19 20 20 16 14 15 20 22 21 26 31 29 34 40 33 37 39 46 54 54 52 54
56 55 55 55 55 55 54 54 54 54 52 51 51 50 48 38 31 42 39 38 34 33 24 21 19 17 14 16 18 19 20 16 22 26 28 30 29 27 36 40 46 49 46 46 47
56 55 55 55 55 54 54 54 54 53 51 50 49 47 45 37 32 40 35 30 30 26 22 25 24 22 23 22 21 16 14 17 23 25 26 32 18 28 39 40 42 42 44 45 45
56 55 54 54 54 53 53 53 52 51 50 49 49 48 42 36 34 35 38 34 32 29 29 31 30 26 27 22 18 14 15 17 20 24 24 22 15 29 36 39 40 42 44 45 46
56 55 54 53 53 53 53 51 51 50 49 49 50 48 37 41 30 27 32 28 33 32 31 28 31 28 26 22 15 14 10 14 17 19 22 17 17 31 34 37 39 42 46 46 46
56 54 54 53 53 53 52 50 50 50 49 47 46 46 41 25 28 22 29 29 32 33 32 30 28 26 24 19 11 12 9 10 13 16 14 7 19 28 32 33 39 40 44 45 46
55 54 54 53 54 53 50 48 45 46 46 37 33 31 25 27 29 22 23 26 30 30 26 28 23 19 18 18 14 12 8 6 9 14 11 11 19 21 32 33 35 36 40 43 45
55 54 53 54 54 52 51 42 41 48 41 37 33 31 31 29 25 19 23 23 26 22 26 25 24 20 16 14 11 10 9 13 16 18 23 15 18 24 30 32 35 36 38 40 44
54 54 54 54 53 51 48 43 46 48 43 33 31 30 26 30 22 19 21 22 21 21 25 25 20 21 19 13 12 14 10 18 16 21 23 19 22 28 30 33 38 39 39 41 45
53 54 53 52 49 48 45 44 45 47 36 26 27 27 27 26 22 22 22 23 20 20 21 30 25 19 16 15 16 19 21 19 17 22 17 20 13 25 31 33 35 39 41 43 45
53 54 53 51 53 44 50 51 49 53 28 23 23 26 24 22 18 24 26 23 20 21 23 25 23 21 18 22 25 28 25 23 21 20 22 19 16 31 31 29 33 37 40 43 47
54 53 53 51 51 51 53 58 55 42 24 21 22 21 24 23 20 20 22 24 25 22 23 31 27 24 24 27 26 28 26 26 24 21 23 16 18 20 28 28 33 38 42 45 46
54 53 53 51 46 54 58 55 40 31 23 16 18 20 21 19 21 22 22 22 17 21 23 22 22 27 27 25 28 25 25 20 17 21 21 20 19 19 21 29 31 38 41 44 44
53 53 53 51 51 58 58 46 31 23 21 18 15 19 20 19 19 21 18 16 19 23 22 18 24 25 27 25 23 25 22 21 15 18 12 23 17 15 27 26 30 38 40 43 41
52 53 52 53 55 56 50 41 32 17 20 19 17 18 20 20 19 22 23 18 19 22 21 19 20 26 27 27 24 23 24 25 25 27 24 16 14 21 30 29 32 37 40 40 39
50 50 49 54 57 55 45 35 28 26 24 20 18 19 20 22 19 20 23 23 26 29 30 22 20 23 27 29 29 28 26 23 23 19 18 12 14 10 27 28 32 37 39 39 39
50 44 48 55 55 47 39 34 27 30 29 24 19 18 20 21 21 20 20 27 30 29 28 22 23 27 28 26 21 27 23 23 24 28 21 14 12 21 19 28 31 34 38 39 39
49 41 55 58 42 43 39 33 31 32 37 29 29 22 23 23 24 21 19 21 32 31 24 24 27 31 26 28 28 28 26 25 26 20 25 29 16 22 26 28 32 33 36 38 39
46 46 58 56 43 47 37 30 29 32 32 31 26 26 25 24 23 23 24 38 38 34 27 32 27 28 25 28 27 23 23 23 21 31 22 29 18 23 26 27 28 32 35 37 39
43 43 51 50 45 39 35 31 31 35 31 31 26 31 31 31 31 31 32 36 38 35 40 37 28 27 27 24 25 28 22 22 23 26 24 23 15 15 21 23 24 29 32 36 38
42 40 43 45 43 39 35 32 27 31 34 35 34 30 29 30 32 33 35 36 37 40 35 36 31 28 26 26 23 22 20 22 20 20 24 19 9 9 12 17 21 25 30 32 37
41 39 42 43 41 37 35 30 27 29 33 34 32 29 29 32 33 30 35 36 35 38 37 37 34 33 33 28 26 24 21 18 19 20 17 15 15 15 21 20 24 26 31 32 36
48 50 43 43 42 36 36 30 28 33 40 35 32 34 34 38 41 41 40 38 36 38 39 37 39 33 24 29 29 32 30 23 20 19 21 22 21 22 25 25 26 27 31 33 35

GFSSW_sfc_dewp_018.txt.gz
Dewpoint
57 57 56 55 57 55 57 56 56 56 56 56 55 54 54 54 52 47 43 42 44 57 53 35 29 27 28 22 19 12 11 12 14 27 42 44 37 37 43 45 42 50 57 56 62
56 55 56 54 55 55 56 56 55 56 56 55 55 54 55 53 48 43 46 58 56 59 35 31 25 23 25 20 18 13 15 15 41 43 45 47 43 36 37 46 46 50 55 59 60
56 55 56 54 54 55 56 56 55 55 56 55 55 54 54 51 45 36 59 57 57 54 29 28 25 24 20 17 17 15 13 14 41 44 43 45 39 38 37 39 48 56 53 57 58
57 57 56 56 55 54 54 55 55 55 55 54 53 52 53 49 33 36 60 58 58 39 32 30 21 20 17 16 15 14 12 17 36 42 41 39 40 37 35 40 46 51 52 55 56
57 57 56 55 54 54 53 53 55 54 54 53 52 51 49 45 39 48 61 56 38 36 33 23 18 17 17 16 14 14 19 20 38 41 40 40 38 40 39 40 44 48 51 52 54
57 56 55 55 55 53 54 53 54 54 54 52 51 51 48 39 31 43 44 41 28 31 29 18 18 18 17 13 13 17 20 21 27 40 32 39 34 43 42 44 46 50 47 49 48
57 56 55 55 55 54 54 52 54 54 53 51 50 47 44 37 33 38 33 29 30 32 22 22 22 21 22 18 19 19 18 17 23 25 32 34 36 30 44 45 45 42 43 44 43
57 56 55 54 54 54 54 53 54 53 52 50 50 48 42 38 37 33 36 32 29 29 24 28 29 26 26 28 20 17 19 19 20 23 27 32 21 28 37 38 38 39 40 41 41
56 56 55 54 54 53 53 53 52 52 51 50 50 49 39 42 32 28 31 32 32 30 30 28 30 28 27 25 19 17 13 18 21 21 22 22 20 26 35 37 40 41 43 42 42
56 56 55 54 53 53 53 52 52 50 50 46 45 43 43 29 27 22 27 28 31 32 30 30 28 26 25 22 15 15 13 14 16 16 21 16 21 26 29 41 39 39 41 44 44
56 55 54 54 53 53 51 48 46 46 46 35 34 33 22 24 27 23 25 28 30 31 28 29 25 22 25 24 19 18 15 13 12 16 15 12 18 24 28 32 36 39 42 44 45
55 55 54 54 54 53 51 46 42 48 44 39 28 33 30 29 26 21 22 25 30 27 26 22 22 23 24 21 20 14 14 11 12 10 12 9 15 18 26 29 34 36 41 43 45
55 54 54 54 54 52 49 44 44 45 42 35 27 26 28 27 23 19 21 22 25 23 25 28 32 32 19 20 15 14 16 19 13 13 8 26 14 17 22 28 30 33 36 38 44
54 54 53 53 50 50 47 45 46 50 37 29 26 26 27 27 22 19 20 21 28 25 25 26 31 24 18 12 12 19 25 21 18 21 16 24 18 22 31 25 28 33 36 38 42
54 54 53 52 53 45 49 44 50 52 30 25 25 25 24 23 18 21 22 23 23 28 27 26 31 21 17 26 25 25 28 25 19 16 29 29 24 30 35 34 30 35 39 41 45
53 54 53 53 51 51 53 58 54 44 29 22 22 23 21 20 17 17 22 22 21 20 27 29 29 27 28 27 25 29 28 25 19 20 30 28 28 27 32 33 34 33 38 42 45
53 54 53 51 47 52 55 57 41 31 23 19 20 21 19 19 19 18 21 20 19 20 26 23 20 20 26 18 24 21 19 21 28 27 26 19 23 32 32 36 46 45 38 43 48
53 53 53 51 52 56 57 52 33 25 24 14 17 18 18 19 18 17 20 16 18 18 18 26 25 20 21 19 28 28 17 25 27 29 22 26 21 17 32 33 42 40 41 45 46
53 53 52 53 55 57 54 43 34 25 22 18 15 16 17 17 17 17 18 16 16 19 31 33 28 31 25 23 21 17 22 23 23 35 27 17 13 23 26 27 25 38 41 43 44
50 50 48 54 56 53 50 40 34 29 20 19 15 16 17 18 16 18 18 18 16 21 37 39 34 30 26 25 25 25 23 26 26 25 21 14 14 21 27 27 29 35 40 42 43
49 44 48 55 55 50 43 40 36 29 25 22 18 16 17 20 18 18 19 25 28 25 25 23 28 25 27 24 16 25 21 22 19 32 31 27 16 21 22 26 30 33 41 41 42
48 40 53 57 41 38 43 38 36 29 28 28 25 19 19 22 20 19 18 21 28 25 25 25 25 34 23 24 24 24 27 22 36 27 34 36 22 23 25 24 31 32 36 41 41
43 46 56 54 35 42 41 37 34 30 31 32 26 26 23 23 23 22 21 38 37 29 27 29 28 30 24 26 27 25 19 21 25 37 33 34 27 23 22 23 26 31 34 38 41
43 43 52 54 38 39 40 34 32 32 28 29 28 26 24 22 24 24 25 36 37 34 41 41 28 25 30 24 27 28 23 19 21 36 33 28 17 16 21 23 24 29 32 34 39
49 42 47 45 43 41 41 35 31 28 30 31 28 23 28 28 26 28 28 37 37 39 35 35 30 27 23 23 25 26 22 21 18 23 25 25 17 16 16 20 25 27 30 30 31
46 41 45 42 42 42 42 37 31 27 32 31 31 27 30 30 29 29 30 37 35 38 35 36 36 37 36 28 26 25 24 23 20 18 19 18 18 18 24 24 25 25 26 31 29
47 50 45 43 42 42 43 38 33 32 33 31 31 31 30 36 38 41 42 41 36 39 39 39 43 39 34 29 31 30 32 26 25 20 20 22 24 21 21 24 28 29 27 33 32

GFSSW_sfc_dewp_021.txt.gz
Dewpoint
58 57 57 57 54 54 54 54 56 55 56 56 55 55 55 55 53 48 46 46 46 55 54 36 34 32 30 28 24 20 12 9 18 41 41 47 46 49 47 45 46 51 57 59 60
58 57 56 57 55 54 54 54 56 56 55 56 55 55 55 54 49 45 49 56 58 59 38 35 32 26 24 24 23 18 14 15 41 46 44 42 43 46 44 47 49 46 55 60 60
58 57 57 56 56 53 53 53 55 55 55 56 54 54 54 52 47 42 60 56 59 55 32 31 30 25 22 24 20 17 14 37 41 43 44 44 44 46 40 47 48 50 54 59 59
58 57 57 57 56 54 53 53 53 53 55 55 55 54 53 50 34 39 60 60 60 42 36 29 30 24 22 17 18 16 16 28 39 43 43 45 44 40 39 48 49 52 56 58 56
57 57 57 56 56 55 53 52 52 54 53 54 53 52 50 46 45 52 59 59 43 36 33 32 32 23 19 18 18 16 18 38 40 44 42 42 38 40 39 45 51 55 55 56 56
57 57 56 56 56 55 54 52 52 54 54 54 52 52 48 42 45 54 46 41 32 34 34 34 26 19 18 19 17 19 18 38 40 42 41 34 38 41 41 45 49 50 53 53 48
57 56 56 56 55 55 54 54 52 54 54 53 52 48 45 40 38 41 41 35 28 30 30 30 25 28 27 26 29 22 18 21 36 41 39 35 38 40 42 43 48 50 51 52 46
57 56 56 55 54 54 54 53 53 54 54 53 51 48 45 43 42 38 34 30 30 31 32 31 32 31 28 29 27 18 21 21 24 34 38 33 32 38 43 43 48 45 45 45 44
57 56 55 54 54 53 53 53 54 54 53 52 48 48 45 47 39 36 34 34 31 30 30 28 30 31 29 27 24 23 15 20 22 24 30 28 25 40 44 45 43 41 41 41 41
56 56 55 54 53 53 53 53 53 52 51 48 46 43 42 36 35 29 30 33 33 34 33 33 29 28 27 25 21 19 17 17 20 22 23 22 24 40 44 44 45 45 45 45 42
56 56 55 54 53 53 51 50 46 47 46 42 38 37 31 32 29 27 29 29 33 32 32 31 26 25 27 25 24 19 16 16 16 18 21 22 24 30 41 42 43 45 48 45 45
56 55 55 54 53 54 51 48 44 45 43 44 39 36 32 33 29 27 27 28 33 31 38 27 26 29 27 25 25 23 21 19 17 15 14 20 22 25 41 43 43 47 45 45 45
56 55 54 53 53 52 49 47 45 47 43 41 42 37 29 32 29 26 23 24 29 30 29 28 31 31 30 29 24 25 25 20 17 12 11 20 18 22 26 29 39 44 42 42 46
55 54 53 53 49 50 49 49 49 47 41 34 37 28 26 29 29 26 24 24 32 30 28 29 31 30 29 27 21 19 27 27 23 22 16 24 20 29 29 28 30 38 45 44 48
54 54 53 52 51 50 49 52 48 49 31 29 31 29 27 28 27 22 24 26 26 30 31 29 29 30 29 26 24 24 26 28 27 24 27 26 22 27 33 25 29 32 36 40 47
54 53 53 52 51 50 51 51 55 42 31 30 28 25 25 27 26 21 24 28 31 30 29 29 28 31 31 28 24 29 29 31 29 25 24 27 27 29 30 27 33 35 37 40 46
54 53 52 51 48 52 51 53 40 32 30 25 24 25 25 24 23 21 24 23 21 25 28 27 25 31 34 28 29 30 24 25 22 26 25 31 28 28 33 32 35 37 36 41 49
53 53 52 51 52 53 55 48 36 32 31 24 25 25 23 22 22 22 23 22 22 22 27 26 27 33 33 25 27 29 26 27 23 27 27 32 28 27 29 33 36 39 40 45 48
53 52 51 51 52 53 52 40 34 35 25 28 21 22 21 21 20 21 20 22 19 19 27 31 31 34 34 34 28 26 26 30 34 35 32 31 25 27 33 37 40 39 40 45 46
52 50 49 52 54 52 47 38 39 35 33 27 25 21 20 20 20 19 21 21 21 21 37 38 31 36 36 36 27 27 27 26 30 23 20 18 20 27 30 31 35 40 41 44 44
51 46 47 52 54 50 38 39 40 39 35 33 27 21 20 23 22 22 22 21 27 34 36 37 36 36 36 31 24 26 24 24 25 29 24 23 20 22 26 29 31 39 42 43 43
50 42 48 53 43 42 38 40 40 38 39 37 32 25 23 28 27 22 24 37 32 32 33 37 36 31 30 28 26 25 31 33 26 20 28 26 23 23 21 26 29 31 41 43 42
47 45 51 47 34 38 37 40 41 38 38 35 34 33 34 27 29 24 34 41 39 33 31 35 27 25 22 27 31 26 25 23 33 32 25 22 23 23 22 21 25 28 32 41 42
47 40 49 49 35 36 33 36 39 41 38 36 33 35 31 29 31 30 38 41 40 38 40 39 31 27 24 25 29 29 27 26 26 26 25 26 25 21 22 23 24 25 27 37 41
47 38 44 42 42 34 35 37 38 38 37 35 33 32 31 25 29 28 38 39 40 40 37 35 28 29 31 32 29 28 28 27 23 27 25 25 25 25 23 24 24 28 28 28 31
45 40 47 42 43 40 36 37 36 35 35 32 33 32 30 28 33 30 36 38 36 39 35 36 34 33 32 32 31 29 28 27 27 26 23 23 22 22 25 25 24 23 27 28 29
45 48 45 43 42 38 34 38 38 37 36 31 36 35 33 38 39 42 42 44 41 39 36 36 34 30 28 29 27 22 24 27 28 27 26 21 22 25 27 28 28 28 29 29 31

GFSSW_sfc_dewp_024.txt.gz
Dewpoint
58 58 58 57 57 55 55 54 53 55 55 55 55 56 55 55 54 48 45 44 47 56 53 38 35 33 31 30 29 19 16 13 11 40 40 45 46 47 46 46 46 52 57 58 60
59 58 57 57 56 56 55 54 53 54 55 55 56 55 55 54 49 47 49 56 56 59 40 33 33 29 24 24 25 20 16 16 31 44 42 42 43 44 45 47 46 54 58 59 58
59 58 58 57 57 56 54 54 53 53 54 55 55 55 54 53 47 44 58 57 59 57 34 34 32 28 25 24 24 20 17 32 41 44 43 41 43 45 47 48 47 54 54 57 57
58 58 57 58 57 56 55 54 53 53 54 54 54 54 54 50 33 36 61 61 60 44 36 31 28 27 22 22 21 18 17 34 40 44 43 43 43 39 39 48 48 58 57 57 56
57 57 57 57 57 56 55 54 52 52 54 54 54 53 49 45 45 51 60 60 46 37 33 30 34 32 23 19 19 17 27 38 41 42 42 43 40 40 46 47 51 57 58 56 56
57 56 56 57 56 56 55 54 53 53 54 54 53 52 48 36 46 51 47 41 36 34 34 33 33 27 21 20 19 22 35 37 42 39 38 36 40 40 46 49 51 55 56 56 56
57 56 56 56 56 55 55 54 54 54 54 54 52 48 46 32 44 47 40 35 30 31 31 32 30 29 32 25 29 25 31 38 41 39 37 37 35 38 45 49 50 51 54 55 57
58 56 56 55 55 54 54 54 53 54 54 53 52 48 41 44 44 38 38 33 32 31 31 31 32 30 31 29 27 20 21 29 37 40 37 33 30 37 44 47 49 51 52 50 57
58 56 55 55 54 53 53 53 53 54 54 53 48 48 43 47 42 43 36 31 31 31 32 28 32 31 28 27 23 22 14 19 31 38 36 32 30 37 43 46 47 45 46 46 53
58 57 55 54 54 53 53 53 53 52 50 49 47 40 40 34 39 34 35 34 33 34 32 33 29 28 27 24 19 18 16 17 20 22 33 26 28 41 43 45 44 44 45 43 47
57 57 55 54 53 52 51 49 45 46 46 37 31 35 31 34 34 27 30 31 34 32 29 33 25 24 25 27 26 24 23 16 16 20 22 24 37 41 43 43 42 44 46 45 45
57 56 55 54 53 53 50 46 45 43 41 44 42 40 38 37 30 29 29 28 32 29 35 29 27 28 29 29 28 29 22 21 21 19 17 24 33 41 41 40 40 43 46 47 46
56 56 55 53 53 52 48 47 47 46 42 43 45 43 42 33 31 29 27 29 31 30 29 25 26 31 31 27 28 27 23 24 21 11 18 19 20 38 40 42 41 44 45 45 45
56 55 53 52 48 49 49 50 50 47 39 37 39 40 29 29 29 30 26 26 30 29 29 27 31 30 31 29 29 24 24 26 23 20 12 21 17 27 32 38 41 42 45 42 46
55 54 52 51 50 49 49 50 48 48 21 30 38 34 27 28 28 25 27 27 27 29 27 26 30 29 29 28 27 24 28 26 26 24 24 23 20 21 30 27 38 42 44 41 43
55 54 53 52 51 49 49 51 53 38 27 34 30 27 26 28 27 26 22 29 31 30 31 27 30 29 28 31 27 27 28 30 31 28 24 29 22 22 29 25 29 37 43 43 44
54 54 52 51 46 52 53 52 39 33 32 29 26 27 26 26 27 26 24 23 26 24 26 26 27 30 33 28 28 28 24 21 20 23 22 31 27 26 29 32 30 32 36 40 47
54 53 52 51 51 52 54 48 34 33 34 31 27 26 24 25 25 24 23 21 24 24 27 24 24 32 35 30 28 28 25 23 17 23 24 32 28 26 29 31 34 35 39 47 49
53 52 52 51 51 52 51 40 32 37 30 28 26 25 24 25 22 22 23 22 21 21 23 29 29 36 36 35 33 29 25 29 31 34 30 29 29 27 33 35 34 39 42 48 49
50 51 50 51 51 50 46 36 37 39 36 30 25 25 23 22 22 20 21 23 23 23 32 33 28 35 35 34 34 31 27 25 29 25 24 20 21 27 31 33 36 39 39 46 48
49 45 50 52 51 46 38 36 38 38 38 37 32 28 23 23 22 23 21 21 24 34 36 36 29 32 36 32 29 28 24 25 27 27 22 22 20 21 30 31 31 36 40 45 46
47 40 50 52 40 40 39 38 38 38 40 41 38 34 25 25 25 25 24 25 32 36 31 35 34 31 32 31 32 30 27 28 24 19 27 25 22 25 25 28 33 38 40 45 45
43 44 51 48 34 36 38 39 38 36 39 39 36 35 30 27 24 28 30 40 38 34 33 34 29 24 24 24 32 26 25 30 31 29 24 21 22 24 22 21 27 32 41 44 44
44 39 46 46 39 32 35 37 37 37 37 39 39 38 33 31 34 32 36 39 41 37 41 38 29 24 21 21 27 27 28 27 29 25 25 25 23 24 23 22 22 27 36 42 43
44 37 40 37 39 34 34 36 36 34 38 39 36 37 35 28 32 28 38 38 39 40 38 34 27 28 27 31 30 28 27 28 25 26 24 24 25 23 23 22 24 26 28 38 41
41 41 42 40 38 36 34 33 32 33 35 34 36 36 34 27 30 31 37 37 34 37 33 36 29 32 30 31 30 27 27 27 27 26 27 24 24 25 25 24 26 27 28 28 31
45 46 44 39 39 37 33 33 31 31 37 34 35 35 33 32 37 37 40 40 39 36 35 34 32 29 26 28 26 25 25 25 26 27 26 23 25 29 29 29 28 30 30 31 34

GFSSW_sfc_dewp_027.txt.gz
Dewpoint
58 58 58 58 57 56 56 56 55 54 53 54 55 55 55 55 54 48 42 42 48 55 54 36 35 34 32 30 30 20 18 14 13 31 37 45 44 47 47 46 54 57 57 59 61
59 59 58 58 57 56 56 55 55 54 53 53 54 54 55 55 50 47 50 54 56 56 37 30 32 27 23 25 25 21 17 17 17 41 40 43 43 44 44 47 53 56 59 60 59
59 58 58 57 57 57 56 55 54 54 54 53 55 55 55 53 46 41 59 57 58 57 34 34 30 27 23 23 23 20 19 19 39 44 43 40 43 44 46 45 51 54 56 57 57
58 58 58 57 57 57 56 55 55 54 53 54 54 55 54 50 29 36 61 59 59 52 36 29 27 26 24 22 23 20 19 33 38 43 42 42 41 39 44 48 54 54 56 56 56
58 57 57 57 57 57 56 55 55 54 53 53 54 54 49 39 34 50 60 59 53 38 32 29 32 31 24 21 21 18 18 24 40 43 43 43 40 42 46 55 55 56 56 56 56
58 57 57 56 57 56 55 55 54 54 54 54 54 53 46 21 42 51 50 45 38 34 31 32 32 30 26 21 19 22 33 39 40 41 40 39 42 42 45 57 56 55 53 51 55
58 57 57 56 56 56 55 54 54 54 54 54 53 49 45 26 45 46 43 39 33 32 32 34 34 30 28 24 30 30 36 39 39 39 38 41 39 41 45 54 56 54 54 53 55
58 58 56 56 55 55 54 54 54 54 54 53 52 47 43 40 45 42 40 35 32 31 30 31 33 31 29 28 27 20 27 25 33 39 39 33 31 40 47 49 52 55 54 54 55
57 57 56 55 54 54 53 53 54 54 53 53 47 46 41 44 42 45 38 34 31 31 31 30 31 30 27 25 21 21 16 22 31 39 36 32 31 39 45 47 49 51 55 55 55
56 57 57 55 54 53 53 53 53 52 50 49 47 36 34 31 36 37 40 36 34 34 31 32 29 27 26 23 18 21 18 17 23 32 37 33 28 40 44 48 49 47 47 53 55
55 57 57 55 54 52 50 48 43 45 45 31 27 28 30 35 35 33 34 34 34 32 29 31 26 24 25 26 27 25 24 22 20 21 32 32 28 39 43 46 45 46 46 47 54
55 56 56 55 54 53 49 44 42 44 39 43 42 39 38 39 37 31 31 29 31 28 34 29 27 27 29 29 29 28 26 24 23 20 23 24 30 40 43 44 44 44 46 44 51
53 56 56 54 53 51 47 46 47 46 36 38 44 43 42 41 37 30 28 30 30 29 31 25 25 30 29 26 27 27 26 24 23 16 22 24 25 39 41 41 41 41 44 44 46
52 54 54 52 49 49 48 50 50 48 34 34 42 42 41 33 29 32 28 29 31 28 29 27 29 30 30 28 28 25 27 25 24 17 13 18 14 25 39 40 40 40 43 45 44
52 54 53 52 47 50 50 49 48 47 16 23 38 38 31 27 27 28 26 28 25 29 27 26 28 28 27 26 28 25 27 26 27 23 23 25 20 21 35 37 39 39 40 45 45
52 54 53 51 50 48 49 52 51 34 20 28 35 29 26 27 27 25 25 29 28 29 29 26 29 28 27 30 29 27 29 28 30 27 22 27 22 21 28 32 36 39 39 43 42
52 54 53 51 46 52 52 52 39 29 26 30 29 27 25 26 25 26 22 27 26 24 25 26 27 29 33 28 29 27 24 19 18 22 21 29 26 25 25 29 30 33 36 42 44
51 53 53 51 51 51 54 47 33 33 34 36 28 27 23 26 25 26 23 21 23 24 25 23 23 29 34 29 28 29 24 22 14 21 21 31 27 27 30 31 32 31 35 39 45
50 51 52 53 52 50 50 39 32 33 35 25 27 25 25 25 24 25 23 22 21 26 22 27 26 35 35 35 31 30 25 28 30 31 27 25 29 23 30 33 38 38 44 45 48
46 47 48 52 51 48 45 36 37 38 38 36 25 26 23 24 23 22 23 23 22 24 27 29 23 33 35 35 34 30 30 25 28 23 22 23 21 21 29 30 38 39 42 47 49
45 43 47 52 51 44 36 36 38 38 39 38 34 27 25 24 24 23 22 21 25 26 30 33 25 26 34 31 26 28 25 26 27 26 20 20 21 23 26 30 30 32 39 46 49
43 37 51 51 43 40 34 37 38 37 39 40 40 38 30 26 24 24 22 23 28 35 29 33 29 26 26 31 31 30 29 27 24 19 26 25 22 24 24 28 30 31 37 41 48
39 42 51 47 37 36 36 36 38 36 36 38 38 38 34 27 23 26 27 33 37 33 32 34 29 25 24 27 29 28 27 30 29 27 24 21 21 23 24 22 23 31 32 41 47
41 36 44 46 40 36 34 35 37 39 37 38 38 40 36 30 30 29 31 38 39 36 42 35 29 26 24 24 27 27 28 29 28 26 24 24 22 23 24 24 24 23 30 41 45
41 35 38 37 38 38 34 34 36 35 38 35 35 38 37 32 30 31 37 37 38 40 37 34 27 26 25 24 29 27 27 28 26 26 24 24 25 26 25 23 24 25 29 38 43
38 39 41 38 37 37 36 33 33 36 36 33 30 35 33 34 31 29 35 35 33 36 34 35 27 30 29 30 29 26 27 26 27 26 26 25 24 26 26 27 28 26 29 32 38
43 43 43 37 36 35 34 33 33 37 37 35 34 34 36 36 36 34 38 37 35 35 33 32 30 28 24 28 27 24 25 26 25 25 26 23 25 28 29 29 30 30 32 34 37

GFSSW_sfc_dewp_030.txt.gz
Dewpoint
59 59 58 58 58 57 56 56 55 54 53 54 54 54 54 55 53 48 42 42 47 54 54 36 34 34 31 30 28 22 18 15 13 21 32 45 44 46 52 53 55 57 56 59 60
59 59 59 58 57 57 57 56 55 55 54 53 54 55 55 55 49 47 49 53 56 56 34 31 31 28 24 25 25 22 19 17 18 24 39 42 43 45 47 51 53 56 60 61 59
60 59 59 58 57 57 57 56 55 55 54 54 54 55 55 53 41 38 58 56 57 55 33 33 29 27 22 23 23 20 19 19 22 40 42 40 42 45 46 45 52 53 58 58 58
59 59 58 58 58 57 56 55 55 55 54 54 54 54 54 49 27 33 61 59 58 51 35 28 28 27 23 21 23 20 20 22 32 44 42 41 41 43 46 49 54 56 57 56 56
59 58 58 58 58 57 56 55 55 54 54 54 54 54 49 34 26 51 61 59 52 40 34 27 31 30 25 22 21 19 19 26 38 43 43 42 43 47 52 54 55 56 56 56 57
57 58 58 57 57 56 56 55 54 54 54 54 54 53 45 17 37 51 51 43 41 35 30 29 31 31 28 26 20 22 26 36 41 42 42 43 44 45 53 54 54 55 54 54 55
57 58 58 57 56 56 56 55 54 54 54 54 53 49 44 23 43 44 43 39 37 33 31 33 34 30 30 26 29 32 34 37 40 39 37 41 37 43 54 54 53 53 50 52 54
55 57 57 57 56 55 55 54 54 54 54 53 52 48 40 39 44 45 41 37 33 34 31 29 33 31 30 28 25 22 28 23 39 40 38 33 33 45 54 53 53 53 53 52 54
54 54 56 56 55 54 54 54 54 54 54 53 47 47 33 41 37 40 39 35 32 30 30 29 32 29 27 25 20 20 16 19 33 39 37 33 31 43 51 53 52 53 53 54 54
54 54 55 56 55 54 53 53 53 51 51 50 47 35 27 29 36 38 42 35 34 33 32 31 29 26 26 22 17 21 21 25 22 33 37 33 30 41 46 48 52 53 54 55 54
54 54 55 56 55 53 50 47 39 43 45 35 26 22 25 34 40 33 38 36 34 31 28 31 26 23 22 25 25 25 25 24 22 23 35 35 33 39 43 47 49 50 52 54 55
54 53 54 55 55 53 49 43 42 44 40 42 41 36 36 41 40 35 35 31 32 29 32 28 27 26 27 29 28 27 25 23 23 20 31 31 33 38 43 46 48 47 48 50 52
52 52 52 55 53 51 46 44 48 48 40 36 41 41 40 41 38 36 30 30 29 28 30 26 24 30 29 26 26 25 25 25 23 18 23 26 26 39 41 42 43 45 46 47 47
51 51 51 54 50 48 45 49 50 49 31 30 39 41 41 41 32 34 29 30 31 26 30 29 28 28 28 26 27 24 27 27 24 17 15 21 15 22 38 41 41 41 42 44 45
51 51 52 53 47 48 49 48 49 45 15 24 39 40 39 29 28 29 28 27 27 29 28 26 28 28 27 26 28 25 28 27 26 23 23 24 20 20 36 38 40 42 41 42 45
49 51 52 53 51 48 49 51 49 34 15 21 34 34 29 27 27 25 25 28 28 28 29 26 28 28 26 29 28 29 28 24 28 25 21 25 23 22 27 35 39 41 42 41 43
49 50 52 52 48 50 51 50 40 29 25 22 33 29 26 25 25 24 25 27 24 23 25 26 26 28 32 27 29 27 22 18 16 22 21 28 26 25 25 27 34 38 39 40 42
49 50 51 52 51 49 52 45 32 31 27 33 30 27 23 24 24 25 22 24 25 24 24 22 20 29 31 27 24 27 24 21 12 19 17 29 23 21 29 30 32 31 32 37 43
49 47 48 50 52 50 48 36 31 32 34 29 27 24 24 24 24 24 24 23 24 25 21 24 23 33 34 34 29 28 24 26 28 29 26 24 25 23 28 33 36 36 38 37 44
45 45 43 52 53 49 42 34 35 34 38 37 24 26 23 24 22 23 23 24 22 27 28 28 21 31 33 34 33 29 31 25 27 21 21 22 21 20 22 29 35 37 40 41 45
45 40 40 52 52 45 35 34 35 38 39 38 37 32 26 25 24 24 24 23 25 24 27 29 23 22 33 29 24 27 26 26 27 25 20 19 20 24 22 27 30 33 38 40 47
42 34 47 51 42 40 36 35 36 37 39 38 39 39 34 27 25 24 23 24 27 32 26 31 26 22 24 29 30 28 27 28 25 21 26 24 22 25 22 24 27 27 31 38 45
38 38 49 45 33 35 36 36 36 35 36 38 37 39 36 29 23 26 26 28 34 30 29 32 26 22 21 24 29 28 28 28 28 27 24 21 22 22 25 24 24 25 30 37 43
39 33 41 43 37 33 34 34 33 38 37 37 37 39 36 33 30 25 26 36 36 31 40 34 29 23 20 20 25 27 27 30 28 25 24 24 22 22 23 24 24 24 24 29 41
39 34 37 36 35 35 33 33 33 32 36 38 35 38 35 32 29 30 35 37 36 41 35 30 24 26 25 24 26 26 26 28 26 26 24 25 24 25 26 25 25 25 25 31 41
36 36 39 37 34 34 36 33 32 32 35 34 34 35 37 36 31 28 35 34 32 35 33 33 27 27 28 29 29 28 26 27 27 27 26 25 24 27 26 28 29 27 33 36 40
40 40 41 35 34 32 32 32 32 35 35 36 35 34 35 34 34 35 34 37 36 34 33 30 30 27 24 29 26 24 26 27 27 27 26 25 26 26 28 30 30 31 35 36 36

GFSSW_sfc_dewp_033.txt.gz
Dewpoint
59 59 59 59 58 57 57 57 56 55 55 54 54 54 54 56 54 48 39 40 47 54 54 38 34 34 31 31 27 23 21 17 15 15 27 44 43 47 53 53 54 55 56 58 59
60 60 59 59 58 57 57 57 56 56 55 55 54 54 55 55 50 45 49 53 56 56 33 32 29 28 25 26 27 25 22 18 19 18 36 42 43 45 49 52 52 56 59 59 58
61 60 59 59 58 57 57 56 56 55 55 55 54 55 55 53 41 37 58 55 57 55 32 33 29 25 21 24 25 23 21 21 20 23 42 40 42 45 48 47 52 53 56 57 56
58 60 59 59 58 57 57 56 56 55 55 54 54 54 55 49 28 34 61 58 58 50 32 29 27 26 23 22 23 22 22 21 28 43 42 40 41 45 47 47 53 56 57 57 56
56 57 59 59 58 57 56 56 55 55 54 54 54 54 49 33 19 54 61 58 52 40 29 27 29 28 25 23 22 22 21 23 25 42 43 44 44 46 50 55 57 57 56 56 56
54 56 57 58 58 57 56 56 55 55 54 54 54 53 44 23 42 53 52 46 42 36 30 30 31 31 29 27 21 23 25 37 41 42 42 46 48 47 51 54 54 56 55 56 56
54 55 56 57 58 57 56 55 55 54 54 54 54 49 43 26 43 49 43 38 39 33 27 30 33 30 29 28 27 30 33 37 39 41 40 42 38 46 52 54 53 54 52 54 55
54 54 54 54 56 57 56 55 54 54 54 54 52 48 37 37 43 43 43 39 36 36 31 30 33 31 30 30 25 23 27 23 36 41 40 34 34 50 52 51 50 51 51 51 53
54 53 53 54 54 56 55 54 54 54 54 53 48 47 29 39 34 38 40 37 33 30 31 29 31 30 29 25 22 23 17 20 31 39 38 35 34 48 52 51 49 50 50 50 53
53 53 53 54 54 55 54 53 53 51 51 50 47 37 27 26 35 41 41 35 32 32 31 31 30 28 27 23 19 22 22 22 24 34 36 34 32 47 52 51 50 50 50 51 51
52 53 54 53 55 54 51 47 39 42 47 39 33 26 20 33 40 33 40 37 34 32 30 32 27 24 23 27 24 25 24 23 23 23 34 35 33 42 50 52 52 52 53 53 52
51 51 52 52 55 53 50 44 41 45 41 43 41 37 34 40 38 38 39 34 34 30 32 30 29 28 26 28 27 27 25 23 24 23 31 29 33 38 45 49 49 50 52 52 53
51 51 51 50 54 52 49 45 48 49 43 40 41 40 39 39 37 36 35 33 31 30 31 29 25 29 29 28 27 26 25 25 24 20 24 25 26 37 41 44 46 48 50 51 52
49 51 50 51 51 49 47 48 50 50 33 29 35 39 41 41 34 37 32 32 31 29 31 29 30 28 28 26 26 24 27 25 25 20 16 23 16 20 39 42 43 45 48 49 50
49 50 50 52 49 47 47 50 50 47 20 26 39 40 41 32 29 31 31 31 31 30 30 28 28 29 28 27 28 26 29 27 25 22 25 25 19 21 35 38 42 44 45 47 48
49 49 50 51 51 50 50 52 50 34 21 19 36 37 36 30 28 27 28 32 31 30 29 29 28 29 28 29 29 29 28 24 28 27 23 25 23 22 24 31 37 42 45 45 45
49 48 48 50 47 52 52 49 38 31 28 20 32 32 31 26 26 26 28 29 26 26 27 26 27 28 32 27 29 27 25 22 16 23 21 29 26 25 26 27 32 36 41 45 46
48 48 48 48 53 51 52 43 30 30 27 29 29 29 29 25 26 25 26 25 26 25 25 22 21 28 31 28 26 28 27 25 15 19 16 29 25 18 28 30 31 32 33 36 44
48 47 47 48 50 51 47 35 30 32 32 28 26 26 24 24 24 26 27 26 25 27 24 26 22 31 34 33 28 27 26 27 29 31 27 25 25 25 24 27 35 37 38 37 36
46 44 42 48 51 50 42 32 35 34 35 37 21 27 25 25 25 24 26 26 25 28 31 30 23 31 33 34 34 29 30 28 29 22 21 22 23 21 23 24 31 34 37 40 42
44 39 41 48 50 44 32 33 34 36 37 36 37 32 28 26 26 26 25 25 26 25 28 31 28 25 32 30 26 29 29 28 28 28 23 21 21 28 27 25 32 32 35 39 43
41 32 44 45 37 38 33 34 36 33 39 38 39 39 37 29 27 27 26 27 29 30 28 32 32 27 25 29 29 29 30 30 30 24 27 27 23 27 29 27 28 31 30 35 40
36 38 45 42 31 32 34 34 34 35 35 38 38 39 39 34 26 28 28 30 33 30 31 33 28 24 22 25 30 29 29 29 29 29 27 31 24 24 26 27 28 28 28 32 40
38 32 40 41 35 32 33 31 31 36 35 38 38 39 37 35 34 28 29 34 36 32 40 34 30 27 21 23 28 29 28 29 30 29 28 27 25 25 27 26 27 29 29 28 31
39 34 37 32 33 35 33 30 32 32 34 37 36 37 36 32 32 30 33 38 37 40 36 35 28 29 25 23 27 27 28 29 27 29 29 28 25 26 28 28 29 28 29 30 36
36 36 36 35 32 32 34 32 31 32 32 34 32 34 36 36 32 31 36 36 35 37 35 34 29 29 27 28 27 27 27 29 28 27 27 26 26 29 29 27 29 30 36 39 40
41 40 36 33 33 32 29 31 31 34 34 33 36 36 35 34 39 39 38 38 38 37 35 34 33 30 25 29 30 29 30 28 29 29 29 28 29 29 28 30 30 36 37 36 36

GFSSW_sfc_dewp_036.txt.gz
Dewpoint
60 60 60 59 59 58 57 57 57 56 56 56 56 55 55 55 53 46 38 40 43 53 53 36 33 31 29 26 27 24 16 14 18 20 24 38 40 47 50 50 52 55 55 58 59
58 60 60 60 58 58 57 57 57 56 56 56 56 56 56 56 46 39 47 54 56 57 32 26 26 26 23 25 26 22 17 13 17 18 21 36 40 44 47 49 51 56 58 59 58
56 57 58 60 59 58 58 57 56 56 56 56 56 56 55 53 40 36 56 55 57 53 29 29 22 21 22 24 23 22 18 19 18 21 23 34 40 44 45 45 48 53 56 57 57
55 56 56 58 60 59 57 56 56 56 56 55 55 55 55 48 18 38 61 58 58 42 30 26 23 22 21 21 23 21 22 22 21 30 34 36 41 43 46 51 52 56 56 56 56
54 54 55 56 58 59 58 56 56 56 56 55 55 55 47 31 18 47 62 57 45 35 29 29 27 26 22 23 24 23 22 24 28 30 40 41 40 43 49 53 56 57 57 56 55
54 54 55 56 57 58 58 57 56 56 55 54 54 54 42 25 36 49 46 44 36 32 28 28 29 29 28 26 25 25 27 35 34 39 42 41 43 44 49 53 54 54 55 55 55
53 54 54 54 55 56 57 57 56 55 55 54 54 47 41 31 36 46 41 35 35 30 27 27 31 30 29 26 27 26 32 30 35 40 40 40 37 42 48 51 52 50 50 54 53
53 53 53 53 53 54 56 56 55 55 55 54 53 47 36 33 35 42 40 36 36 33 32 30 31 31 30 29 26 24 28 27 34 36 38 40 33 46 46 46 46 47 49 50 52
52 52 53 53 53 54 55 56 55 54 53 53 49 46 30 41 34 32 40 35 35 33 32 27 31 30 29 22 20 22 18 21 30 34 36 37 31 44 47 43 45 44 44 47 50
49 49 51 53 53 54 54 54 54 52 51 49 46 41 34 18 27 39 35 35 32 30 30 31 31 26 22 18 16 18 18 21 27 34 35 33 29 43 48 45 45 45 43 44 46
50 49 49 52 52 54 53 50 45 44 47 38 34 33 17 29 39 36 39 35 34 33 29 32 25 21 17 19 22 21 20 18 21 26 29 26 26 38 46 47 46 47 47 44 45
51 49 49 51 51 54 54 48 44 46 38 38 39 37 36 31 32 35 39 34 34 29 31 30 24 21 22 23 25 25 20 20 22 23 26 24 23 30 43 48 48 47 48 48 48
50 50 49 50 52 53 51 50 48 48 43 36 39 35 34 36 31 29 36 33 31 28 30 26 25 28 26 27 25 25 22 21 23 22 24 23 22 30 37 43 46 47 47 47 47
50 49 50 50 50 49 47 49 49 50 36 22 31 35 36 34 33 29 34 31 29 27 28 28 28 27 27 24 26 22 24 24 24 22 17 23 14 23 30 37 41 44 45 47 46
51 49 49 50 48 48 48 51 52 51 17 20 34 38 37 28 25 29 33 31 27 27 29 25 27 27 26 24 26 23 28 26 25 23 24 22 15 20 28 30 34 41 43 44 46
51 50 49 48 47 49 50 53 51 37 16 18 34 36 35 33 25 27 30 30 28 27 29 25 28 27 24 27 27 29 27 26 28 25 22 20 20 17 20 21 23 31 40 44 45
50 50 48 45 42 49 53 51 37 27 21 15 29 34 29 27 24 25 26 27 23 25 26 26 25 26 28 26 30 28 25 21 18 21 20 26 23 20 20 21 25 28 30 39 44
48 50 48 44 45 49 51 45 24 13 19 26 29 31 28 23 23 25 24 24 24 22 21 20 21 24 27 26 24 26 24 23 17 18 14 26 18 18 22 26 30 33 33 34 40
49 48 48 47 47 48 46 34 17 13 21 17 22 27 29 23 21 24 24 22 23 25 22 22 18 26 29 28 26 27 25 25 26 31 24 19 20 22 21 25 28 31 35 35 35
45 44 45 47 50 47 39 32 22 17 25 26 20 21 26 24 21 22 24 24 22 24 24 24 20 27 32 33 33 29 28 26 28 22 18 17 19 16 19 19 23 24 27 34 38
45 38 43 47 49 41 33 31 27 21 29 29 27 20 23 27 22 22 24 24 25 26 24 23 24 29 32 30 25 29 27 28 26 27 21 19 18 22 21 21 23 26 30 32 35
42 33 45 46 37 37 33 32 29 24 32 34 35 31 25 27 26 22 22 24 27 26 26 26 26 26 23 28 30 25 24 27 27 22 27 29 21 23 25 27 27 29 28 32 36
38 38 47 42 30 33 32 31 31 28 27 33 33 36 37 33 27 26 24 33 30 28 26 29 26 24 22 25 28 25 25 25 27 30 26 31 22 24 26 27 27 28 28 29 35
38 32 39 41 34 30 30 29 29 31 29 30 32 35 37 35 34 28 26 32 33 28 39 35 25 24 22 20 20 26 24 25 25 28 26 27 22 22 24 24 26 29 30 29 30
39 35 38 31 33 29 30 24 27 29 29 32 34 34 35 33 33 31 29 35 33 38 31 33 24 24 20 18 17 18 18 22 24 25 25 25 23 24 23 26 25 29 29 31 32
36 35 38 31 34 28 27 27 27 28 27 29 32 34 34 33 31 32 35 35 31 36 32 33 26 26 25 21 22 21 20 19 24 23 24 25 24 24 26 29 29 29 32 36 40
42 35 35 33 33 29 27 27 26 28 31 26 29 32 35 36 38 38 39 38 36 36 35 34 33 30 24 29 27 29 28 23 24 26 28 25 26 24 26 28 30 32 36 38 41

GFSSW_sfc_dewp_039.txt.gz
Dewpoint
58 59 60 60 60 59 58 58 57 57 57 57 57 56 56 56 54 44 40 42 42 55 53 30 30 28 26 23 22 18 15 11 15 16 24 31 35 44 47 46 50 54 57 58 60
56 57 58 59 60 59 58 58 57 57 57 57 56 56 56 56 48 36 48 55 54 56 35 25 24 26 21 22 21 18 16 12 17 17 20 24 34 40 42 45 50 54 57 58 59
54 54 55 57 58 59 59 58 57 57 57 57 56 56 56 53 41 30 56 57 57 54 31 22 18 21 19 19 19 19 18 16 16 23 23 25 34 40 41 40 48 54 56 57 57
53 53 52 54 57 58 58 58 57 57 57 56 56 56 55 48 21 41 58 57 57 41 25 22 19 20 20 19 19 18 19 19 19 21 27 32 37 39 44 49 53 55 56 57 56
54 53 53 52 54 57 57 58 58 57 57 56 55 55 50 36 27 49 61 56 41 36 25 20 21 23 20 19 20 21 21 23 26 28 31 37 37 39 46 52 55 56 56 55 55
53 53 54 53 53 55 56 57 57 57 56 56 55 55 44 33 28 43 43 38 33 30 28 28 27 26 26 22 22 24 23 28 29 33 37 37 39 41 47 50 52 54 55 56 54
52 53 53 53 53 54 54 55 56 57 56 56 55 49 41 33 30 39 39 34 31 29 27 28 29 28 27 23 24 23 25 26 29 32 34 38 37 39 46 49 48 46 49 53 55
51 51 52 52 53 53 54 54 55 56 56 55 54 48 38 32 29 35 37 31 30 31 29 29 30 31 29 26 23 21 25 26 28 30 31 40 38 41 44 45 43 43 47 51 52
51 51 51 51 53 53 53 55 55 56 53 53 50 47 34 41 28 29 38 30 29 30 31 28 30 29 27 22 19 21 18 25 27 29 31 36 40 41 43 42 41 43 43 44 49
51 51 50 51 52 52 52 54 55 52 51 49 46 42 38 23 21 21 38 35 31 31 28 29 28 26 22 18 14 17 16 20 35 29 30 28 29 40 42 42 42 39 38 41 46
51 51 50 50 51 51 51 47 45 45 45 35 34 27 20 22 32 28 29 36 31 28 25 29 26 22 20 19 16 20 16 17 26 28 27 28 25 35 42 41 43 43 40 41 43
52 51 50 50 51 51 52 42 39 45 35 33 32 33 32 27 29 25 32 31 31 27 27 27 27 23 20 17 17 21 18 17 17 20 23 22 20 24 39 41 41 42 42 40 41
51 51 50 49 51 48 48 43 46 47 37 29 30 30 27 30 26 24 33 30 27 27 26 26 24 22 22 17 19 19 19 18 18 22 22 21 18 19 30 39 42 42 42 42 41
50 50 50 50 47 41 44 44 46 51 33 21 30 32 31 28 28 23 31 30 28 27 25 25 24 23 19 18 19 19 19 21 21 21 18 21 17 26 23 31 39 42 42 41 42
51 49 50 49 45 45 47 50 51 52 18 17 24 33 29 28 17 25 28 28 26 25 26 24 24 25 22 21 21 22 25 23 23 21 21 18 14 21 18 22 28 36 41 41 41
50 50 50 47 45 46 49 54 52 34 17 15 29 31 32 29 19 21 24 29 27 25 25 24 23 23 22 22 23 23 26 25 24 23 22 19 17 18 19 18 19 27 35 39 40
48 50 49 46 41 45 50 51 32 20 13 13 21 29 30 28 24 21 24 27 24 24 24 23 24 22 25 25 26 25 25 22 20 22 22 19 18 18 30 19 20 22 28 37 39
48 49 48 47 44 49 48 43 20 10 13 21 19 28 28 25 26 23 23 22 24 22 22 21 21 22 25 23 23 25 24 24 29 23 18 23 16 15 20 21 22 22 26 28 37
48 44 43 47 49 46 42 32 24 11 9 14 22 26 27 23 23 22 22 20 21 22 21 22 20 20 22 23 23 24 23 24 26 26 23 18 18 18 16 17 21 23 31 33 31
44 42 41 46 49 46 38 32 27 16 7 12 16 22 23 25 21 21 22 20 19 21 24 23 21 20 23 24 25 25 28 25 25 22 22 17 17 17 19 18 19 19 23 31 34
45 40 39 46 50 41 31 31 30 21 13 11 18 17 19 23 23 20 22 20 20 21 21 22 24 22 27 27 22 26 27 26 25 25 25 23 18 22 21 21 19 21 23 26 29
43 36 44 46 37 38 32 30 28 26 24 19 26 24 21 21 25 22 21 22 23 23 23 26 25 25 26 23 23 24 25 26 29 24 27 28 23 23 23 23 24 24 25 26 30
39 39 47 44 31 34 32 30 26 22 23 22 24 29 31 25 25 27 23 23 28 25 27 29 25 26 21 24 26 26 27 25 27 28 27 33 24 21 23 23 22 23 25 27 29
39 33 40 42 37 32 29 28 25 22 21 24 22 27 26 30 30 27 28 26 30 28 37 35 25 24 24 21 23 23 22 21 23 30 27 25 21 23 22 23 23 24 27 28 28
40 34 37 32 34 33 28 25 22 20 23 23 24 23 25 25 25 28 30 30 32 35 32 32 29 24 21 19 18 19 20 20 20 22 25 24 21 24 24 23 23 28 27 26 27
35 30 37 32 35 31 30 25 21 18 19 25 24 24 29 29 29 37 33 33 30 30 31 32 28 28 23 19 17 17 16 15 16 17 19 18 19 22 22 21 22 23 26 29 32
41 34 32 32 33 31 30 27 23 23 23 22 23 24 28 32 42 40 39 38 38 37 33 31 33 29 26 22 22 25 21 19 19 17 20 22 23 23 23 22 25 26 27 32 37

GFSSW_sfc_dewp_042.txt.gz
Dewpoint
57 57 58 58 59 60 60 59 58 58 58 57 57 57 57 56 55 42 42 44 46 57 52 34 32 29 27 24 20 18 15 14 14 15 23 30 37 46 45 41 54 57 57 58 60
54 54 54 55 57 58 59 59 58 58 58 57 57 57 56 55 48 39 49 57 55 55 31 28 22 24 22 21 19 16 17 16 14 15 19 19 29 45 44 38 51 50 57 59 59
52 53 52 52 54 56 58 58 58 58 58 57 57 57 56 54 42 37 57 57 56 52 33 31 20 19 21 19 17 17 16 18 14 22 20 21 38 46 40 46 54 47 55 56 58
53 52 52 52 52 54 56 56 58 58 58 58 57 57 56 50 28 43 58 57 57 39 33 21 19 18 18 18 18 15 15 18 17 19 22 21 37 44 48 52 54 55 55 56 56
52 52 52 52 53 54 54 55 56 57 58 58 57 57 50 38 34 50 59 56 39 33 32 19 18 18 20 19 17 17 17 19 21 26 25 30 33 37 48 52 54 55 56 55 54
50 51 52 53 53 54 53 54 54 55 57 57 57 56 47 36 32 44 45 40 32 29 26 21 22 25 25 24 19 22 22 20 24 24 28 33 45 44 51 51 53 53 55 56 55
52 51 51 52 53 53 53 54 54 55 56 57 56 51 46 40 31 29 39 35 30 26 26 26 26 27 26 26 22 20 19 20 26 27 31 38 36 43 48 48 46 48 51 53 54
52 52 51 50 51 52 53 53 53 55 56 57 55 49 42 36 34 32 33 35 28 27 28 28 28 28 28 28 24 21 19 19 29 31 36 37 35 38 40 44 43 42 46 51 53
53 51 51 50 49 51 52 52 51 53 56 55 51 47 35 40 34 30 31 33 27 27 30 28 28 27 26 23 20 19 17 19 24 27 34 36 39 41 43 42 43 44 47 51 53
52 53 51 51 50 50 51 50 50 53 53 50 47 40 38 28 28 28 28 33 27 27 28 28 25 23 23 22 18 18 20 21 26 30 27 39 41 44 49 38 40 41 39 46 48
51 51 52 51 50 51 48 44 40 49 49 40 36 30 33 29 26 21 23 34 31 27 26 26 22 19 21 22 17 15 19 22 28 32 30 32 40 45 46 40 40 37 36 41 45
51 52 52 51 50 51 47 42 31 43 38 32 26 28 31 30 26 26 21 33 31 26 26 24 24 25 23 22 18 16 15 18 17 24 22 20 20 37 38 40 41 41 40 41 45
50 51 51 51 50 47 43 41 41 43 38 26 21 20 24 27 27 25 23 28 28 26 24 23 23 26 24 20 17 16 16 17 22 24 22 20 18 20 38 37 40 42 42 41 42
50 50 49 50 45 42 37 40 42 46 32 12 10 25 23 26 24 23 24 26 26 23 23 24 24 23 23 21 17 15 16 19 22 21 17 22 19 21 32 33 38 39 41 40 40
50 51 49 50 44 42 48 50 49 51 11 6 16 29 28 26 22 23 24 28 26 22 24 24 24 22 24 17 15 17 26 26 23 19 23 19 17 14 23 25 35 40 41 41 42
50 51 49 46 46 43 46 49 51 31 14 10 27 27 27 28 25 22 23 25 28 24 24 23 24 23 24 20 19 21 26 27 24 22 23 21 17 22 26 29 27 33 40 41 41
49 50 49 40 43 44 50 49 32 18 5 2 19 28 26 27 25 25 22 22 24 24 25 22 22 22 22 20 22 22 23 21 21 23 24 22 17 20 30 30 29 27 29 40 42
49 49 47 39 42 49 49 43 17 4 12 14 14 17 26 26 27 25 22 21 26 23 21 21 21 21 23 22 22 24 22 25 28 30 26 28 19 16 24 22 22 22 27 33 40
49 48 45 45 46 48 42 32 21 12 6 11 13 17 22 26 24 24 22 22 22 24 22 23 21 20 22 22 24 23 23 24 34 36 32 33 22 16 20 18 19 21 27 32 33
47 44 43 46 48 46 38 31 25 16 11 9 11 12 20 25 23 23 22 22 22 24 26 25 24 23 22 23 24 22 25 27 28 27 27 19 17 18 22 18 21 21 26 34 37
45 40 42 45 49 41 30 31 28 25 17 15 16 13 12 20 26 23 22 21 23 22 23 24 27 27 24 22 20 22 23 28 29 27 28 26 22 32 32 34 24 24 27 31 35
43 34 44 46 37 37 32 29 30 26 23 21 21 19 14 19 21 29 24 23 24 24 23 25 29 27 25 23 24 23 24 26 29 26 32 37 27 26 30 30 28 30 28 30 34
39 39 46 43 30 31 33 31 26 25 24 21 20 21 22 23 26 25 26 32 28 26 25 27 26 27 24 24 25 23 22 24 27 30 30 33 28 24 24 23 25 26 26 29 31
39 33 40 41 34 31 31 31 26 26 25 22 19 21 23 25 31 33 30 31 34 27 39 38 28 26 26 24 26 24 21 27 30 31 31 32 28 29 26 29 31 28 26 27 32
39 35 36 33 34 32 31 26 25 24 25 25 23 21 22 25 28 30 34 35 34 36 32 35 29 27 26 22 21 24 22 20 24 28 26 27 23 22 24 32 35 32 30 29 29
34 35 35 30 34 33 32 28 24 22 23 23 25 21 22 22 28 30 37 33 36 34 32 36 30 31 29 25 21 21 20 21 20 20 19 20 22 24 24 32 32 31 24 28 28
42 40 36 33 33 32 31 31 28 26 26 22 24 23 23 21 26 42 43 43 44 43 33 32 33 31 29 28 26 25 24 20 22 20 19 19 23 23 22 25 30 28 25 26 30

GFSSW_sfc_dewp_045.txt.gz
Dewpoint
55 55 55 55 55 56 57 58 58 58 59 58 58 58 58 57 56 48 44 47 49 58 53 39 34 33 32 28 26 24 15 15 15 16 27 37 44 46 45 51 54 56 56 58 61
53 53 53 53 54 55 55 57 57 58 58 58 58 58 57 57 51 45 48 58 57 57 33 31 28 28 26 24 23 18 16 16 17 21 21 39 42 43 45 44 51 55 58 60 59
51 52 52 52 54 54 54 54 55 57 56 58 58 58 57 55 48 39 57 58 57 55 34 32 33 23 20 22 21 19 16 17 17 23 21 21 39 46 43 44 50 49 56 57 57
52 49 50 52 53 54 54 53 54 55 56 57 58 58 57 52 32 42 58 58 57 39 35 32 26 19 18 16 18 17 16 16 19 25 25 33 43 47 50 53 55 55 56 57 55
49 51 51 51 52 53 53 53 54 54 55 56 57 58 53 44 41 49 59 57 44 36 33 30 23 20 18 19 23 18 17 20 20 24 27 43 47 48 52 54 54 56 56 56 54
52 50 49 52 52 51 53 53 53 53 54 55 57 57 51 41 39 50 49 44 36 33 29 31 23 19 26 26 24 23 21 21 21 22 30 39 42 43 50 53 54 54 55 54 53
53 52 51 49 51 51 51 52 52 52 53 55 56 54 49 44 42 42 40 41 35 32 28 28 26 30 28 28 30 27 21 20 19 29 35 39 36 39 44 45 50 53 52 53 53
53 53 52 51 50 50 50 51 51 52 52 53 56 51 45 42 42 41 39 37 36 31 29 28 31 31 32 29 27 24 23 19 19 30 37 34 34 40 41 44 46 48 51 53 53
52 52 52 52 51 51 50 51 51 51 52 53 51 49 44 43 37 38 34 31 36 32 29 27 33 29 28 26 24 24 19 18 21 31 36 36 37 39 42 45 42 45 49 53 52
52 52 51 51 51 51 50 50 49 51 52 52 50 45 44 31 33 33 33 31 35 29 28 30 28 26 24 24 21 22 20 24 26 31 36 37 36 40 42 44 41 45 50 52 51
52 52 52 51 51 51 49 43 42 47 49 46 42 36 35 35 36 29 32 28 33 28 26 29 26 23 22 23 23 22 18 17 27 31 32 37 38 37 39 46 42 46 44 51 51
51 51 52 52 52 51 48 42 40 40 39 42 45 44 42 39 33 30 24 26 33 29 27 27 24 24 23 22 23 24 20 17 23 29 31 29 37 38 42 45 40 38 45 45 49
51 50 51 51 51 48 42 41 41 39 38 34 36 30 28 24 21 25 25 23 33 30 28 25 26 25 24 25 23 21 18 17 20 26 25 23 24 38 42 45 41 37 39 42 46
50 50 50 49 46 43 40 47 48 45 38 27 17 23 23 22 25 24 28 22 31 29 29 26 26 24 23 24 23 19 19 22 25 24 21 22 21 37 41 42 41 39 38 39 45
50 50 50 49 46 43 43 44 45 49 8 12 14 17 21 20 26 26 27 25 24 27 26 24 25 25 24 24 24 23 26 26 29 26 22 21 23 25 37 38 40 41 41 41 43
50 50 50 46 46 45 44 45 49 34 25 13 28 28 28 21 24 25 24 24 27 26 26 24 25 24 24 25 25 21 30 30 30 27 22 22 22 22 31 30 37 39 41 41 43
50 50 48 43 40 44 47 46 34 26 6 -1 26 29 28 28 26 24 24 22 21 24 25 25 24 24 25 24 26 22 24 24 22 23 22 32 30 25 27 29 36 35 40 41 41
50 49 48 44 42 44 47 40 27 11 15 14 12 19 27 26 27 28 26 24 22 25 25 24 22 23 24 23 22 23 23 26 21 26 29 34 29 24 27 28 28 30 40 41 40
49 48 46 45 44 46 42 31 23 18 11 3 3 8 26 28 28 27 26 25 24 22 23 24 22 24 22 24 23 26 24 28 35 36 31 33 33 32 27 25 19 20 24 37 40
47 45 42 45 45 44 37 30 28 26 18 13 12 15 16 24 27 27 26 25 25 23 25 28 25 25 24 23 24 23 27 27 34 28 28 30 31 28 26 27 25 20 21 26 33
46 40 42 45 47 39 30 30 28 28 28 24 14 15 14 17 17 22 26 25 25 24 25 24 25 27 30 27 23 25 23 27 32 32 27 23 25 31 30 33 29 25 28 30 31
44 34 43 43 36 35 30 30 32 24 28 28 26 21 19 21 19 19 31 31 29 27 24 25 28 24 24 28 28 25 24 27 30 28 31 29 27 31 30 30 26 26 25 28 31
39 39 45 41 30 30 30 30 29 29 27 26 26 24 24 21 21 28 33 37 38 33 25 26 24 22 24 24 28 24 24 25 28 33 30 27 28 31 30 30 29 25 25 29 27
38 32 39 41 33 30 29 28 29 30 30 29 25 25 22 22 22 30 34 37 39 40 42 33 26 22 21 24 28 27 26 25 24 28 27 31 30 31 30 31 27 33 35 34 29
38 34 36 32 33 32 30 26 28 28 29 27 24 25 24 22 23 25 34 36 38 39 40 37 26 26 22 26 27 27 26 24 22 25 29 31 30 28 29 28 30 35 37 37 30
33 36 35 31 34 33 32 28 26 27 27 25 24 25 24 22 22 23 35 38 39 42 41 40 30 30 28 27 24 24 25 24 25 28 31 29 28 30 30 32 33 33 33 34 28
42 40 35 33 34 33 30 29 28 28 28 27 26 25 25 26 26 36 42 44 44 41 40 39 36 31 25 29 28 26 27 24 26 26 26 26 26 24 25 30 31 31 29 28 29

GFSSW_sfc_dewp_048.txt.gz
Dewpoint
54 53 53 54 54 54 54 55 55 56 56 56 57 59 58 58 56 49 42 43 50 58 55 38 34 32 31 30 28 22 19 16 15 15 21 40 41 44 48 51 52 55 56 59 61
50 50 51 52 54 54 55 54 54 54 56 56 57 58 58 57 52 46 49 58 58 59 33 26 31 32 28 26 24 21 17 17 17 20 33 41 39 43 41 45 49 54 58 60 59
50 50 50 50 52 53 54 54 54 53 54 55 56 57 57 56 46 38 57 59 60 57 32 31 34 33 22 23 22 20 18 18 17 21 33 41 43 46 43 48 50 49 55 57 57
53 51 51 51 52 52 53 53 53 52 53 53 55 57 57 54 20 43 57 57 58 41 33 34 32 21 19 17 17 16 17 18 16 25 36 41 46 49 48 50 53 53 56 57 56
52 53 52 51 52 52 52 52 52 53 52 52 53 56 54 46 43 46 58 56 45 36 32 30 30 22 19 18 22 22 20 21 21 35 46 46 48 49 52 54 55 55 56 55 54
53 53 53 52 51 52 52 51 51 52 52 52 52 56 51 43 35 41 49 45 37 33 30 32 30 23 20 26 27 28 27 24 20 25 42 43 45 43 51 54 54 54 53 53 53
52 53 53 53 52 52 52 51 51 51 52 51 52 52 47 43 42 40 40 40 37 34 28 29 32 27 28 26 32 28 23 23 22 21 37 40 37 39 52 53 53 54 53 53 53
52 52 52 52 52 52 52 51 51 51 51 52 52 51 43 46 45 44 44 42 40 36 33 31 30 29 28 30 27 24 25 20 21 24 38 34 32 39 50 48 52 51 52 52 52
52 52 52 52 51 51 51 51 51 51 51 53 51 48 43 48 42 42 39 35 35 37 34 30 29 27 29 25 23 26 20 21 21 26 35 33 33 38 43 48 49 50 51 51 51
52 51 52 52 51 51 51 51 48 50 49 52 51 46 44 31 34 33 37 34 31 37 34 27 28 26 25 23 20 21 21 26 21 29 36 35 33 39 42 45 45 46 51 52 51
51 52 51 52 51 51 49 43 37 43 47 46 44 42 33 38 41 33 35 33 30 31 26 29 26 24 24 25 24 24 23 21 20 28 35 35 34 35 43 45 43 45 49 51 51
51 51 51 51 51 51 48 41 39 38 35 36 41 44 43 42 41 39 30 26 29 29 26 26 25 26 27 26 24 23 22 22 20 28 31 32 35 38 39 43 42 44 49 51 50
51 51 51 50 50 48 44 41 40 43 38 35 34 36 39 40 41 38 26 25 31 31 28 23 26 27 26 24 23 23 22 21 17 25 27 30 29 35 39 42 43 43 46 50 51
51 51 50 49 45 44 42 44 43 43 35 28 29 28 30 27 26 27 22 23 27 30 31 27 25 25 26 24 23 21 25 21 24 24 21 22 19 34 37 39 43 41 43 46 51
51 51 50 49 42 41 43 42 45 44 -6 2 20 27 29 21 22 23 23 27 23 30 30 29 27 26 25 24 25 24 28 24 24 23 23 23 21 25 35 40 42 39 39 43 50
51 50 50 47 46 44 43 44 46 34 18 22 21 20 22 21 24 26 23 28 26 26 28 28 27 25 25 26 26 26 28 28 28 27 23 26 24 24 38 38 41 42 37 38 44
50 50 49 45 39 42 43 45 32 22 14 5 24 29 25 18 20 25 24 24 22 23 22 23 25 26 26 24 26 24 26 23 22 23 23 32 30 29 28 38 39 41 41 39 40
49 50 49 46 43 43 44 40 26 19 15 17 15 13 28 26 24 25 25 22 23 25 23 22 24 25 27 25 24 24 24 24 20 24 24 32 26 27 31 34 31 40 41 42 41
49 48 46 45 44 44 39 30 27 23 17 14 9 6 8 28 27 28 28 25 25 22 24 25 24 26 25 25 24 24 23 26 32 35 30 29 32 30 29 27 26 33 37 41 42
47 45 43 45 44 43 35 29 28 26 25 23 15 17 16 16 21 26 27 28 27 26 25 27 24 26 25 26 25 24 28 27 32 26 23 28 31 29 30 25 26 24 34 40 41
46 40 43 46 46 38 28 26 28 29 29 27 25 19 17 17 20 20 21 26 28 27 26 23 25 25 28 26 22 25 24 29 32 31 26 25 25 29 30 30 29 26 25 29 39
44 35 43 44 35 35 28 28 32 29 30 28 28 28 25 23 22 21 23 27 39 38 25 26 26 22 22 26 27 25 25 27 29 28 30 28 26 30 31 31 30 28 26 30 35
40 38 44 40 29 30 30 28 30 29 28 28 28 26 26 25 23 26 28 32 39 38 38 37 26 23 23 23 25 25 26 26 30 32 29 27 28 32 32 31 28 29 28 28 30
36 32 39 39 34 29 27 26 25 30 29 29 28 29 26 26 26 24 25 31 39 39 44 41 32 24 21 23 26 26 27 26 26 26 25 28 26 30 30 29 30 30 33 32 29
36 34 37 32 32 32 29 28 27 26 29 30 28 25 26 25 25 21 26 34 38 43 42 43 35 31 26 23 25 24 22 26 26 26 25 25 30 30 31 30 31 31 34 34 32
33 35 36 33 33 32 30 28 26 27 27 26 26 27 24 24 25 25 25 26 36 42 40 43 37 36 28 27 24 23 28 25 26 27 25 25 28 32 32 30 31 33 33 33 33
43 40 35 33 32 33 30 28 27 30 29 28 28 27 26 26 29 32 32 34 40 39 39 39 38 35 27 28 27 24 26 26 26 26 29 29 31 31 30 29 31 32 33 32 32

GFSSW_sfc_dewp_051.txt.gz
Dewpoint
50 50 51 52 53 53 53 53 54 53 53 53 55 56 57 57 55 50 42 43 51 58 55 37 33 31 30 29 28 23 21 19 17 16 18 42 43 44 48 50 53 56 56 58 61
51 49 50 51 52 52 53 53 53 53 53 53 54 55 56 57 53 48 50 57 58 58 33 29 31 33 29 29 25 21 19 19 19 17 21 38 38 42 42 44 52 54 57 59 58
51 51 51 51 50 52 52 53 53 52 52 53 53 54 56 56 44 31 56 58 60 57 30 29 32 31 26 24 22 21 19 20 18 20 29 40 43 46 42 44 48 49 54 56 56
50 51 51 51 53 52 52 52 52 51 51 51 51 53 56 53 9 41 58 59 60 45 31 32 31 24 18 16 17 16 18 18 19 27 37 42 47 48 46 48 53 51 56 55 54
51 52 51 51 51 53 52 52 52 52 51 51 51 52 52 45 43 44 57 56 46 33 28 29 27 20 17 18 21 18 22 25 25 29 39 45 48 47 51 54 54 55 56 55 54
52 52 52 52 51 53 53 52 52 52 52 51 51 52 49 40 35 41 50 46 35 33 31 29 25 25 21 20 26 27 27 26 24 40 45 45 46 45 49 54 54 54 54 54 53
52 52 52 52 53 52 51 51 51 52 52 51 51 49 45 40 44 42 40 40 37 33 29 30 30 29 28 26 29 28 23 23 22 28 39 40 37 43 48 54 53 52 52 52 53
50 52 52 52 52 52 51 51 51 52 52 52 51 49 44 44 46 45 45 42 41 39 34 32 30 30 28 29 26 24 24 20 22 28 34 35 31 36 52 52 51 51 52 51 51
52 52 52 52 52 51 51 51 51 52 52 51 49 48 42 48 44 45 42 36 35 38 35 32 30 28 28 25 22 24 17 19 20 26 36 34 33 35 52 51 51 49 50 50 50
51 51 51 51 51 51 50 51 50 50 49 49 51 43 42 35 35 37 42 37 32 35 36 32 28 25 25 23 20 19 21 25 21 23 35 34 33 39 47 48 51 48 48 50 50
52 51 51 51 51 51 48 44 34 40 40 43 43 43 39 38 42 38 36 35 31 33 30 27 24 24 24 24 24 24 23 22 22 22 29 29 33 34 41 44 46 45 48 49 50
51 51 51 51 51 51 48 42 39 40 38 40 38 38 43 43 41 37 37 30 30 27 29 26 24 25 26 26 25 24 22 21 22 23 31 30 32 35 42 42 44 43 47 49 50
51 51 51 51 51 46 44 42 42 42 40 39 37 33 27 41 40 37 38 27 27 28 27 27 25 27 26 26 25 24 22 22 21 22 30 30 25 30 38 41 43 44 46 49 50
51 51 50 50 43 43 42 43 40 44 33 26 33 28 30 35 35 34 35 25 26 25 30 27 27 25 26 24 25 22 24 24 24 23 20 24 20 22 33 39 42 42 45 49 51
50 51 51 50 41 41 39 41 42 43 1 4 23 28 31 25 21 26 27 25 22 30 31 30 28 25 24 24 26 24 28 26 26 24 23 23 20 21 35 37 39 42 43 46 51
50 50 50 48 46 45 44 42 45 34 18 19 21 26 27 25 21 24 23 25 25 26 29 29 29 27 26 27 27 27 27 27 29 26 23 23 22 24 29 33 37 40 42 44 49
50 50 49 45 39 42 42 42 36 25 18 6 17 23 23 22 20 24 22 22 21 23 23 23 26 27 28 26 28 26 25 22 20 22 23 27 30 29 28 33 36 40 41 42 45
49 50 49 46 45 43 41 37 28 22 19 16 13 10 26 19 20 24 24 18 22 25 23 20 21 23 27 26 25 25 25 24 19 22 21 31 26 26 30 31 35 39 42 39 41
49 48 47 45 44 43 36 28 28 26 23 22 16 14 12 21 26 25 24 24 19 23 23 23 21 25 25 26 26 25 23 25 28 32 29 27 29 29 30 29 31 31 41 41 38
46 46 44 45 44 42 33 26 29 29 28 28 18 17 16 16 21 21 28 29 26 24 25 26 24 27 26 26 26 24 28 26 29 24 24 25 29 25 28 28 25 23 37 41 41
45 40 44 45 45 38 27 25 26 28 28 28 28 24 24 20 20 19 19 29 30 30 25 23 25 23 26 26 23 24 24 29 29 28 22 22 23 32 32 31 28 26 26 35 42
43 34 44 44 35 34 28 26 29 26 30 30 29 28 26 24 23 21 22 27 37 37 31 28 27 23 21 24 27 24 24 28 25 26 29 28 24 29 30 31 30 28 28 27 36
38 37 45 41 29 30 30 28 27 28 28 29 28 29 27 24 19 25 26 32 33 38 36 37 30 22 22 23 25 22 24 27 31 31 27 26 26 31 32 31 31 29 29 27 31
35 31 38 40 34 29 30 29 27 29 29 30 29 29 28 26 27 25 25 28 28 41 44 40 36 30 24 24 25 26 24 26 26 26 25 27 26 27 29 30 30 30 29 28 29
36 32 36 31 32 31 29 28 27 25 27 30 26 27 27 24 24 24 26 29 33 42 43 41 36 36 36 35 32 24 24 26 24 26 24 25 27 27 29 30 30 30 31 32 33
32 35 38 34 34 32 31 28 25 26 26 27 28 29 28 24 24 23 25 25 28 36 38 42 35 37 33 35 30 26 24 23 23 28 26 25 26 30 31 31 31 31 31 32 33
41 40 38 36 33 31 29 29 28 29 30 27 29 28 27 27 28 28 30 31 30 30 35 38 35 32 30 34 34 26 26 24 25 28 28 27 28 30 31 32 32 31 31 31 32

GFSSW_sfc_dewp_054.txt.gz
Dewpoint
53 52 51 50 51 52 52 52 53 51 51 51 52 52 54 55 54 51 43 40 49 56 52 38 32 30 29 27 27 24 20 19 19 16 16 41 41 44 47 49 52 55 54 58 61
52 52 51 52 53 52 53 53 52 52 51 52 52 52 54 54 51 49 49 57 58 59 35 28 31 32 30 30 26 23 20 19 21 18 18 34 41 40 41 43 50 52 56 58 59
50 51 51 51 52 53 53 53 52 52 52 52 52 53 53 53 46 25 58 57 59 56 30 26 32 29 26 25 23 21 19 20 20 20 19 26 40 43 42 42 46 49 52 56 56
50 50 50 51 51 52 53 53 53 52 52 52 51 52 53 52 8 39 59 60 61 47 29 29 30 25 19 18 20 18 19 19 18 21 36 38 45 45 44 47 52 50 54 54 54
51 51 50 49 50 51 52 52 52 51 51 51 51 51 49 44 42 42 57 59 49 33 28 28 26 21 16 17 18 17 19 22 23 27 36 45 45 46 48 52 53 54 55 54 54
51 52 52 51 50 51 52 51 51 51 51 51 51 51 47 36 33 43 42 46 36 31 30 27 25 24 20 18 22 25 25 27 25 31 38 41 45 47 45 54 53 53 52 53 52
51 51 52 51 52 52 52 51 50 50 51 51 51 48 43 37 40 41 42 39 37 32 28 30 28 27 27 27 28 28 23 23 22 25 39 42 37 44 46 53 52 52 53 52 53
51 52 52 52 52 52 51 51 50 50 51 51 51 47 40 44 45 45 44 40 40 38 35 34 31 27 27 28 26 24 23 19 21 34 34 35 28 29 49 52 51 50 51 51 51
52 52 52 51 51 51 51 51 50 50 52 52 47 44 39 46 44 45 43 33 34 38 38 33 31 28 28 25 23 23 18 18 19 24 35 35 31 35 50 51 49 50 51 50 50
52 52 52 52 51 51 51 50 48 50 48 48 48 36 35 19 36 38 44 39 32 36 36 34 30 26 25 23 20 20 20 24 20 23 34 36 34 36 49 50 50 49 48 49 49
51 51 52 52 51 51 48 43 38 37 40 39 40 38 35 42 42 39 39 37 33 33 30 31 27 25 24 25 23 20 21 21 21 22 22 22 24 25 40 46 47 48 47 47 48
51 51 51 51 51 51 45 41 39 40 37 38 39 39 39 42 39 33 39 32 30 27 30 26 25 26 26 26 24 23 22 21 21 22 23 25 28 32 37 43 45 47 46 47 48
51 51 51 51 51 44 43 42 41 39 39 36 37 36 31 34 33 29 37 30 28 27 29 26 26 26 25 26 24 24 22 22 20 23 25 29 27 26 35 41 43 45 45 46 48
51 51 51 50 43 42 38 42 41 42 33 27 36 34 28 37 34 30 33 27 29 25 28 28 29 26 26 24 24 22 25 24 23 23 21 27 24 22 25 35 41 43 44 45 49
50 50 51 50 43 41 39 43 41 44 8 8 27 29 34 22 20 27 33 28 25 28 30 28 28 27 25 25 25 24 27 25 25 24 23 22 20 21 34 33 36 40 43 44 47
50 50 50 47 46 44 44 42 44 34 21 18 23 27 30 29 24 25 28 26 26 27 30 28 30 27 27 27 26 27 27 27 27 25 22 22 21 21 22 29 30 36 41 43 46
50 49 48 46 40 42 42 40 32 25 24 11 15 22 25 25 24 22 22 21 19 20 22 23 27 28 27 25 28 26 24 21 20 23 23 25 24 24 27 28 31 32 38 42 44
49 49 47 48 44 43 40 34 23 26 24 24 20 19 19 22 21 20 19 17 18 24 23 20 19 25 27 26 25 25 25 23 19 21 19 31 27 26 30 31 32 33 38 42 44
48 43 45 45 44 43 36 25 23 26 26 27 22 16 18 18 24 25 20 17 16 25 21 22 21 25 25 27 26 25 24 25 27 30 27 26 27 27 28 29 28 31 40 40 43
41 41 42 46 45 43 34 25 27 32 28 28 22 23 19 20 20 20 27 31 25 21 27 26 23 26 26 26 27 25 28 26 27 23 22 24 27 22 23 24 29 26 35 42 40
40 38 43 46 46 38 28 28 24 23 25 27 28 26 25 23 22 20 20 31 33 34 27 24 25 24 25 25 23 24 24 28 27 27 21 20 22 30 28 30 30 28 25 36 42
40 32 45 45 34 34 29 30 29 24 27 30 30 27 26 24 21 22 24 30 26 38 33 33 26 22 19 23 26 24 25 29 25 23 28 25 22 27 31 30 31 31 29 27 40
37 36 45 43 30 30 33 30 28 27 27 29 29 29 28 24 18 23 26 32 29 37 36 35 32 23 24 24 25 23 23 25 30 29 25 24 23 30 30 31 31 31 29 30 28
36 30 38 40 37 31 31 29 27 28 27 29 29 29 27 25 26 25 25 28 32 38 44 40 35 32 28 31 35 32 29 25 25 24 24 25 25 26 28 29 28 30 31 30 29
36 31 36 30 32 31 31 29 27 25 27 28 27 28 27 24 24 23 25 27 27 34 41 39 30 36 36 36 35 33 31 27 25 25 24 23 26 27 28 29 29 30 31 31 30
32 34 38 36 33 34 33 29 27 28 25 26 27 29 28 26 25 22 24 23 24 31 35 39 32 34 32 34 30 29 31 27 26 25 27 26 25 28 29 30 30 30 31 31 31
40 39 39 35 34 32 31 30 28 28 30 27 28 28 27 27 29 29 29 28 29 30 29 36 33 30 26 31 29 26 28 25 29 28 27 25 27 28 28 30 31 31 31 31 32

GFSSW_sfc_dewp_057.txt.gz
Dewpoint
52 52 52 52 53 54 54 53 53 52 51 51 52 52 53 54 53 50 42 37 49 56 53 39 32 30 28 27 27 25 23 20 20 19 17 34 37 44 47 46 51 54 54 57 59
50 50 50 51 52 53 53 54 54 53 52 52 52 53 53 53 49 46 49 54 57 59 33 30 29 29 26 29 27 25 23 21 21 20 19 24 36 38 41 41 45 51 56 59 58
50 50 50 50 50 52 52 53 53 51 52 52 52 53 53 52 43 26 58 59 58 57 34 28 34 31 27 28 26 24 21 22 21 22 20 20 34 40 40 39 42 47 51 57 57
50 50 50 50 50 50 52 52 52 50 50 50 51 52 52 51 -1 35 59 59 59 52 29 32 32 29 25 24 24 21 22 21 19 20 27 27 39 42 41 40 50 50 52 56 55
50 50 50 50 50 50 52 52 52 51 50 50 50 51 48 40 31 41 52 58 54 39 29 28 29 25 22 19 19 21 19 19 20 23 27 41 41 42 46 48 52 54 55 55 54
51 51 50 50 50 50 51 51 51 51 51 49 50 50 45 32 29 42 41 43 40 32 30 28 25 25 21 19 19 23 20 24 26 25 31 37 41 46 45 51 52 54 54 55 54
51 52 52 51 51 52 51 51 51 51 51 49 50 47 41 34 36 38 41 38 39 33 30 30 28 25 25 25 25 27 25 24 23 23 32 41 36 43 46 52 51 52 53 53 53
50 52 52 52 52 52 52 51 51 51 51 51 51 45 37 40 44 44 43 39 37 38 36 32 30 27 26 28 26 24 24 21 21 32 36 37 26 29 45 51 49 51 52 51 51
51 52 52 52 52 52 52 51 51 50 51 51 48 43 34 42 44 43 42 35 33 37 37 34 32 29 28 25 24 25 17 20 18 27 36 36 30 33 50 49 48 50 51 50 50
50 51 51 51 51 51 51 51 48 49 48 48 45 33 33 17 35 39 44 39 30 35 34 34 31 27 26 23 16 21 20 21 19 29 34 33 31 31 42 49 48 49 50 50 49
50 50 51 51 51 51 49 43 38 37 38 38 37 35 32 41 43 41 41 39 33 32 31 33 30 26 24 26 23 22 20 19 21 22 21 23 23 24 28 46 48 49 50 50 50
49 50 51 51 51 51 45 40 40 38 36 37 37 36 38 40 38 36 38 33 32 23 31 29 29 30 26 26 24 22 22 21 22 22 22 21 23 27 32 37 43 46 49 50 49
49 49 50 50 51 44 42 42 41 41 36 36 36 35 34 35 33 31 36 33 28 27 29 27 27 29 26 25 24 24 23 23 20 22 23 26 25 24 28 38 41 45 47 48 48
49 50 50 50 43 43 38 43 43 42 33 27 34 36 32 34 30 29 26 30 29 25 29 27 28 26 25 24 25 23 25 24 22 20 17 26 20 25 24 27 35 39 44 45 47
49 49 50 49 45 41 41 45 43 44 11 14 27 30 33 24 20 28 29 26 27 27 29 27 29 26 24 23 26 22 27 25 24 23 24 23 21 22 27 26 27 32 40 44 46
48 48 49 46 47 44 44 43 44 32 17 21 22 27 28 28 25 29 29 29 28 29 31 25 31 28 25 27 26 28 25 27 28 26 23 23 22 21 21 23 25 29 34 42 45
47 48 47 47 42 43 44 40 30 21 24 20 20 20 18 18 26 24 26 26 21 23 27 27 27 27 28 26 28 26 26 21 21 24 21 25 22 24 25 27 28 30 31 39 45
47 48 46 47 46 46 42 34 21 21 26 26 24 23 16 22 23 22 24 23 22 23 21 22 21 27 29 28 26 26 24 23 21 21 20 30 24 22 30 31 33 32 34 37 43
47 44 44 45 48 46 37 25 22 21 26 26 25 20 19 20 21 24 21 20 18 22 21 22 20 24 27 29 27 26 25 27 26 31 27 26 27 26 26 27 29 30 30 35 41
42 41 40 46 47 44 34 25 24 28 26 27 23 25 21 22 19 21 26 22 28 23 29 27 22 25 25 27 27 27 28 25 27 19 20 23 25 22 24 24 27 31 29 35 41
41 36 40 46 47 39 28 29 26 25 24 25 26 25 25 22 20 17 26 24 26 31 26 27 26 24 28 24 23 25 25 28 27 27 22 20 22 32 30 29 30 32 32 31 34
40 31 44 47 35 35 31 32 30 25 25 27 30 27 25 24 20 16 21 28 30 34 33 34 27 24 21 24 25 25 26 27 26 23 29 28 22 28 32 33 34 33 34 33 31
36 35 44 44 28 28 35 33 28 26 27 26 29 29 29 24 17 21 25 29 30 28 39 38 32 25 23 24 29 26 25 27 31 30 27 28 24 28 32 32 32 33 34 34 34
36 30 35 39 36 30 31 31 27 29 26 28 29 29 27 25 26 24 24 26 31 28 43 40 35 30 25 29 35 33 33 32 27 26 24 26 25 26 28 30 32 33 34 34 35
36 31 34 29 31 32 32 30 27 26 27 27 25 27 26 24 24 22 24 26 25 34 38 39 31 32 35 35 35 31 30 30 28 26 25 25 26 26 29 29 30 32 32 32 33
32 34 36 33 35 33 34 31 27 27 26 25 26 28 28 25 24 21 23 23 22 29 30 31 34 34 30 31 32 28 28 24 27 26 26 26 26 29 32 31 30 32 32 31 32
38 39 37 31 30 32 29 29 29 29 29 26 27 27 27 27 30 30 30 30 29 27 27 29 34 30 23 31 28 24 29 26 29 29 29 25 23 25 36 36 34 32 32 33 34

GFSSW_sfc_dewp_063.txt.gz
Dewpoint
50 50 51 51 51 51 52 52 52 51 51 51 51 53 53 53 52 40 24 34 39 55 54 38 41 36 29 24 23 21 19 15 12 12 14 19 18 21 26 26 27 37 39 47 54
50 50 50 50 50 51 51 51 52 51 51 51 52 52 53 53 44 32 47 59 58 55 37 32 35 32 25 22 20 20 16 14 13 12 14 17 18 19 22 22 26 33 41 49 52
49 50 50 50 50 50 52 52 52 51 51 52 52 52 52 50 35 22 54 60 61 56 35 28 32 29 24 20 17 19 16 14 14 14 13 16 17 19 22 23 25 33 31 40 50
50 50 50 50 50 50 52 52 52 51 51 51 51 51 52 44 21 20 53 59 57 46 37 34 29 28 25 19 15 16 17 15 14 14 14 17 18 20 24 27 28 37 40 41 50
50 50 51 51 51 51 52 52 53 52 52 51 51 51 44 33 32 27 50 48 47 41 36 30 27 26 24 17 14 17 16 15 14 14 15 18 19 22 23 25 30 39 45 46 50
51 51 51 51 51 51 52 52 52 52 52 51 51 50 41 28 31 28 24 18 17 36 36 30 27 26 22 19 17 17 16 17 13 16 17 17 19 20 24 27 30 41 44 47 49
50 50 51 51 50 51 52 52 52 52 52 51 51 46 37 26 25 23 26 21 16 11 26 34 30 26 26 23 20 17 15 16 15 15 14 19 18 21 20 26 33 41 43 46 51
49 50 51 51 51 52 52 52 51 51 52 51 51 45 34 25 27 30 29 27 24 19 17 32 33 33 28 23 20 17 18 15 16 16 17 18 18 18 19 31 33 37 41 45 50
49 50 51 51 51 51 51 51 51 52 50 51 48 43 29 36 27 26 26 25 29 25 23 21 30 30 30 25 21 22 15 16 16 16 16 19 20 18 28 30 31 33 40 43 46
48 48 50 50 51 51 51 50 48 49 48 43 40 38 34 21 19 32 38 34 34 36 25 21 28 28 25 23 17 17 17 17 15 16 17 18 23 21 27 30 32 32 34 41 44
47 48 49 50 50 50 48 39 32 37 34 27 26 32 25 30 31 31 36 39 33 31 31 18 22 25 24 25 23 19 17 16 17 15 17 18 17 20 20 23 28 32 34 39 44
46 47 48 48 50 50 47 36 37 39 36 32 31 31 31 29 26 29 36 32 34 33 31 25 20 21 23 23 22 22 18 17 17 14 18 16 12 16 18 18 23 26 32 37 41
45 47 48 49 50 47 39 39 39 41 33 28 28 29 30 31 26 26 29 31 33 35 34 27 22 26 22 23 21 22 21 19 17 16 18 18 13 12 15 19 21 25 27 31 39
45 46 49 49 45 41 37 39 41 43 32 20 23 28 32 30 25 24 28 32 34 34 36 29 25 26 25 24 25 21 21 19 17 17 16 18 12 14 14 17 21 24 27 30 34
46 46 48 48 41 37 38 42 43 42 18 12 24 30 29 25 22 24 22 30 28 29 27 30 22 18 24 25 25 24 22 20 19 19 20 20 13 14 16 17 19 22 23 28 34
44 46 47 40 43 42 40 44 43 35 16 14 18 20 21 21 24 23 23 23 27 31 28 24 24 25 22 19 23 23 22 22 22 22 22 22 17 14 16 18 21 17 21 23 34
44 46 43 39 36 43 44 41 30 18 10 14 17 18 17 17 20 22 26 24 17 21 25 27 24 25 26 20 23 20 22 20 20 21 21 21 19 20 19 20 22 23 20 26 31
44 46 41 37 39 44 43 33 21 8 8 16 19 15 12 16 21 23 24 23 22 21 23 20 20 25 25 25 19 21 21 21 20 22 18 20 18 19 22 22 22 22 24 26 34
44 37 37 40 42 41 39 27 15 10 12 19 12 5 7 16 19 21 23 24 22 23 19 18 12 18 20 27 25 21 21 22 21 28 26 21 22 23 24 21 22 23 23 25 27
35 36 35 40 44 43 36 25 17 18 23 18 11 10 13 16 18 20 23 27 26 26 24 21 17 17 22 25 28 25 23 21 23 21 21 21 25 21 21 21 22 23 27 28 29
35 34 35 40 44 40 32 25 20 18 23 21 16 17 17 19 19 19 30 29 28 26 31 23 23 20 22 23 24 26 24 27 23 22 22 22 21 25 23 26 26 28 28 30 32
34 32 38 41 37 34 29 26 27 20 21 22 23 23 23 23 21 19 19 25 29 28 35 26 23 20 29 22 24 26 26 26 26 27 25 28 23 25 30 28 27 27 28 31 32
33 31 42 44 31 30 29 25 23 22 20 19 19 21 21 22 20 21 19 23 25 27 32 34 22 21 22 28 23 23 26 28 28 29 30 31 24 26 26 26 27 28 29 31 32
36 33 30 40 35 30 25 26 22 23 22 21 19 19 20 22 23 22 23 21 23 23 37 36 34 22 15 19 19 22 23 25 24 27 27 28 28 26 25 24 26 31 32 31 32
35 32 30 30 30 30 28 28 21 20 23 21 21 21 21 21 20 22 23 23 23 29 26 30 35 36 26 27 27 19 21 21 24 26 26 27 24 24 24 27 29 31 33 32 32
34 30 30 28 30 26 27 28 23 24 21 21 24 21 19 19 20 22 23 22 23 23 26 29 29 37 30 28 27 26 26 24 24 24 25 24 24 26 28 23 25 32 34 35 37
34 34 36 28 26 28 28 24 21 24 25 25 24 22 22 24 28 31 31 30 32 29 27 27 25 31 29 26 24 25 26 24 25 24 25 24 27 30 24 23 28 32 38 39 39

GFSSW_sfc_dewp_066.txt.gz
Dewpoint
50 50 50 50 51 51 51 51 52 51 51 51 51 52 52 53 52 40 33 33 38 55 51 30 36 37 37 29 25 23 20 17 16 15 14 19 19 22 20 21 23 26 32 48 55
49 50 50 50 51 51 51 52 53 52 52 52 52 52 53 53 45 37 45 60 59 57 35 21 28 35 31 27 24 20 20 17 16 15 13 12 17 17 18 21 26 25 35 51 49
50 50 50 50 50 52 52 53 53 52 51 52 52 53 53 50 37 28 53 58 59 58 45 25 26 30 31 28 23 21 18 18 15 14 14 12 13 16 18 20 22 30 32 42 50
49 49 50 51 51 52 52 53 52 51 51 51 52 52 52 44 25 26 53 58 56 50 44 31 24 25 28 25 21 17 16 17 16 15 14 13 13 15 17 25 25 26 35 38 46
50 51 51 51 51 51 52 52 52 51 51 51 51 51 46 25 26 28 52 50 43 44 35 31 27 26 23 24 23 19 15 13 15 16 14 14 14 16 18 21 23 26 39 43 46
50 50 50 51 50 50 51 52 52 52 52 51 51 51 43 30 23 23 27 22 13 22 36 33 28 26 23 22 22 21 15 12 14 15 15 14 14 16 20 19 21 30 39 44 45
48 49 50 50 50 50 51 51 51 52 52 51 51 47 41 30 21 20 21 18 15 13 12 29 33 28 25 23 22 19 17 17 14 16 16 15 14 19 18 19 20 28 37 41 50
49 49 50 51 51 51 51 51 51 51 52 52 52 47 37 30 28 26 25 26 26 25 17 16 28 32 32 29 25 20 19 16 15 15 16 15 14 15 18 19 19 29 36 41 46
48 48 50 50 50 50 50 50 50 51 52 52 48 44 35 36 27 22 23 25 26 25 23 18 21 27 30 29 25 22 17 16 15 15 16 15 16 17 20 21 27 31 33 39 44
47 47 48 49 50 49 49 49 49 50 46 44 43 37 37 25 27 30 34 30 25 29 30 26 20 20 27 26 23 20 17 18 16 15 16 15 17 19 23 26 30 29 30 37 42
45 46 47 49 49 49 46 43 32 37 39 31 30 29 28 26 23 23 30 36 33 32 32 29 26 16 26 27 25 21 21 20 19 16 17 19 17 16 20 21 29 30 32 33 41
45 46 46 48 49 49 46 38 34 38 35 34 31 28 27 28 25 22 30 31 33 28 31 31 30 26 22 25 23 22 25 25 23 18 17 16 16 17 17 20 22 26 31 34 37
45 45 46 48 49 46 43 37 37 41 34 30 25 25 26 29 27 23 25 31 30 32 30 32 29 27 27 23 24 24 24 23 20 18 17 16 16 18 17 15 19 20 26 30 36
45 45 48 48 43 40 36 37 40 44 32 27 25 28 31 27 24 25 22 27 30 35 36 37 39 30 32 30 21 21 22 21 21 21 17 18 15 19 18 16 17 20 28 29 29
45 44 47 46 40 34 37 38 41 44 21 16 22 29 27 26 23 22 21 25 30 35 39 37 35 32 33 34 27 24 28 27 24 20 21 17 17 19 17 15 16 21 26 29 32
44 44 46 38 41 40 42 42 44 34 22 13 19 22 22 23 24 23 19 23 30 30 34 31 31 36 35 32 32 30 31 30 27 24 21 19 19 19 20 18 17 20 25 26 31
43 43 43 37 35 40 42 40 32 21 10 8 14 15 14 13 16 23 23 19 21 24 26 26 28 31 26 27 27 25 31 24 23 23 22 21 20 24 23 20 21 23 22 28 35
44 45 41 36 37 42 43 34 23 12 15 15 14 13 4 3 16 22 22 22 19 18 19 27 26 29 28 27 29 24 28 25 26 26 20 21 19 20 23 22 22 21 26 28 32
44 37 37 39 43 43 38 28 16 15 10 11 15 5 1 7 14 19 23 23 23 22 18 23 25 25 28 29 30 27 28 27 24 28 26 26 20 21 24 22 21 22 24 27 33
38 35 32 42 46 41 35 26 21 17 16 19 12 3 8 10 14 16 21 29 26 25 24 22 20 23 20 28 29 28 26 26 25 25 25 24 22 22 24 24 22 23 28 32 33
37 31 33 42 43 39 28 27 22 22 18 20 17 10 12 14 16 17 24 32 30 27 28 27 25 23 25 21 26 27 26 29 29 26 26 26 26 33 30 28 29 30 31 35 36
38 31 35 43 36 32 30 28 27 19 20 18 21 20 19 19 19 19 19 24 28 28 30 33 27 22 21 25 30 26 29 28 29 26 27 29 27 32 32 30 30 30 32 34 36
36 28 35 45 30 30 28 25 24 21 19 18 19 19 21 19 17 18 20 23 24 27 30 29 27 22 20 27 29 29 26 30 32 36 35 32 25 31 29 28 30 33 34 32 34
36 30 27 40 36 30 26 26 22 21 20 20 19 19 18 17 19 19 19 23 24 24 35 34 31 30 21 21 33 28 26 30 31 33 33 34 31 34 32 32 31 34 34 33 34
36 30 31 30 30 29 29 29 24 18 21 19 19 19 18 17 17 18 19 19 20 31 28 33 33 33 33 33 26 22 25 27 36 35 33 33 32 32 36 32 30 34 35 36 37
33 30 24 25 31 28 25 24 23 26 19 19 18 18 18 17 17 17 18 18 23 30 29 30 33 30 30 31 29 25 27 25 30 26 23 26 30 34 32 31 31 35 38 39 39
39 37 35 28 25 25 30 24 20 22 23 25 26 23 20 21 30 30 30 30 32 32 30 30 27 29 29 34 32 27 27 30 30 33 28 33 36 39 34 25 29 38 39 38 39

GFSSW_sfc_dewp_069.txt.gz
Dewpoint
49 50 50 50 50 51 51 52 53 52 52 52 52 52 53 54 53 44 35 41 46 53 52 33 28 34 37 37 34 31 24 20 19 19 18 19 22 25 22 22 27 29 30 52 57
49 50 50 50 51 52 52 52 53 52 52 52 52 53 53 53 48 40 45 56 55 56 41 29 22 25 34 34 33 27 22 20 21 20 19 16 18 22 19 23 29 28 53 56 54
48 49 50 50 51 52 52 52 52 51 51 52 52 53 53 51 39 29 53 55 55 58 48 43 33 19 32 33 30 26 23 21 20 21 19 17 14 18 20 22 22 29 49 51 51
50 50 51 50 50 50 52 52 51 51 51 51 51 51 52 47 16 26 54 56 57 52 49 42 32 19 23 30 31 26 24 23 20 20 18 16 14 15 19 25 25 28 42 50 51
48 50 50 49 49 50 51 51 51 50 50 51 51 51 47 36 31 28 51 53 51 46 40 37 27 22 23 25 28 26 23 21 19 18 17 17 15 16 18 20 23 29 40 41 49
50 50 50 50 49 49 50 50 50 51 50 50 51 50 45 34 29 25 26 24 27 22 33 33 34 25 27 26 23 25 24 23 21 18 14 14 16 15 20 19 18 23 42 42 45
48 49 49 49 49 49 49 50 50 50 50 50 51 46 42 37 32 32 32 27 22 16 16 17 17 28 32 31 27 24 22 21 21 18 15 15 16 19 18 18 18 23 41 44 47
47 48 49 49 49 50 50 49 49 49 49 50 51 47 39 39 37 35 31 26 26 21 24 24 19 22 31 32 31 28 24 20 20 19 19 16 15 16 17 18 18 19 37 43 48
48 48 49 49 49 49 49 49 49 49 50 52 48 46 39 43 38 36 32 25 26 28 28 24 21 23 28 28 28 27 22 21 19 18 17 16 14 16 16 16 19 20 34 42 47
45 47 48 48 48 48 48 48 47 49 48 45 44 43 43 34 27 26 29 35 28 27 31 26 25 21 25 27 25 26 23 19 17 18 18 15 14 16 17 20 29 30 31 39 47
44 45 46 48 48 48 46 41 34 37 36 37 37 39 36 33 25 23 23 37 35 27 30 30 25 22 21 25 27 26 25 21 20 24 25 23 18 16 19 21 27 29 29 32 45
44 44 45 47 48 48 45 41 36 39 35 36 34 32 31 29 26 27 23 26 34 31 31 32 27 29 29 30 26 26 24 22 23 25 25 21 17 17 18 19 23 29 30 30 41
45 45 45 47 48 45 42 39 41 39 35 32 30 30 30 30 28 26 23 29 31 31 32 30 33 33 32 32 29 27 24 22 23 24 24 21 17 17 19 20 19 25 29 32 41
46 46 46 48 42 39 36 40 44 42 32 27 26 26 30 29 26 27 24 26 28 30 37 37 37 34 29 28 28 29 29 25 23 22 22 25 18 18 18 18 19 17 24 32 38
46 45 46 46 41 37 37 42 42 41 19 28 25 30 31 26 25 23 23 26 26 36 37 34 37 37 35 30 30 33 34 30 31 30 29 25 19 18 21 21 19 18 20 26 31
46 45 45 40 40 38 38 41 42 33 21 17 25 23 26 27 27 24 22 25 27 33 38 35 38 38 34 33 35 34 34 34 32 32 27 25 20 18 19 20 23 20 20 27 28
46 44 41 39 36 37 37 40 28 22 20 13 18 20 22 18 25 25 19 20 24 25 27 30 31 33 37 35 34 32 35 30 27 24 24 23 22 20 23 24 25 25 21 23 30
45 45 43 38 38 38 40 36 24 21 19 18 18 17 14 12 12 25 20 17 19 22 19 23 25 28 32 31 27 30 34 30 26 27 25 26 21 21 24 24 25 21 23 31 35
45 39 39 38 40 39 37 26 22 16 15 19 16 15 12 8 13 22 24 24 20 19 18 21 24 29 32 29 29 35 30 31 32 30 30 29 26 22 23 23 23 22 22 26 35
38 37 36 37 41 38 34 25 23 22 23 20 17 14 8 15 17 18 25 31 28 26 24 24 21 23 29 31 32 36 34 32 34 28 26 27 28 23 30 24 23 25 26 28 33
37 33 33 38 42 36 25 25 23 24 23 21 21 20 20 18 17 18 28 33 30 28 30 29 28 25 26 27 26 31 35 37 36 32 27 28 31 35 29 30 31 31 33 34 34
36 29 36 45 32 33 27 24 28 23 26 25 22 21 21 21 21 21 21 32 30 31 29 30 31 27 24 31 34 33 30 35 33 32 31 27 29 34 29 31 32 33 31 33 36
34 32 34 41 28 27 29 25 25 24 25 23 21 22 23 20 21 21 22 31 31 30 29 30 29 27 23 27 32 30 31 32 36 36 35 32 28 35 34 32 32 32 33 37 39
34 28 29 34 33 32 29 26 25 26 25 23 20 22 22 21 21 20 22 28 28 32 37 35 30 29 27 30 33 30 32 32 35 35 34 35 36 38 38 41 32 34 36 39 39
35 26 29 21 25 29 29 29 31 26 25 21 19 20 19 20 21 20 23 23 25 37 35 36 31 32 32 29 30 32 32 31 33 36 36 35 35 36 41 41 38 39 39 39 41
32 28 29 28 29 28 26 27 25 23 32 26 22 20 20 19 20 21 28 28 32 33 34 34 31 32 28 32 33 32 32 28 29 35 38 37 35 41 43 43 41 38 39 39 41
34 35 33 26 27 27 30 30 25 24 24 25 30 31 30 29 31 31 32 31 32 32 31 33 30 30 27 33 32 29 30 29 32 37 36 35 38 40 40 41 38 38 39 40 41

GFSSW_sfc_dewp_072.txt.gz
Dewpoint
49 49 49 50 50 51 52 51 52 51 51 51 51 52 53 54 53 46 34 40 47 55 54 34 31 36 39 37 36 32 28 24 22 22 22 23 19 20 23 31 32 31 39 48 56
48 49 49 50 51 51 51 51 51 50 50 51 51 51 53 53 48 42 45 51 56 56 38 31 24 22 34 34 35 33 28 28 26 23 22 22 20 19 21 22 28 39 56 56 56
49 50 50 50 50 50 51 51 51 50 49 50 51 51 52 51 42 31 50 54 57 57 37 39 35 22 25 33 33 30 30 28 25 24 22 21 21 21 17 21 26 33 54 55 56
48 48 49 49 49 49 51 51 49 49 48 49 49 51 52 48 -9 25 56 57 57 54 49 45 41 24 20 28 33 30 29 28 27 25 23 21 20 19 16 21 26 37 54 54 53
47 49 49 49 49 49 50 50 50 48 48 48 49 50 47 39 35 32 49 44 52 48 45 43 36 23 19 22 24 29 30 30 29 26 24 22 20 19 18 18 21 40 51 52 51
47 48 49 48 48 48 48 49 49 49 48 48 49 49 45 34 29 30 29 31 33 36 30 38 35 28 23 25 24 27 29 29 28 24 22 20 18 16 18 18 18 39 48 49 50
47 48 48 47 47 46 48 49 49 49 48 48 49 46 41 36 35 31 35 34 28 22 17 19 22 19 25 31 32 29 25 23 23 23 22 21 18 18 17 17 18 18 39 42 50
48 47 48 48 48 48 48 48 48 49 48 49 49 47 40 40 40 38 36 33 31 26 21 21 26 21 23 30 31 29 28 24 24 22 22 19 18 18 18 18 17 17 32 42 46
47 47 48 48 48 48 48 48 48 49 49 49 49 46 39 46 41 39 38 33 28 27 27 25 25 21 23 28 27 29 25 24 22 22 21 17 17 19 19 17 17 18 24 41 45
46 45 47 47 48 47 47 47 47 49 48 48 45 43 42 34 33 26 29 30 31 28 31 27 24 21 23 27 24 26 25 26 21 20 22 24 24 24 22 17 18 16 22 39 45
45 44 45 47 47 47 44 42 37 35 37 37 39 40 39 37 32 26 26 24 36 26 26 29 25 22 21 23 27 27 26 25 26 27 25 24 23 24 24 22 17 26 28 38 45
46 45 45 46 47 47 45 41 39 37 34 35 36 35 35 34 31 30 29 22 32 30 30 31 27 27 28 29 29 28 26 25 26 25 24 24 24 24 22 21 19 27 30 35 45
46 45 45 47 47 43 37 38 41 39 33 33 31 30 33 31 29 26 27 22 31 31 31 30 32 32 30 30 29 27 26 27 28 25 24 23 22 23 25 19 20 25 30 32 46
47 47 47 47 39 38 37 38 38 42 31 27 30 31 31 31 28 29 25 24 30 30 35 35 38 34 31 31 31 26 28 31 31 27 22 27 24 24 24 21 20 20 26 30 43
46 47 46 44 40 37 37 37 38 41 11 22 25 30 31 26 25 23 24 25 27 36 37 32 37 37 35 31 30 30 32 35 33 31 30 26 24 23 23 20 21 22 21 30 43
45 46 45 40 38 39 38 37 40 29 13 22 27 26 29 28 27 22 22 24 26 36 37 34 38 38 35 37 35 33 36 36 33 31 27 26 25 24 21 20 21 24 23 27 43
44 45 43 40 35 37 38 39 26 22 17 18 24 25 27 26 26 21 21 19 24 25 28 31 35 35 37 34 36 35 36 30 27 27 24 26 24 24 25 24 25 26 25 25 43
44 45 43 40 39 38 37 32 20 18 20 21 21 22 24 18 23 22 20 19 20 24 19 20 21 33 35 33 33 33 37 32 24 25 27 29 22 22 25 24 24 24 24 29 44
44 39 38 39 40 38 36 22 20 19 21 22 22 15 15 14 17 23 20 19 18 21 19 19 23 30 32 32 31 32 34 35 33 33 29 29 29 27 29 28 26 24 27 34 44
37 35 36 36 39 39 32 20 21 21 23 21 20 21 18 21 19 21 25 31 27 23 23 24 21 24 31 33 34 34 35 32 34 26 26 26 28 30 30 31 29 33 35 36 40
35 30 33 37 40 36 23 23 22 23 21 25 25 23 20 20 20 21 31 34 29 29 30 31 27 25 30 32 30 36 37 37 34 32 30 28 33 36 35 32 32 35 38 39 41
33 24 33 42 29 32 25 25 26 21 24 23 26 26 21 21 19 20 26 33 32 31 30 30 30 29 27 31 32 34 35 37 34 30 31 31 32 41 43 40 36 38 39 42 44
33 31 34 36 26 25 28 27 27 26 24 21 24 26 23 22 19 24 28 32 31 31 26 29 30 27 24 30 32 31 32 36 37 36 34 31 31 44 45 42 39 39 42 44 46
33 23 27 31 30 27 28 28 28 29 26 25 24 26 22 22 23 21 24 33 33 32 37 34 29 28 26 30 33 36 32 34 37 33 31 33 35 41 43 43 43 40 42 43 46
35 25 27 19 29 30 29 27 25 23 30 31 24 24 21 20 21 21 26 27 33 38 35 33 26 32 32 31 29 32 32 35 36 34 34 33 36 38 43 45 46 41 41 43 45
30 25 29 27 28 27 26 22 19 23 33 29 27 32 29 23 21 23 28 29 31 33 33 34 28 31 30 31 31 29 31 34 35 36 37 36 36 42 47 46 45 41 41 43 43
36 33 30 25 25 22 27 27 24 27 33 33 30 32 31 30 35 31 31 31 31 30 31 31 30 28 25 30 30 29 31 32 35 35 36 37 39 44 44 43 41 40 41 41 40

GFSSW_sfc_dewp_075.txt.gz
Dewpoint
49 49 49 50 51 50 50 50 50 50 50 50 50 50 51 52 52 46 38 38 45 52 54 38 36 40 39 37 36 30 26 23 23 23 20 24 20 22 23 23 29 32 48 48 56
49 49 49 50 50 50 50 50 50 49 49 49 49 49 51 52 47 42 43 51 54 57 43 32 25 29 33 35 36 33 28 23 25 22 23 24 22 22 20 21 23 29 53 56 56
48 48 48 49 49 49 49 49 49 49 48 48 48 48 51 50 38 16 51 53 54 56 40 36 33 22 24 33 33 33 27 26 27 28 27 24 22 23 22 22 22 24 45 55 56
47 47 48 49 49 49 49 50 48 48 48 48 47 49 49 47 -14 27 56 56 55 54 45 47 42 29 20 20 31 31 31 30 30 29 26 24 24 23 21 22 24 22 48 55 54
47 47 48 48 48 48 48 49 48 47 47 47 47 48 45 39 35 32 48 41 38 49 47 45 38 29 20 20 23 30 32 31 31 30 27 26 24 24 24 24 23 23 54 54 54
46 48 48 48 47 46 48 49 49 48 47 47 48 48 42 34 32 29 30 31 28 44 42 41 37 33 27 22 20 24 25 27 29 29 30 28 26 24 23 21 18 27 53 54 54
47 48 47 46 46 46 47 49 48 48 47 47 48 46 41 37 38 36 38 34 30 25 21 18 22 19 22 22 29 29 28 28 26 25 25 25 22 23 22 21 18 24 46 51 52
47 47 48 47 47 48 48 47 48 48 48 49 49 45 39 42 41 40 38 35 35 34 25 23 23 22 19 22 30 29 29 26 27 25 24 21 20 22 21 19 18 18 32 47 50
46 47 47 47 48 47 47 47 48 49 50 49 47 45 38 44 43 41 36 32 31 29 27 23 25 21 21 21 26 28 25 25 25 24 23 20 20 21 21 19 18 18 20 40 44
46 46 47 47 47 47 46 47 49 48 48 48 46 42 41 33 37 33 33 34 31 28 29 26 24 20 22 26 21 25 25 26 23 23 24 22 22 25 26 25 24 21 18 34 41
46 46 46 47 47 46 45 43 39 36 37 37 38 39 37 38 33 28 29 26 33 25 23 28 22 20 20 22 26 27 26 25 25 27 27 26 24 24 25 25 24 24 23 26 40
46 45 45 46 47 46 40 38 35 36 36 37 35 34 38 38 33 31 30 25 24 29 27 28 26 26 25 24 26 27 26 25 27 28 28 24 24 24 25 25 25 23 23 23 40
46 45 45 47 46 39 35 37 37 36 34 31 30 30 32 34 31 28 27 25 28 28 29 26 28 33 29 28 28 28 26 27 27 30 29 27 25 24 24 25 25 21 22 29 42
45 46 47 46 36 38 36 37 35 38 29 25 29 30 31 31 29 28 28 24 26 30 32 31 33 34 31 30 31 29 28 28 32 31 26 26 23 25 25 25 24 22 25 31 44
45 44 47 44 38 36 36 36 36 40 13 18 29 32 31 27 25 27 27 25 29 36 35 31 35 36 34 32 32 31 33 35 34 33 31 29 26 25 25 24 25 23 22 27 40
44 44 46 39 38 38 37 38 40 26 7 17 28 28 27 28 26 22 22 25 27 35 37 33 38 36 35 35 35 33 37 37 34 32 30 28 25 24 24 24 23 24 25 24 33
44 44 43 41 34 37 38 36 24 20 18 20 22 24 28 28 26 21 20 20 23 25 27 31 34 35 37 33 36 35 35 28 27 28 26 26 25 24 26 27 27 27 25 26 33
43 44 42 40 39 38 36 30 19 15 19 23 21 22 23 26 27 22 20 18 20 25 22 22 15 34 36 33 33 34 34 29 23 24 23 27 24 24 26 26 30 31 26 26 27
42 38 36 37 39 38 33 19 16 20 22 21 20 21 20 21 20 20 20 20 19 23 19 18 19 31 35 33 34 36 33 34 34 33 28 27 29 29 33 33 33 37 32 28 35
36 34 34 37 39 38 28 19 21 22 22 19 20 25 21 20 19 21 20 27 24 22 22 21 19 24 31 34 35 36 36 32 34 25 24 26 27 32 37 38 36 38 40 40 44
33 28 31 37 39 35 22 21 23 22 23 22 23 25 29 22 20 21 26 32 29 31 27 29 23 23 33 33 33 36 36 36 34 33 29 27 33 39 42 44 39 40 44 47 43
31 18 31 37 31 27 22 26 27 24 26 25 24 22 30 28 20 23 23 32 36 32 30 31 31 28 27 30 33 36 35 37 32 30 31 33 31 42 44 45 40 42 46 47 49
29 28 34 38 20 23 26 26 27 25 25 25 21 21 28 30 27 26 29 32 32 29 30 30 29 24 24 30 32 34 35 36 36 36 33 29 31 43 43 44 44 42 45 45 45
32 16 23 30 28 23 20 24 22 28 26 27 26 26 26 27 28 24 27 26 33 32 38 33 28 26 21 28 33 32 33 36 36 33 33 33 36 40 41 42 44 42 43 43 43
34 24 25 15 27 27 29 28 24 23 23 28 26 26 26 24 23 25 27 29 34 37 35 30 23 31 31 31 30 30 29 31 34 36 34 32 33 37 42 43 44 45 42 40 39
31 27 29 26 27 24 25 24 23 26 28 25 26 28 30 30 26 23 26 28 30 32 32 33 27 29 27 29 30 25 26 28 29 34 36 37 34 41 45 46 46 45 42 38 37
36 36 29 24 24 19 18 25 22 23 27 29 31 32 29 30 33 35 33 32 30 29 29 29 28 26 22 26 26 24 29 24 28 35 34 33 36 43 45 45 45 43 40 37 35

GFSSW_sfc_dewp_078.txt.gz
Dewpoint
48 48 48 48 49 50 50 49 49 49 49 49 49 49 49 50 51 46 39 32 45 52 55 39 37 41 39 36 36 29 23 22 20 20 18 24 21 23 24 21 24 30 43 49 57
48 48 48 48 49 49 49 49 49 49 48 48 48 48 48 51 46 43 43 46 52 54 39 33 27 33 33 37 36 31 27 19 24 23 21 23 23 23 22 23 25 24 42 55 58
47 47 47 47 48 48 48 48 48 48 47 47 48 48 49 49 35 7 53 49 53 55 44 33 28 22 24 33 33 35 27 25 27 27 26 26 24 25 23 24 24 24 28 54 56
47 47 47 48 48 47 47 49 47 47 47 47 47 48 50 46 -16 32 52 55 55 53 42 46 39 27 20 19 28 30 32 30 28 28 28 26 26 25 24 26 27 25 25 50 55
47 47 48 48 47 46 46 48 46 46 47 47 47 47 45 38 33 31 43 38 42 48 42 44 37 30 22 20 22 26 28 30 31 31 30 29 27 27 27 26 26 25 27 47 53
48 48 48 47 46 45 45 47 48 47 47 47 48 46 43 33 32 30 35 34 29 45 43 43 38 35 29 25 21 22 21 22 25 27 30 29 29 29 29 27 25 21 21 43 53
47 47 47 46 46 45 46 48 48 48 48 49 48 45 42 35 39 38 40 35 31 28 27 26 30 21 19 19 23 28 28 29 29 27 28 30 27 28 28 25 23 22 21 41 54
47 47 47 47 46 47 48 47 47 49 50 51 49 44 39 41 42 40 40 38 37 34 30 25 21 21 19 21 25 27 29 26 27 28 26 23 22 24 24 22 21 20 19 37 52
47 47 47 48 48 48 47 47 48 50 50 50 45 43 37 44 42 43 39 33 31 32 29 24 24 23 21 18 19 26 24 25 26 27 25 22 22 23 23 22 21 20 20 21 44
46 46 46 47 47 47 46 47 47 49 48 48 45 41 39 30 39 35 35 37 28 28 28 25 25 20 23 21 14 23 25 26 25 25 26 25 24 27 26 26 26 26 25 20 28
45 45 45 46 46 46 44 41 36 36 37 34 36 39 36 36 36 30 30 28 30 28 23 27 22 21 20 23 22 25 25 25 26 27 27 26 26 26 25 26 25 26 26 24 25
45 45 45 45 46 44 37 36 33 34 32 36 37 37 36 36 35 32 32 25 29 29 27 27 24 24 23 22 22 22 23 25 26 27 27 28 28 29 27 26 26 25 25 25 25
44 45 45 45 44 37 37 36 35 35 34 33 31 30 32 33 32 31 29 26 23 26 28 25 24 30 27 27 26 27 27 27 26 28 30 28 26 25 26 26 26 26 26 24 24
45 45 46 46 35 37 35 37 35 37 28 22 27 31 32 32 30 31 29 24 24 24 31 30 30 29 31 30 29 28 30 29 28 32 25 29 25 26 27 27 26 26 25 24 28
45 44 45 44 37 33 34 37 36 38 -2 12 29 32 32 30 27 26 28 26 24 32 34 31 35 35 32 31 32 30 33 34 34 32 32 30 28 26 27 25 26 26 26 25 32
44 44 43 39 38 36 37 37 38 17 -5 16 27 27 26 28 27 23 25 25 30 36 36 32 37 36 34 35 35 34 35 35 34 32 27 27 28 25 25 25 24 25 25 25 27
43 43 41 41 34 37 37 35 16 13 15 20 21 20 22 24 27 22 21 21 24 23 24 29 33 36 36 32 36 35 33 26 26 27 24 27 28 27 26 26 27 30 32 30 27
43 43 40 40 38 37 35 26 9 13 19 23 19 20 23 24 24 23 20 19 20 24 25 23 14 34 36 32 32 34 33 25 22 25 26 27 23 24 35 39 37 38 40 40 30
42 35 34 36 37 37 29 16 11 21 20 20 19 25 23 25 25 21 20 19 20 24 20 19 17 33 36 34 34 34 34 36 33 31 29 27 28 34 41 42 40 42 45 46 47
34 32 30 36 38 35 23 18 20 22 22 23 21 27 25 26 26 22 21 23 20 24 22 21 18 25 32 34 36 36 37 33 34 24 24 25 28 33 39 40 41 43 46 47 47
32 26 30 37 37 29 13 19 23 23 26 24 22 20 20 23 28 26 25 30 34 29 23 26 22 23 33 33 33 35 35 35 36 34 26 25 29 40 42 43 41 43 43 45 48
29 16 30 36 24 28 19 25 26 25 27 26 25 22 22 28 25 30 29 33 38 36 30 30 30 25 26 30 35 35 35 35 32 30 32 31 29 44 44 41 44 42 44 45 46
26 26 32 34 15 21 25 25 25 25 25 25 25 25 24 26 25 30 34 35 34 36 34 29 30 22 23 28 34 35 36 36 36 36 30 29 29 44 45 41 43 42 41 43 43
29 16 22 32 28 25 21 23 23 25 26 28 26 27 26 26 29 28 31 34 34 35 39 32 29 22 18 22 31 30 29 30 34 32 32 31 33 39 41 41 41 43 40 40 41
31 23 24 15 26 25 25 26 24 23 26 27 25 27 26 25 27 28 32 34 34 36 36 29 24 30 29 29 30 29 29 29 29 32 32 30 32 35 40 42 44 44 38 37 36
28 24 27 26 27 23 23 22 23 26 26 23 29 27 27 27 27 27 29 30 30 31 33 32 28 28 25 27 25 20 18 21 24 28 33 34 34 38 44 46 45 43 37 35 34
33 36 28 24 24 18 16 20 21 23 23 23 26 25 25 27 31 31 33 35 34 30 29 29 28 25 21 24 22 14 23 18 23 26 30 30 34 40 42 44 43 41 39 35 33

GFSSW_sfc_dewp_081.txt.gz
Dewpoint
48 48 48 48 48 49 48 48 49 48 48 48 48 48 48 49 51 46 35 31 44 50 52 42 41 41 39 36 34 29 22 19 17 17 15 22 21 22 24 22 23 25 34 45 55
48 48 48 48 48 48 48 48 48 47 48 48 48 48 48 50 46 41 42 45 50 52 38 31 31 37 34 34 35 30 25 21 22 21 19 20 21 21 22 23 24 25 28 54 58
47 47 47 47 47 48 47 47 47 47 47 47 47 47 49 49 32 3 55 50 52 53 40 32 26 28 24 34 34 32 24 26 25 25 24 24 24 24 23 24 25 27 27 38 53
47 47 48 48 48 47 47 48 46 46 46 47 47 48 49 44 -13 32 49 53 54 51 41 37 31 21 19 19 28 25 32 28 26 25 25 24 23 23 24 27 28 29 30 29 36
48 48 48 47 47 46 47 48 46 46 47 47 48 47 45 36 27 31 41 40 48 48 37 43 37 29 25 23 21 27 25 27 27 28 28 29 29 29 29 30 30 29 29 31 32
48 47 47 47 47 46 46 48 48 47 47 48 48 46 43 31 31 31 37 35 31 45 41 43 39 35 31 26 25 25 23 23 24 27 27 26 25 28 28 29 29 29 29 30 30
47 47 47 47 46 46 46 48 48 48 49 50 48 44 41 35 39 39 40 36 31 34 38 42 39 31 26 18 22 23 22 24 27 28 28 28 25 27 28 29 30 29 28 28 32
47 47 47 47 46 46 48 48 48 49 51 51 49 43 38 41 41 41 40 38 39 37 30 27 23 25 20 22 21 21 23 18 27 28 28 27 20 22 25 25 25 25 26 26 25
46 46 46 47 48 47 47 48 48 50 50 49 44 42 35 43 39 41 40 36 33 35 33 28 24 23 21 19 17 22 14 25 25 28 27 25 23 25 26 25 25 25 25 25 27
44 44 45 46 46 46 47 46 46 49 48 47 44 38 36 29 38 36 39 38 31 30 28 26 25 22 22 18 12 15 21 25 24 25 25 25 26 28 29 28 29 28 29 30 29
44 44 44 44 45 46 42 37 33 32 34 30 31 35 30 31 36 32 30 29 28 27 25 26 22 19 19 22 18 19 20 19 23 25 25 23 23 25 28 29 30 29 29 29 30
44 45 44 44 45 43 39 34 32 32 31 34 34 34 34 33 31 32 33 28 30 28 26 28 23 24 23 23 22 21 20 19 23 26 26 25 25 27 28 29 29 29 29 29 30
45 45 44 45 42 38 37 34 35 35 33 32 32 32 30 35 33 30 30 26 23 28 27 27 24 29 24 24 23 24 24 26 25 27 28 28 24 22 25 27 28 29 29 29 29
45 44 44 44 35 37 35 35 37 37 25 12 25 30 32 32 31 32 31 25 25 22 29 29 28 27 29 28 28 28 30 29 29 29 25 30 23 25 26 26 27 29 31 31 30
44 44 44 43 37 34 32 38 38 38 -15 4 29 32 32 28 26 25 30 26 22 28 31 25 34 33 28 27 31 30 32 32 32 30 30 28 26 25 28 26 27 30 30 31 32
43 43 43 39 38 37 37 37 37 10 -18 10 24 18 19 26 27 24 25 26 28 31 36 27 37 36 33 35 34 33 32 32 33 31 26 26 26 24 26 27 27 28 30 33 35
43 43 41 41 31 38 38 33 -2 -9 14 19 19 17 18 23 24 23 22 22 24 26 27 30 33 36 36 32 36 34 31 24 23 26 21 26 26 26 31 40 39 40 43 44 46
43 41 38 38 38 39 35 22 -12 13 19 21 16 20 22 27 25 24 21 21 22 23 24 22 15 33 36 31 28 34 31 25 20 23 25 28 25 28 41 41 43 45 46 47 48
39 35 34 36 39 37 31 10 10 20 20 18 15 25 25 23 25 26 23 20 21 25 20 21 16 33 35 34 32 34 31 34 31 30 28 26 27 37 40 40 42 43 44 46 48
35 31 32 37 39 34 24 14 17 21 23 22 16 21 14 14 17 23 25 28 32 24 25 21 17 27 34 35 36 36 36 33 34 23 22 24 27 31 39 40 41 43 43 45 47
32 26 33 38 38 29 18 17 21 23 25 22 20 16 13 18 24 24 26 32 35 35 30 24 23 27 33 31 31 34 36 35 35 34 25 23 26 41 40 41 43 41 43 44 45
31 21 31 40 27 27 23 24 26 25 26 23 25 23 22 25 27 26 26 30 36 36 32 30 28 23 28 32 34 35 34 33 30 28 32 29 28 43 44 43 43 40 40 42 44
28 28 33 36 22 22 23 24 25 23 24 25 22 24 23 23 21 25 30 34 35 37 35 35 30 25 25 31 36 34 35 37 35 34 28 28 27 42 42 41 43 40 39 39 41
29 19 23 32 28 27 23 23 23 25 23 25 25 25 25 25 26 26 28 31 35 35 40 37 30 24 19 23 28 28 28 28 32 29 31 29 29 33 39 40 43 40 38 37 37
31 23 25 20 26 24 25 23 21 22 26 27 25 28 24 23 24 25 28 32 31 34 37 34 29 30 28 28 29 29 25 23 23 26 26 22 25 28 35 40 44 40 38 36 35
28 25 28 26 26 23 21 19 17 22 24 18 21 25 22 20 21 23 26 27 31 34 35 36 30 30 25 26 21 17 15 16 19 22 24 26 28 33 37 42 44 39 37 35 34
34 35 29 24 24 21 20 18 17 21 21 21 23 23 22 23 32 34 34 33 34 34 33 31 30 24 16 22 19 11 17 16 21 29 30 29 31 34 40 43 43 39 36 34 34

GFSSW_sfc_dewp_084.txt.gz
Dewpoint
47 48 48 47 47 48 48 48 48 48 48 48 48 49 49 49 50 40 31 32 40 49 50 42 41 37 30 27 29 25 19 17 16 16 16 17 16 17 18 17 16 22 25 31 43
47 47 47 47 47 48 48 47 47 47 47 47 48 48 49 50 44 31 42 44 49 52 31 33 31 35 30 28 28 24 20 19 19 20 18 18 16 17 17 18 21 21 24 27 40
46 47 48 48 48 48 47 47 47 47 46 47 48 49 50 48 32 13 53 52 48 49 34 26 26 30 25 27 29 26 21 22 22 22 20 18 17 18 18 20 19 22 19 23 32
47 48 47 47 47 47 47 47 47 47 46 47 48 49 49 42 -1 33 45 50 51 45 35 27 23 23 19 20 22 24 24 23 21 21 21 20 20 20 20 24 23 22 22 24 27
47 48 47 47 47 47 47 47 46 46 47 48 48 48 44 31 17 25 39 36 41 41 33 26 21 18 16 16 15 20 17 17 21 21 21 21 20 21 21 23 24 24 26 29 30
47 47 47 47 47 46 46 47 47 47 48 49 49 48 41 26 26 28 29 29 29 36 33 35 29 28 26 25 22 21 23 22 22 23 23 23 23 22 24 24 24 25 25 27 28
47 47 47 47 46 46 45 47 48 48 49 51 50 45 40 28 31 32 33 27 25 29 29 33 35 28 24 24 23 23 19 18 18 19 22 24 24 24 23 21 23 25 26 27 30
46 46 46 46 46 46 46 48 48 48 51 51 50 44 36 35 36 37 37 33 29 26 25 27 33 30 26 21 19 18 18 16 14 24 26 27 19 19 22 23 23 24 26 26 25
44 44 45 46 47 47 47 48 47 50 51 50 45 42 28 38 35 38 39 33 32 35 31 26 24 23 21 18 15 17 10 10 17 23 23 24 21 23 24 26 25 25 25 25 26
43 44 44 44 46 46 47 46 47 50 46 46 42 39 35 28 36 35 37 35 29 33 28 26 23 21 19 16 8 10 14 15 17 17 20 19 20 21 23 26 29 28 27 27 28
43 44 45 44 45 46 42 36 29 32 29 22 21 27 22 24 29 28 29 30 27 28 16 21 18 16 14 18 16 14 12 10 14 16 20 21 20 20 22 22 25 28 29 28 28
44 45 44 44 44 42 37 31 31 32 29 29 30 30 31 31 27 24 31 26 27 25 23 23 17 14 15 16 18 16 15 15 17 20 24 24 23 24 24 24 26 27 29 30 29
45 44 44 44 42 39 35 33 34 36 31 24 28 30 29 33 29 27 28 27 25 24 27 23 21 25 22 22 21 20 18 18 20 26 27 27 23 22 24 24 24 25 27 28 29
44 44 44 44 35 34 33 33 35 40 20 2 28 28 28 31 30 30 29 23 25 21 23 26 24 26 23 21 22 18 24 27 27 26 21 27 19 21 24 25 26 27 28 28 28
42 43 43 42 34 28 30 35 38 41 -11 12 26 30 13 27 27 26 29 25 20 22 25 21 24 25 23 21 27 24 30 29 29 27 27 25 24 18 24 25 28 28 29 30 30
42 42 43 37 36 32 36 39 41 13 -16 7 21 13 15 21 25 24 24 26 22 21 24 21 30 34 29 30 25 30 30 29 29 28 26 23 23 19 25 34 36 38 38 38 39
42 42 38 37 31 38 39 36 3 -10 4 12 15 11 15 23 21 24 23 24 23 19 19 19 23 26 34 30 33 30 26 19 23 26 18 24 24 23 34 38 40 42 42 44 46
42 38 38 36 39 41 38 13 -11 7 11 15 13 6 12 22 17 25 22 22 24 23 20 19 19 26 32 28 23 27 23 19 16 18 18 25 23 28 37 40 41 41 43 44 46
38 36 38 39 42 40 24 6 -1 14 16 15 5 3 6 15 6 19 23 23 22 23 22 20 17 29 33 32 28 30 30 29 29 27 25 19 24 34 36 38 40 40 42 43 46
32 32 34 41 43 33 21 10 14 18 18 15 3 10 7 5 2 5 15 34 34 33 35 25 19 26 33 34 34 32 32 31 32 23 19 17 21 27 36 39 39 39 41 42 44
32 26 34 41 40 26 23 11 15 19 21 17 14 12 10 12 14 15 13 28 34 32 34 28 23 26 32 30 27 33 33 34 34 32 24 19 24 38 39 40 38 39 41 42 42
34 30 34 40 29 28 21 22 25 21 21 21 23 21 20 19 19 21 20 24 33 34 33 32 28 20 24 30 31 30 31 32 29 28 31 31 26 40 41 39 39 41 40 40 40
30 25 34 37 29 23 23 21 22 19 19 19 18 19 21 21 19 18 22 28 32 33 34 34 28 21 24 29 32 31 34 36 35 33 28 28 28 37 38 39 42 41 39 38 38
32 29 28 30 27 25 21 18 18 20 20 23 21 23 23 21 22 22 21 22 32 34 35 36 34 25 18 23 28 29 28 30 30 31 29 27 24 26 25 29 39 41 38 37 36
33 28 27 26 24 22 21 19 7 16 19 22 19 27 22 18 19 20 24 27 26 33 34 36 32 30 24 23 23 23 22 22 23 25 23 18 15 21 29 34 38 40 37 35 34
34 26 26 22 25 21 19 14 12 14 19 17 18 18 21 18 18 20 24 26 27 35 33 35 32 33 27 23 18 14 12 11 13 14 18 23 25 30 34 36 42 40 37 34 33
36 34 30 23 21 23 22 12 14 17 19 19 19 21 19 19 26 29 29 29 30 31 33 34 28 26 22 19 14 12 15 17 21 25 26 26 29 32 37 43 40 38 36 34 32

GFSSW_sfc_dewp_087.txt.gz
Dewpoint
47 47 47 47 47 47 48 48 48 48 48 48 48 49 49 50 51 41 31 36 37 50 46 35 38 28 27 26 29 27 22 19 16 14 14 16 14 14 15 14 13 16 18 25 36
46 47 47 48 48 48 48 48 48 48 48 48 48 49 50 51 44 34 45 45 46 51 31 28 31 31 28 24 25 24 22 19 18 16 17 17 16 16 16 16 19 17 18 22 29
46 47 48 48 48 48 48 48 48 48 47 48 48 49 50 49 34 19 52 52 48 50 33 19 25 27 27 23 23 24 21 20 17 19 20 20 18 18 18 18 19 21 21 20 23
47 48 47 47 48 48 48 48 47 47 47 48 49 50 50 44 10 33 47 51 51 40 33 24 20 21 25 21 22 22 23 22 20 20 20 20 20 19 19 22 21 21 22 22 21
48 48 48 48 48 48 47 48 47 46 47 48 49 50 45 32 22 34 42 42 35 39 35 25 20 17 19 15 14 16 15 17 18 14 16 19 18 18 18 19 19 21 23 25 25
48 48 48 48 47 47 46 47 47 47 48 49 50 49 43 28 21 21 19 26 26 33 31 27 22 20 17 17 14 16 16 16 19 17 17 19 18 18 19 19 19 21 23 26 27
47 47 47 46 46 46 46 46 47 48 48 50 51 47 37 27 25 22 25 22 16 25 27 27 28 28 24 21 20 21 19 17 16 14 14 15 15 18 17 18 18 19 22 23 28
45 45 45 46 46 45 45 47 48 48 51 52 51 45 32 29 28 26 27 25 24 19 21 27 28 29 25 22 19 16 16 11 10 10 14 15 14 16 17 19 20 20 20 23 25
43 43 44 45 46 46 47 47 47 50 50 50 47 41 30 37 30 33 34 29 22 19 21 18 21 23 23 18 15 13 8 8 5 13 17 20 18 17 19 21 22 24 24 23 25
42 43 44 45 46 47 47 46 48 50 48 43 41 39 35 25 27 33 31 33 28 28 25 21 17 14 14 12 8 6 6 7 9 8 13 19 19 17 17 19 22 21 24 25 25
43 44 45 44 45 46 43 37 38 40 34 22 21 23 15 18 23 20 26 28 28 28 24 20 14 13 14 18 15 13 11 8 7 6 11 14 14 15 16 17 19 19 21 26 28
44 44 44 44 44 44 41 28 30 33 25 21 26 27 28 30 27 23 20 21 25 22 23 18 17 17 13 14 15 16 15 12 11 12 15 17 20 21 20 21 21 21 23 23 28
44 44 44 44 44 40 33 32 33 34 30 19 27 26 27 31 28 26 23 22 20 18 20 20 18 21 15 13 14 15 15 15 13 14 19 21 19 18 21 22 23 23 24 24 26
43 43 43 44 39 31 32 29 34 39 29 13 27 25 19 25 29 28 27 24 20 19 20 20 21 21 21 18 17 16 14 15 17 22 17 20 17 18 18 19 24 26 28 28 26
42 43 43 43 35 27 28 33 38 41 10 11 25 27 12 22 21 27 26 25 20 19 22 19 21 22 21 21 19 17 20 25 25 24 24 20 17 16 18 22 29 32 34 34 30
42 43 43 39 37 31 33 37 40 29 1 12 16 11 7 14 18 22 24 26 23 17 17 19 20 23 23 23 22 22 25 26 25 23 21 19 18 12 20 32 35 37 39 41 41
42 42 39 34 32 36 39 36 23 5 -0 9 11 8 2 9 15 17 16 20 21 21 18 16 17 19 23 26 28 23 25 21 19 23 19 17 19 18 32 35 37 38 39 41 44
41 39 38 33 38 41 38 26 6 2 3 10 7 4 -6 7 10 6 10 11 13 18 16 15 14 16 18 25 24 25 25 21 12 14 19 22 19 22 34 38 37 38 40 42 44
40 37 38 39 43 40 30 14 7 10 11 10 3 -6 -2 8 3 -1 6 11 21 31 29 23 17 22 26 26 26 23 23 22 21 21 21 19 14 32 34 37 36 36 39 41 44
33 32 32 40 42 37 24 13 8 13 14 9 3 1 6 4 4 0 -0 23 30 32 32 29 23 24 26 31 28 24 27 27 29 20 17 13 14 26 37 35 34 35 39 41 43
33 27 34 39 41 26 28 12 11 14 16 14 10 10 10 12 11 11 9 22 30 29 29 31 29 24 26 28 25 27 30 31 29 26 22 20 26 38 36 35 35 36 39 41 42
33 33 34 38 30 24 21 17 22 16 17 16 19 16 16 15 14 14 14 14 29 28 23 32 34 25 24 26 28 32 28 29 28 23 25 28 28 38 36 36 38 37 39 40 41
26 25 33 37 33 23 21 17 18 15 15 15 14 15 16 17 16 15 16 17 24 28 30 31 29 25 20 28 27 26 31 31 32 32 29 27 29 39 29 25 34 38 39 39 39
32 34 28 28 25 25 19 18 16 19 15 17 16 17 18 18 18 22 21 22 28 24 35 36 30 25 21 23 28 25 25 30 32 31 27 26 24 24 22 28 31 40 40 38 37
32 31 27 29 23 21 20 18 16 14 14 16 14 22 21 17 16 16 20 20 20 33 37 36 27 27 28 29 30 29 28 28 28 28 26 21 16 17 27 30 40 41 39 36 35
36 27 24 23 21 20 18 14 10 11 16 15 16 14 16 16 16 18 17 20 24 29 30 32 29 29 30 21 20 19 19 16 15 12 11 12 19 36 41 40 42 39 36 34 33
32 33 28 21 21 23 23 15 13 16 17 15 16 17 17 17 19 23 25 26 26 26 31 30 30 31 26 25 18 16 15 11 16 20 26 29 34 37 37 35 35 36 34 33 33

GFSSW_sfc_dewp_090.txt.gz
Dewpoint
48 48 48 48 49 49 49 49 49 49 48 49 49 49 50 51 51 42 34 40 39 49 46 25 34 31 25 26 26 30 26 23 21 18 18 17 14 14 14 12 12 14 16 24 41
48 48 48 48 49 49 49 49 49 48 48 48 48 49 50 51 45 39 43 50 51 49 26 15 24 31 22 23 23 23 26 23 21 20 18 17 17 15 15 14 17 17 23 24 32
48 48 49 48 48 48 48 49 48 48 48 48 48 49 51 50 38 31 53 51 51 50 24 15 20 26 26 24 22 20 21 22 21 21 19 17 18 19 17 18 19 23 22 22 23
48 48 48 48 48 48 48 49 48 48 47 47 48 50 51 45 16 34 52 51 49 37 32 30 17 20 21 23 23 18 19 19 20 21 21 18 19 20 21 23 22 21 23 23 28
48 48 48 48 48 48 48 48 47 47 47 48 49 50 45 35 30 38 51 51 41 34 36 29 21 17 15 15 19 19 17 18 19 19 19 18 15 18 19 19 19 19 22 26 28
48 48 48 48 48 47 46 47 47 46 47 49 50 50 43 27 21 23 22 22 26 29 29 29 22 19 15 14 14 15 11 10 11 14 11 15 14 14 19 18 17 18 20 23 25
48 48 47 46 46 46 46 46 47 47 48 50 51 48 38 29 22 24 22 19 15 16 23 27 25 23 23 21 21 20 18 18 18 18 17 18 16 17 17 17 15 15 18 20 28
47 45 44 45 45 46 46 47 47 48 50 52 52 46 30 27 28 24 23 21 21 19 16 22 26 26 27 27 23 17 17 14 12 9 9 9 9 8 10 13 16 19 20 19 22
44 43 44 45 46 47 47 48 48 48 51 51 48 43 28 36 25 28 31 28 26 23 20 14 17 23 24 22 18 16 11 11 8 8 10 8 11 15 17 17 19 21 22 23 24
44 44 44 45 47 47 47 47 47 50 49 45 40 38 37 26 26 27 31 30 28 25 18 17 15 14 14 14 14 13 9 7 6 6 7 9 12 16 19 18 19 18 23 24 24
44 44 44 45 45 46 44 39 39 43 42 33 30 32 25 13 24 21 17 23 28 25 25 22 16 11 12 13 12 14 13 14 13 14 12 12 9 8 11 13 15 16 17 18 22
43 44 44 44 44 46 42 31 29 32 24 22 18 20 24 29 28 24 19 17 21 22 22 23 18 17 15 15 15 14 14 13 14 15 14 12 10 12 15 18 20 19 20 22 23
43 43 44 44 44 41 31 30 30 33 29 22 24 26 25 29 28 24 23 17 16 17 19 19 19 18 17 16 14 13 12 11 11 12 14 15 13 16 15 16 19 22 23 24 24
42 43 43 44 40 30 34 27 33 38 29 19 21 24 24 19 28 27 26 24 21 18 17 14 17 17 17 19 17 15 15 15 14 12 11 16 16 19 16 14 20 25 31 32 29
42 42 43 43 39 30 29 31 35 41 15 14 24 26 14 17 18 23 26 24 22 19 18 17 17 17 17 18 20 18 18 16 18 20 22 20 18 15 15 14 17 33 36 42 45
42 42 43 39 41 32 34 37 39 33 12 10 15 14 3 6 12 17 21 26 24 19 17 15 16 17 19 20 19 19 19 19 20 22 21 19 16 14 14 33 36 39 40 42 44
41 41 38 34 35 37 39 37 29 18 0 8 9 8 4 -2 -2 13 11 16 17 20 21 17 14 14 18 20 23 24 23 17 17 20 19 20 22 18 32 36 38 38 39 42 44
41 41 40 33 38 42 39 31 16 1 1 8 5 3 -0 -6 -6 8 3 3 5 24 19 13 13 15 18 19 19 21 22 18 17 18 17 26 28 22 37 37 37 37 39 41 43
41 37 40 41 42 40 34 22 13 11 9 7 2 -1 -4 -2 8 3 4 -3 16 29 26 26 20 26 23 19 17 20 29 24 26 26 22 17 32 36 39 35 34 36 39 41 42
36 34 33 39 41 39 30 20 9 12 11 7 4 -2 3 6 6 6 4 12 25 28 28 26 24 21 22 32 21 22 23 27 28 23 16 13 15 19 39 33 33 36 39 40 41
36 31 36 37 42 34 30 16 12 12 14 10 9 8 9 10 10 9 8 9 25 24 23 26 28 23 23 33 26 22 24 29 31 28 22 23 29 41 40 41 34 36 39 40 40
35 33 35 39 34 27 23 17 19 11 14 13 15 14 13 12 12 12 11 11 25 27 23 32 28 23 22 24 34 33 23 27 29 25 24 27 27 43 43 35 36 37 39 39 39
28 28 32 38 33 23 21 15 14 12 12 13 13 12 14 13 13 13 15 18 27 25 25 28 23 21 18 18 33 33 33 32 31 33 32 31 29 36 34 29 37 39 38 38 37
32 35 29 29 24 26 21 15 14 17 13 13 14 14 15 16 17 16 19 23 25 21 36 34 26 20 20 21 25 31 32 31 33 33 30 32 31 37 36 37 39 39 38 36 35
33 33 28 29 23 21 19 17 14 13 13 14 13 16 17 17 17 16 16 17 16 32 34 34 27 23 22 22 24 27 34 27 29 31 32 29 26 37 40 39 38 38 36 34 33
37 29 23 25 20 19 17 15 11 10 14 14 15 14 14 13 14 14 17 18 21 22 35 28 24 28 23 21 23 31 31 33 33 33 31 24 32 36 37 36 36 35 33 32 32
29 30 31 23 21 23 23 16 13 15 17 14 14 15 15 14 16 17 18 19 20 23 28 26 25 24 20 22 29 30 23 24 20 28 29 28 34 34 35 33 32 33 31 30 30

GFSSW_sfc_dewp_093.txt.gz
Dewpoint
49 49 49 49 49 50 50 49 50 50 49 49 49 49 50 51 52 46 40 44 45 52 50 33 27 30 27 25 28 31 31 29 28 25 23 23 20 18 17 13 18 19 17 43 47
49 49 48 49 50 50 49 49 50 49 49 49 48 49 50 52 48 44 45 54 55 50 28 24 14 19 23 23 25 23 25 28 27 26 24 22 20 19 19 18 20 21 23 31 41
48 48 48 49 49 49 49 50 49 49 49 48 48 49 51 51 43 34 54 54 52 52 26 21 16 13 26 22 22 23 21 22 25 27 24 22 21 20 20 22 23 28 21 22 31
48 48 48 49 49 49 50 50 49 48 48 47 48 49 51 47 19 37 54 54 54 43 33 26 23 15 17 24 23 20 21 20 20 20 20 20 21 21 19 24 25 23 24 25 25
49 49 49 49 49 49 49 49 48 48 47 47 48 50 47 41 40 45 56 54 41 33 31 29 30 25 14 18 19 20 22 22 20 20 20 21 19 20 18 17 17 18 20 23 27
50 49 49 49 49 48 47 48 48 47 47 48 49 49 46 35 26 38 38 38 31 35 34 34 32 27 19 16 15 14 15 16 18 18 16 18 17 17 19 18 15 16 18 20 23
49 49 49 47 46 45 46 46 48 47 47 49 50 48 43 35 29 28 26 18 16 16 17 21 28 26 25 24 25 23 20 19 18 17 16 18 16 18 19 19 17 17 17 18 25
49 48 47 45 45 46 46 47 47 47 48 50 52 48 41 36 34 31 25 22 23 22 21 18 18 22 26 27 25 23 21 17 17 16 14 13 12 14 15 14 12 14 15 16 16
48 46 45 46 47 47 47 47 47 47 49 52 49 47 37 40 32 28 23 22 26 25 22 18 16 18 23 23 22 22 18 16 15 15 14 9 7 10 13 14 16 19 18 20 22
46 44 44 46 47 48 47 47 46 47 49 46 44 43 40 28 22 25 28 30 30 29 23 19 16 14 15 16 15 18 16 13 11 11 14 14 13 14 14 13 17 17 15 15 17
44 44 44 45 46 46 45 40 40 42 43 39 39 33 31 20 25 25 22 21 24 28 25 20 14 13 13 14 15 14 12 11 13 15 13 13 15 13 13 11 10 11 12 13 17
45 44 44 44 45 46 43 38 29 31 27 30 40 34 20 23 28 29 24 19 17 25 25 23 19 19 17 14 15 14 12 13 15 15 13 11 11 15 14 14 14 14 14 15 16
44 44 44 44 44 43 36 29 32 36 29 27 22 22 26 29 28 27 22 17 17 17 18 18 22 23 20 17 16 16 15 14 13 13 13 12 12 13 14 15 17 18 17 18 18
43 43 44 45 42 38 34 31 36 40 30 25 17 24 23 27 25 27 27 27 24 17 18 19 18 18 18 17 17 16 19 18 16 15 14 14 12 17 20 21 20 18 30 25 43
42 43 43 42 39 35 32 33 35 41 22 18 20 26 19 18 19 26 27 25 22 22 21 20 19 18 17 16 18 19 23 20 20 16 22 21 20 20 22 19 15 40 41 43 44
41 43 43 40 41 38 37 38 39 33 20 13 22 20 11 9 11 25 26 26 24 23 22 19 18 16 16 18 20 22 21 21 20 18 17 19 20 18 18 18 40 42 44 44 45
42 42 39 35 37 39 40 38 31 25 12 11 10 10 8 5 4 -2 15 12 21 13 17 21 22 20 14 13 20 24 21 19 18 18 17 24 28 24 35 39 43 43 42 45 45
41 41 40 36 40 41 41 34 23 12 10 9 6 5 3 2 1 9 7 5 3 27 26 21 17 23 23 15 18 21 21 24 16 16 17 25 28 27 41 40 43 41 41 43 44
41 37 40 43 41 41 36 27 18 11 10 7 4 3 2 6 9 6 7 7 26 28 27 27 22 25 23 25 27 21 23 28 28 25 22 21 22 32 39 39 42 39 40 41 42
37 38 38 39 40 40 32 25 15 12 10 9 3 4 7 9 9 10 10 16 26 26 25 24 22 23 22 31 28 29 23 26 30 25 21 19 18 33 38 39 42 38 39 40 40
36 34 36 36 41 36 27 23 13 14 14 10 11 11 11 12 12 11 11 15 23 23 24 29 27 23 25 26 30 28 28 28 30 29 23 24 30 40 38 40 42 38 38 38 38
37 32 36 38 34 35 26 21 22 11 14 12 18 17 17 17 15 15 14 23 31 29 23 30 28 23 19 21 21 32 34 35 28 25 29 28 28 39 40 41 44 38 37 36 35
33 31 36 38 27 27 22 16 14 12 13 13 14 17 17 16 16 17 19 29 30 27 27 29 23 16 9 17 27 31 32 34 34 33 27 26 32 38 41 41 37 36 35 34 33
36 28 30 33 26 27 23 19 16 19 14 13 13 17 16 21 20 21 21 23 27 30 34 31 26 19 13 15 21 22 25 26 33 31 31 33 34 38 39 38 36 35 33 33 32
36 30 30 26 26 23 22 21 18 16 16 16 15 21 20 17 18 18 19 20 22 32 33 30 24 25 24 24 24 23 22 25 31 35 31 33 34 36 36 36 34 33 32 31 30
32 31 25 25 22 22 18 19 13 15 20 15 17 16 16 15 16 15 17 18 20 23 28 32 25 24 22 21 21 22 25 32 33 35 35 32 35 36 34 34 33 31 30 29 29
30 32 33 24 21 23 23 19 17 20 23 17 19 19 18 18 22 23 22 21 23 22 20 23 23 21 16 22 22 24 31 29 32 36 35 33 34 34 31 31 30 30 29 28 28

GFSSW_sfc_dewp_096.txt.gz
Dewpoint
51 50 49 49 50 50 50 50 50 50 50 49 49 49 49 50 52 47 39 38 44 51 53 38 31 26 30 23 27 31 30 30 30 30 29 30 25 22 23 19 22 16 22 39 48
51 50 49 49 50 50 50 50 50 50 49 49 49 48 49 51 48 45 46 50 53 55 32 29 21 19 29 23 23 24 24 29 31 31 29 28 25 23 20 21 24 21 27 45 47
51 50 49 49 50 50 50 50 50 50 49 48 48 48 51 51 42 35 53 54 55 55 26 25 23 15 23 23 23 24 23 23 23 26 27 27 26 24 21 21 22 25 24 28 41
51 50 49 49 49 50 50 51 49 49 48 48 47 48 50 48 6 36 55 53 54 43 34 26 21 17 15 22 25 20 21 21 21 22 21 21 22 21 21 23 24 24 24 24 26
52 51 49 49 50 50 50 50 48 48 47 47 47 49 46 41 38 39 55 53 46 38 32 30 29 25 18 15 18 22 23 24 23 23 21 21 20 20 20 21 20 17 20 23 24
51 51 50 50 50 49 48 48 48 47 47 47 48 48 44 29 22 32 48 46 39 32 34 34 35 32 27 23 17 17 16 15 17 19 19 19 18 18 21 20 19 20 20 21 22
51 51 51 50 49 47 46 47 48 47 46 47 48 47 43 33 31 32 35 28 31 32 31 26 29 24 25 24 27 26 24 23 19 18 17 17 14 17 19 19 19 18 19 19 24
50 51 51 49 46 45 46 48 48 47 47 48 50 46 39 39 39 37 34 29 23 20 20 22 20 17 24 26 24 23 23 20 20 17 17 14 12 13 13 13 13 14 16 16 17
51 51 49 47 47 47 47 47 46 46 47 49 48 46 40 45 39 38 32 24 22 24 23 20 22 15 18 21 21 23 20 19 19 18 17 13 14 14 12 14 13 13 13 15 19
51 49 46 47 47 48 48 46 46 46 44 47 46 43 41 32 26 26 28 29 29 31 24 21 16 13 14 17 17 19 18 17 16 14 14 13 13 15 17 15 16 14 17 16 15
50 46 45 46 46 47 45 40 40 41 41 41 38 37 34 28 22 24 24 21 22 29 25 21 13 12 12 14 17 16 15 14 13 13 15 15 14 12 13 15 14 14 14 13 13
48 46 44 44 44 44 43 37 30 30 26 34 42 40 40 36 25 29 27 20 19 15 26 25 16 16 16 16 15 14 13 12 13 14 15 13 12 11 12 14 15 15 16 16 16
46 45 44 44 44 41 39 32 35 34 27 24 25 29 32 28 27 29 22 21 16 17 21 23 21 23 20 19 18 16 14 14 15 15 14 12 12 13 15 15 16 17 18 21 23
46 44 43 43 39 39 35 32 38 38 24 23 23 22 25 30 29 29 27 24 21 15 16 16 16 17 17 19 20 17 18 17 17 18 15 14 13 17 17 19 21 22 27 43 45
45 43 42 42 39 37 33 34 35 40 8 22 20 27 24 24 19 27 28 27 23 22 23 21 20 18 18 18 18 17 22 21 21 19 17 18 18 15 19 18 20 26 44 45 46
43 42 41 39 41 39 36 38 39 29 7 22 25 24 17 18 14 26 27 26 25 23 23 21 22 19 18 17 18 20 22 21 21 19 16 17 18 16 18 27 40 43 46 46 47
41 40 39 37 38 39 39 38 31 24 18 12 16 12 8 9 8 4 16 19 20 13 12 18 17 20 23 21 19 19 21 19 18 17 14 16 18 18 26 40 41 42 43 44 43
40 40 39 36 38 41 40 33 24 15 11 9 5 5 4 5 6 9 7 5 26 28 27 25 21 23 24 24 22 18 19 19 18 18 18 22 22 27 41 41 43 42 44 41 41
39 38 37 41 39 41 36 27 18 13 10 7 8 6 8 10 11 12 10 21 27 25 24 25 24 22 23 24 27 25 21 24 24 24 24 23 23 34 39 40 41 41 42 40 38
37 37 39 41 40 39 32 26 13 12 11 12 7 12 12 12 12 11 11 25 25 25 26 26 21 23 23 20 21 28 29 24 27 20 17 21 21 29 36 37 40 41 39 36 35
36 35 36 38 41 35 25 22 14 13 15 15 14 14 13 14 14 13 14 24 26 26 29 27 26 22 22 20 21 17 27 32 32 27 20 19 25 38 37 39 39 40 35 34 33
36 31 36 39 34 34 26 23 23 13 17 17 18 19 18 17 15 15 15 25 30 28 23 29 25 23 18 19 19 19 23 34 29 27 28 26 27 39 39 41 40 35 33 33 32
33 30 35 39 27 25 22 16 18 15 15 15 17 20 18 16 14 19 21 31 29 26 25 27 22 16 10 12 22 23 23 31 33 32 28 24 28 38 39 36 36 34 32 31 31
35 28 29 32 31 26 23 21 18 20 15 14 15 18 17 20 21 21 19 27 27 33 33 29 25 18 13 14 22 22 23 25 29 25 27 28 32 37 36 36 35 32 31 30 29
35 29 29 25 25 23 24 21 20 17 18 18 17 19 18 17 17 17 19 20 21 32 32 27 22 24 24 22 21 20 19 20 21 24 29 32 33 33 35 33 31 30 30 28 28
30 24 28 22 24 20 21 19 18 16 19 16 17 18 17 15 16 16 20 18 18 21 29 31 18 24 18 18 17 20 21 22 23 32 33 35 33 34 33 31 30 29 28 27 27
33 32 27 22 22 24 23 22 19 21 23 18 21 19 17 19 22 22 23 23 22 21 20 25 21 19 13 19 20 17 20 20 33 35 35 31 34 33 30 28 28 28 27 27 28

GFSSW_sfc_dewp_099.txt.gz
Dewpoint
53 52 51 51 50 50 50 50 50 50 50 50 49 49 49 50 52 47 38 33 44 49 52 38 32 30 28 22 26 33 30 29 27 28 27 30 28 25 24 21 24 23 23 39 54
53 52 52 50 51 50 51 50 51 50 50 49 49 49 49 51 48 44 44 47 51 53 37 31 26 22 29 25 23 25 27 27 31 30 29 30 30 29 25 25 25 23 26 26 46
53 52 51 50 50 50 50 51 50 50 49 49 48 48 50 51 33 20 53 53 52 55 43 27 25 18 21 23 22 23 24 24 24 26 26 25 24 25 24 24 25 25 24 24 27
54 53 52 50 50 50 51 52 50 49 48 48 47 48 50 46 7 33 54 55 55 46 30 27 22 15 12 19 25 23 23 22 21 22 22 21 22 21 22 24 25 25 26 24 24
54 53 51 50 50 50 51 51 49 47 47 47 47 49 46 37 32 29 53 54 48 37 31 30 23 17 15 14 17 19 21 23 25 25 24 24 23 22 22 22 23 23 21 23 26
53 53 52 50 50 50 50 49 48 47 46 46 47 47 43 21 17 30 42 46 37 32 32 30 30 31 29 27 21 19 18 17 17 16 18 19 19 19 20 19 19 20 21 23 24
53 53 52 50 50 50 48 47 47 47 46 46 48 46 42 33 30 30 39 36 34 34 30 34 34 28 22 20 25 25 23 24 23 21 19 18 15 17 18 18 17 17 18 19 26
53 52 52 51 51 48 46 47 47 47 46 47 48 47 39 39 40 39 37 34 31 29 30 22 20 19 20 23 23 23 23 21 21 20 18 15 14 16 16 12 13 14 15 15 16
53 52 52 51 49 47 47 47 47 46 46 46 47 43 37 43 42 41 34 28 25 25 22 20 21 15 18 19 20 22 19 20 20 20 19 15 15 16 15 16 16 16 15 15 16
53 52 51 49 47 48 48 46 44 45 45 47 46 39 38 33 30 27 36 31 26 30 25 21 17 12 15 17 15 18 18 20 18 17 14 13 12 15 17 16 17 15 16 16 16
52 51 50 47 46 47 43 39 40 40 41 38 38 36 34 37 26 23 22 27 24 25 24 21 14 11 11 14 17 18 16 15 14 14 14 13 12 13 15 13 14 15 16 16 16
52 51 48 46 46 44 42 35 34 30 26 36 41 38 36 38 37 26 26 19 18 15 24 25 16 16 16 15 14 14 13 12 13 14 14 13 13 14 14 12 13 14 16 16 17
52 49 47 46 44 41 38 37 35 31 21 19 31 38 38 39 36 27 26 22 17 16 16 22 24 25 20 19 17 17 15 15 15 16 16 14 15 16 17 18 19 19 19 24 40
49 48 47 44 34 38 35 35 37 33 11 13 25 23 32 29 26 28 24 20 17 14 17 18 19 17 16 19 21 19 21 20 19 17 15 16 15 17 18 18 19 23 30 45 46
48 46 45 40 39 36 33 33 41 39 1 19 21 25 28 26 22 26 29 27 22 21 21 19 21 19 18 18 18 17 21 20 20 19 17 17 17 17 18 17 25 42 46 46 45
46 45 44 40 40 38 38 38 39 29 12 21 25 24 24 24 19 25 25 26 26 23 23 20 22 21 19 20 19 19 17 20 20 19 16 16 16 14 15 27 40 43 42 42 42
45 43 40 38 37 39 38 37 31 24 18 19 23 24 12 9 8 13 12 21 19 10 15 24 19 20 25 22 24 22 19 15 16 17 14 20 20 17 38 41 41 41 42 41 39
43 41 39 37 37 40 39 33 25 18 11 10 6 7 7 9 12 10 6 19 25 28 26 23 16 23 22 26 23 24 19 16 15 18 17 23 20 22 39 41 40 40 41 39 38
40 38 36 39 37 39 36 29 24 13 10 8 8 4 11 11 11 12 17 26 25 24 20 24 23 23 23 22 18 22 23 26 24 22 21 19 23 37 39 39 41 40 39 37 36
38 38 39 41 41 39 34 28 15 14 13 13 7 13 11 10 10 10 17 24 24 24 25 26 17 23 23 17 19 24 27 24 27 20 16 18 21 22 35 37 39 39 37 36 34
39 36 39 40 41 37 28 25 15 14 15 16 13 13 13 13 13 13 16 24 25 26 27 24 23 20 18 17 16 16 16 25 30 28 24 18 21 37 37 39 40 36 35 34 33
36 31 37 40 35 34 27 22 22 14 18 18 19 19 17 17 14 14 17 23 29 26 22 27 23 21 17 19 20 19 27 30 17 19 25 25 25 38 37 37 37 35 35 32 30
34 31 36 38 29 26 22 17 20 16 17 17 18 19 18 16 13 19 23 30 27 25 23 25 20 15 8 12 19 20 21 26 29 28 23 23 28 37 36 36 36 35 31 29 29
34 26 29 33 32 26 23 21 18 19 17 15 17 18 16 19 19 19 19 26 27 31 33 28 23 17 11 13 23 21 20 20 23 18 21 22 24 35 36 35 33 33 29 28 28
35 29 29 27 25 23 23 24 19 17 18 18 18 18 17 16 15 16 18 19 20 29 30 25 21 23 23 23 23 20 18 19 19 20 19 21 28 34 34 32 32 29 28 28 27
32 26 26 23 24 21 22 19 17 17 18 15 16 18 16 14 15 14 19 18 18 26 28 28 17 24 22 19 17 17 17 18 20 23 23 21 29 35 34 32 28 28 27 26 26
33 32 27 23 23 23 23 21 19 21 20 18 19 17 17 18 20 21 22 23 22 19 22 25 22 18 12 15 16 13 20 20 19 32 30 30 32 32 29 27 26 26 26 25 26

GFSSW_sfc_dewp_102.txt.gz
Dewpoint
55 54 53 52 52 51 50 51 50 51 50 50 50 50 50 50 51 47 35 32 45 47 51 37 32 31 28 21 29 35 28 26 24 26 24 30 29 29 28 27 27 26 22 26 52
55 54 54 52 53 51 50 51 51 50 50 49 49 48 49 51 47 44 42 46 52 52 37 30 23 25 27 27 23 28 29 25 28 28 27 30 30 30 27 27 27 27 30 28 52
56 55 54 53 53 51 51 51 51 50 49 48 47 47 50 50 31 13 52 51 51 50 39 29 25 16 18 24 21 23 24 26 26 30 27 25 25 25 25 25 26 27 26 26 25
56 55 55 53 52 51 52 52 50 50 48 47 47 48 49 46 10 31 53 55 54 51 34 27 23 16 11 18 23 21 23 24 24 25 22 21 22 22 23 25 25 25 26 26 25
56 55 55 53 52 52 52 51 50 48 47 46 46 48 44 28 24 26 53 56 51 36 29 26 20 15 12 14 17 21 23 22 23 24 24 25 23 23 23 24 24 23 24 25 25
55 55 54 54 52 52 51 51 48 47 47 46 46 47 42 11 15 35 35 44 39 34 30 30 26 23 27 28 22 23 19 19 20 18 18 18 18 20 20 20 19 20 21 23 24
55 55 54 53 52 51 50 50 47 46 47 46 46 45 41 17 28 29 35 40 37 30 31 33 33 25 23 16 24 25 24 23 23 23 22 21 17 18 19 18 16 14 15 17 23
56 54 53 53 52 52 50 47 47 46 46 46 48 46 37 38 39 39 37 34 31 30 32 30 27 21 18 18 21 22 23 20 21 21 21 16 16 16 17 14 15 16 16 16 17
56 54 53 52 52 50 46 46 46 46 45 46 46 43 35 41 39 42 37 32 23 29 27 23 21 18 17 16 14 20 18 19 20 21 20 16 16 15 15 15 15 16 16 15 16
55 54 53 52 50 47 47 46 44 45 45 45 45 34 35 24 35 32 39 30 27 27 23 21 18 14 15 15 12 16 19 19 18 18 16 13 12 14 16 16 18 17 16 15 15
55 54 52 51 49 46 43 39 41 40 41 34 35 28 31 37 38 21 30 30 25 25 23 19 16 15 16 15 16 19 18 16 15 15 15 13 12 13 14 15 14 14 15 15 17
54 53 52 50 48 46 42 33 35 30 27 37 38 38 35 39 34 35 23 23 19 19 24 25 16 17 15 14 13 13 12 12 14 14 14 13 14 16 16 16 15 14 16 18 33
54 52 51 49 47 44 37 32 37 32 22 19 33 36 36 39 34 36 24 20 18 16 20 21 23 26 19 19 16 16 14 15 16 18 17 15 15 16 18 18 19 26 32 46 46
52 51 50 47 40 37 33 30 31 30 6 3 21 32 36 39 35 35 26 22 18 16 17 17 18 20 20 19 19 18 20 19 19 19 16 17 14 16 18 18 21 43 44 43 42
52 50 47 43 40 38 35 39 40 37 13 12 25 26 35 27 21 26 27 25 18 17 18 16 20 18 18 17 19 18 21 20 19 19 18 16 16 17 17 16 39 41 41 40 39
50 48 45 42 39 39 38 41 41 29 7 20 22 23 27 27 21 25 25 26 25 22 22 19 22 21 20 21 20 21 20 19 21 19 16 16 16 14 15 32 39 42 42 40 39
48 46 42 43 36 40 39 37 24 14 18 22 23 24 24 21 21 21 23 25 20 15 13 23 20 22 25 23 24 21 18 16 14 17 14 21 17 16 34 40 41 41 40 38 37
46 43 41 39 42 41 38 33 16 15 14 10 12 16 10 8 12 9 20 23 24 26 25 16 12 22 22 21 15 18 20 17 13 16 16 20 16 19 39 40 39 40 38 36 35
42 40 39 37 37 39 34 24 14 18 12 12 11 7 12 12 11 13 24 25 24 24 18 23 22 23 20 20 15 17 23 26 24 23 20 19 21 35 39 39 41 39 37 35 34
37 37 38 42 39 40 33 23 24 16 18 18 12 16 10 12 11 11 20 24 23 25 25 25 13 23 22 16 18 16 18 18 23 17 16 16 20 22 34 36 36 36 35 34 32
39 33 38 41 41 37 26 28 18 17 18 19 15 15 15 14 14 12 19 23 24 26 25 21 18 20 14 16 12 15 14 19 27 25 18 18 22 36 36 37 36 35 35 34 31
37 30 39 41 33 34 30 28 24 17 21 21 22 19 18 18 14 15 20 25 28 25 21 26 23 18 14 17 20 19 26 27 14 14 22 20 21 37 37 35 36 34 34 30 28
33 34 38 38 28 28 29 20 22 18 17 18 17 20 19 16 14 21 26 29 26 24 25 24 19 13 7 15 21 20 20 25 27 26 19 14 19 37 37 37 36 34 32 30 28
30 27 31 34 34 29 23 21 17 19 19 19 19 20 18 19 20 19 21 22 24 29 32 26 21 15 7 13 21 20 20 21 21 11 15 18 19 23 32 33 31 30 32 31 27
33 26 28 27 28 24 23 23 19 17 18 18 17 18 18 16 15 16 17 19 20 29 29 25 20 22 21 22 23 21 21 21 18 17 17 16 18 24 33 31 30 29 30 27 26
32 28 27 26 26 22 22 20 18 17 18 15 18 18 15 14 14 14 17 17 17 29 26 27 15 23 19 22 23 18 14 16 18 19 19 19 20 33 31 30 27 27 27 25 25
32 32 27 23 21 22 23 20 19 21 23 21 19 18 17 18 19 19 19 21 19 19 22 24 21 18 12 14 13 10 16 19 19 27 21 19 24 31 28 25 25 24 25 24 25

GFSSW_sfc_dewp_105.txt.gz
Dewpoint
57 57 55 55 54 52 51 51 51 51 51 51 50 49 49 50 51 46 34 32 44 48 50 36 33 31 27 27 34 32 21 19 20 23 20 29 28 30 30 29 28 29 26 29 31
58 56 55 55 55 54 52 51 51 51 50 50 49 48 48 51 47 40 42 45 54 53 34 27 22 28 30 25 25 31 25 19 25 25 23 28 28 27 26 26 27 27 30 31 28
58 57 56 56 55 54 52 52 51 50 50 49 48 48 50 50 24 13 53 50 50 50 33 30 23 20 18 25 21 24 19 27 28 29 30 27 27 26 25 24 25 27 26 28 28
58 57 57 56 55 54 53 52 50 50 48 47 47 47 50 45 24 28 55 54 52 49 36 27 22 19 15 19 24 17 23 24 25 26 27 25 24 22 23 25 26 25 28 27 28
57 57 57 56 55 54 52 52 50 49 47 46 46 48 44 19 11 27 53 56 50 46 31 26 23 18 12 12 17 22 22 24 24 24 24 24 23 23 24 24 24 25 25 26 26
57 57 56 56 55 54 53 52 50 48 46 46 46 48 41 9 15 34 34 48 44 36 30 25 20 18 19 25 20 23 19 19 21 21 21 21 22 23 23 22 22 21 22 23 25
57 57 56 55 55 53 52 52 48 46 46 46 46 45 41 19 28 32 36 42 37 33 30 30 30 28 25 16 22 22 21 23 24 24 23 23 20 22 23 22 19 17 18 20 26
57 57 55 55 54 53 52 51 47 46 46 46 46 45 35 36 40 40 37 33 32 33 30 30 30 27 18 19 19 20 22 17 22 21 21 21 18 19 17 15 15 17 18 21 21
57 57 55 54 53 52 51 48 46 46 45 45 45 42 32 39 31 35 35 26 28 30 29 25 24 21 18 16 14 19 12 19 19 22 21 19 17 18 16 14 16 18 19 20 21
56 56 55 54 53 51 48 44 43 45 45 44 44 36 35 23 32 37 40 32 24 24 24 24 20 16 17 15 11 13 17 19 19 18 18 15 13 14 15 16 19 19 20 21 20
56 56 55 53 52 49 44 41 42 40 43 34 35 28 24 35 38 26 37 32 28 27 22 20 18 17 18 17 15 16 16 13 14 15 15 18 16 15 16 17 18 19 20 20 28
56 56 54 53 50 47 39 30 36 34 29 36 36 36 34 37 32 32 31 28 25 23 25 20 18 20 21 18 15 13 13 14 16 17 17 17 17 18 18 18 19 19 28 44 45
55 55 53 51 48 43 38 32 38 40 33 31 31 32 30 33 25 30 23 23 22 22 23 23 23 23 17 16 16 18 18 18 18 19 19 18 15 16 18 19 34 45 45 43 41
55 54 51 49 43 41 37 38 36 36 21 21 19 27 33 34 29 24 27 20 18 20 19 20 22 23 22 21 21 19 19 18 17 18 13 18 11 15 17 18 38 43 42 41 39
54 51 49 47 39 36 37 35 32 37 19 18 22 29 36 26 23 28 28 23 18 18 18 15 18 18 17 17 19 17 21 21 20 19 18 16 14 14 18 16 34 42 42 40 39
52 50 47 42 42 43 45 46 42 27 18 17 23 24 32 32 23 27 25 26 23 19 21 17 21 20 19 21 20 21 20 20 21 20 16 15 14 9 14 21 37 42 41 38 37
50 48 44 43 39 43 42 39 25 20 21 20 22 25 24 22 23 24 24 24 21 20 19 20 18 22 25 23 22 22 20 13 13 16 11 17 16 13 26 40 40 40 38 37 36
48 45 42 45 45 45 41 33 21 20 17 16 17 24 23 9 10 11 24 23 25 21 20 10 15 21 21 15 13 17 21 15 10 12 15 21 17 17 40 39 40 38 37 36 35
44 42 41 43 45 42 36 25 22 19 14 11 10 11 9 10 10 22 25 24 23 25 19 21 19 21 18 17 15 18 22 23 20 23 17 14 19 36 37 36 38 37 36 34 33
39 38 39 44 43 41 33 27 21 17 17 17 12 15 9 11 10 17 23 24 23 25 26 24 16 22 21 17 15 17 13 15 27 12 5 4 15 19 32 34 36 35 34 32 30
38 34 38 45 44 36 27 26 21 18 17 18 14 16 14 13 13 15 20 23 25 26 24 21 16 17 16 12 10 10 10 18 23 25 12 3 11 34 35 34 33 33 32 31 30
36 29 41 44 33 34 27 26 27 21 23 21 21 19 20 24 14 14 20 24 27 26 20 25 22 13 11 19 21 18 21 23 15 11 21 19 13 37 34 35 34 32 31 30 30
33 33 42 41 28 29 27 26 23 19 18 19 20 19 19 18 15 21 25 27 26 26 26 25 19 9 13 17 19 19 19 25 26 23 18 15 14 36 35 34 32 30 29 29 29
34 29 35 37 36 28 28 26 17 20 18 20 19 19 20 18 20 19 23 19 23 30 31 27 19 10 2 10 18 19 19 19 21 18 13 14 17 21 22 31 30 29 29 29 29
32 29 30 27 30 28 26 23 18 15 17 18 16 18 18 16 15 16 17 17 20 31 30 27 18 20 17 17 21 19 18 19 18 18 16 17 18 22 23 31 30 29 28 27 27
32 29 29 27 30 27 24 19 17 16 18 14 17 16 16 14 14 14 16 16 15 30 28 28 21 23 17 18 17 14 13 16 15 16 16 14 18 21 31 30 27 27 27 26 26
33 32 29 26 24 24 24 20 18 23 24 20 19 18 17 19 20 19 20 21 19 23 27 25 23 17 12 13 10 6 11 15 18 24 21 21 23 30 28 26 25 26 26 25 25

GFSSW_sfc_dewp_108.txt.gz
Dewpoint
58 58 57 56 56 54 52 51 51 51 51 51 50 49 49 50 51 35 30 33 38 46 50 35 32 27 28 26 26 23 19 17 18 19 20 23 22 26 28 26 27 28 27 29 29
59 58 57 57 56 55 53 52 51 51 51 50 49 48 49 51 40 30 42 43 53 53 31 27 25 27 19 20 24 19 16 16 17 19 19 18 21 20 23 21 23 24 26 27 27
59 59 58 57 57 55 54 53 51 51 50 49 48 48 49 48 29 18 50 51 53 48 27 24 18 19 14 21 19 19 17 19 18 19 17 17 17 19 21 21 22 23 23 24 27
59 59 58 58 57 56 54 53 52 50 50 48 47 47 50 37 32 30 54 52 52 40 29 26 21 17 15 15 16 15 16 16 16 16 17 19 18 16 16 19 20 20 22 24 27
58 58 58 58 57 56 54 53 52 50 48 46 47 48 39 22 23 36 56 53 43 37 26 23 20 18 14 10 10 17 11 12 15 15 15 15 15 16 16 17 21 23 23 25 25
58 58 57 57 57 56 54 53 52 49 46 46 46 48 35 24 18 25 25 38 30 32 23 21 18 18 15 11 12 14 17 17 19 20 20 20 18 19 21 21 20 21 23 23 23
58 58 57 57 57 56 54 53 51 46 46 45 46 40 35 27 23 27 31 31 31 32 25 24 22 18 20 20 21 21 18 17 17 19 17 19 18 19 19 19 20 20 19 19 24
56 57 57 57 56 55 54 52 49 46 46 46 45 42 33 29 32 31 27 27 32 32 28 29 29 29 26 21 18 17 18 17 18 21 21 22 17 18 20 19 18 17 18 19 20
55 55 56 56 55 54 53 50 48 46 44 44 41 40 32 37 29 26 27 20 19 31 30 25 27 23 21 18 17 18 14 16 16 19 17 19 17 18 19 18 16 16 17 19 21
54 54 55 55 54 53 51 47 44 45 44 42 42 36 37 33 26 34 36 23 15 27 28 26 23 21 20 16 14 15 14 15 16 16 19 16 15 15 14 12 16 16 19 21 22
55 54 55 55 53 50 47 45 42 42 41 36 36 35 23 26 35 33 35 33 18 14 12 21 17 16 17 19 16 13 13 12 13 14 13 15 15 16 17 18 19 19 20 21 32
54 55 54 55 52 49 43 42 40 36 36 38 36 35 36 33 30 30 31 28 26 16 12 15 16 13 13 16 16 15 15 15 15 17 19 18 16 17 17 18 19 19 22 36 39
53 55 55 54 50 46 42 36 40 38 35 36 35 35 34 32 32 32 28 26 26 21 19 19 18 21 18 19 19 19 17 16 16 16 17 17 14 11 14 17 21 32 39 40 40
53 54 54 50 46 41 39 36 39 36 30 32 30 30 32 31 30 31 29 25 25 24 23 23 22 23 20 19 18 16 16 17 15 14 9 17 5 10 12 17 27 36 39 41 40
54 54 51 49 43 41 42 42 40 37 23 23 23 27 30 28 24 24 28 27 23 22 26 23 16 16 20 17 19 16 14 16 17 16 16 14 11 4 13 16 26 37 41 39 39
54 52 49 45 44 42 38 39 44 32 25 27 21 24 27 26 23 26 24 26 24 24 21 19 18 20 17 17 18 18 19 18 19 17 14 11 8 -2 10 13 30 40 39 39 39
52 50 48 43 43 43 40 40 30 26 23 21 20 22 23 19 21 25 22 22 19 19 18 17 17 20 23 20 21 19 19 14 13 14 8 12 8 7 23 33 36 39 38 38 38
50 49 46 46 46 45 42 35 27 27 24 19 21 21 20 14 19 22 20 18 22 19 16 15 17 20 19 19 17 18 18 12 5 4 6 17 12 18 36 38 39 37 36 36 36
47 45 44 46 46 45 39 30 29 28 21 20 17 23 20 14 16 21 23 17 20 23 16 18 16 20 18 17 16 17 19 20 20 18 15 8 13 34 36 38 37 36 35 34 33
43 41 41 46 46 43 36 34 30 22 15 15 15 20 18 13 11 16 22 24 24 26 28 27 19 22 21 17 13 17 15 19 22 11 2 -3 3 11 31 33 34 34 33 34 33
41 35 39 45 44 37 32 31 26 17 16 15 14 17 17 14 12 15 21 24 27 27 28 26 23 18 18 16 14 10 10 12 18 16 9 2 2 33 35 34 33 31 32 32 32
37 30 41 44 34 35 31 31 30 24 23 19 18 19 19 24 14 16 19 23 26 24 19 24 18 12 11 17 18 13 12 10 16 8 13 14 11 35 35 33 33 31 32 31 32
33 32 40 41 31 31 31 30 23 19 19 20 23 20 20 29 26 23 24 26 27 23 23 23 15 8 7 15 19 15 18 20 24 21 15 15 15 33 33 32 32 31 30 31 31
36 31 33 35 36 30 29 30 26 21 18 18 23 24 25 22 25 23 23 20 26 25 30 23 15 7 -3 9 15 17 16 16 20 20 13 10 12 17 22 22 26 30 31 31 30
37 34 32 30 33 32 31 30 25 22 17 17 17 21 20 19 19 20 20 19 25 31 29 23 16 13 11 9 13 10 11 14 14 15 17 17 19 21 19 21 31 30 29 28 28
36 29 29 29 32 31 30 24 19 17 17 15 16 17 17 15 14 16 19 18 18 27 25 26 21 19 13 13 12 10 9 10 11 14 14 11 18 16 23 30 29 29 28 27 27
34 33 29 31 31 29 28 20 18 21 21 16 18 18 17 19 20 20 20 20 19 23 27 23 21 17 11 8 8 8 10 9 8 15 17 21 25 25 28 27 28 27 26 26 26

GFSSW_sfc_dewp_111.txt.gz
Dewpoint
59 59 58 58 57 55 54 53 52 52 52 52 51 50 50 51 50 36 33 36 38 44 47 29 27 23 18 22 22 23 18 19 20 19 20 21 21 22 24 25 24 27 27 28 30
60 59 59 58 57 57 55 53 52 52 52 51 50 49 50 51 41 35 44 48 49 51 26 26 25 25 21 21 24 22 20 20 20 18 18 20 19 19 20 22 24 24 27 27 27
60 60 59 59 58 57 56 55 53 52 51 51 49 48 50 48 35 26 51 55 51 48 29 25 21 23 21 21 20 21 21 22 19 19 19 18 16 17 17 19 22 23 23 24 24
60 60 59 59 58 57 56 54 53 52 51 49 48 48 50 40 34 35 53 52 55 42 27 22 20 17 17 17 18 19 19 17 18 17 17 16 18 19 19 21 20 19 21 21 23
59 59 59 59 59 57 56 54 53 52 50 47 46 47 42 38 35 45 56 51 38 34 27 26 24 23 21 20 17 16 16 18 14 12 14 14 13 14 14 15 16 16 20 23 24
56 57 58 59 58 58 56 54 53 52 48 46 46 46 41 39 34 25 30 38 32 32 28 25 24 23 21 21 19 18 16 16 17 15 18 17 16 16 18 18 19 20 20 23 25
55 56 57 58 58 57 56 54 53 50 46 45 46 37 38 41 38 30 29 26 30 29 27 26 23 21 21 21 21 21 20 22 21 19 18 19 17 19 19 18 17 18 19 22 24
54 55 55 56 57 57 56 54 52 48 45 45 46 39 39 41 36 34 30 29 28 32 28 27 25 23 23 24 23 19 20 19 21 20 19 19 18 19 19 19 20 20 19 19 21
54 54 54 54 56 56 54 52 50 47 45 44 41 41 40 40 34 33 33 29 27 28 29 25 28 26 25 25 23 22 18 20 20 19 19 19 20 19 19 20 19 19 19 19 21
52 53 54 54 55 54 52 50 46 44 43 40 37 39 40 39 37 27 30 25 21 22 27 27 23 22 22 20 17 19 18 18 17 17 18 18 18 19 18 17 19 18 18 18 20
52 52 54 54 55 52 48 46 44 43 41 41 39 39 37 33 29 30 32 25 19 18 23 26 21 20 21 23 21 20 18 17 16 16 17 18 15 14 15 16 17 16 18 20 22
51 52 52 54 54 51 50 45 44 41 39 41 41 41 39 40 36 36 34 31 28 21 21 22 20 21 21 20 19 18 17 17 15 14 15 14 14 15 16 17 18 18 19 21 27
51 52 52 54 53 50 49 47 41 42 40 38 37 37 36 38 36 35 35 32 29 27 26 22 17 17 19 19 15 15 16 16 14 15 16 17 14 12 12 13 14 17 22 33 36
51 52 52 53 49 47 46 42 37 44 35 33 32 34 34 35 34 32 33 32 30 26 26 26 25 21 21 21 18 17 17 17 16 15 12 10 6 10 12 13 16 25 34 37 37
51 51 52 52 47 45 44 39 39 44 26 22 26 29 28 31 27 23 31 33 31 27 27 27 27 25 23 23 23 19 19 16 15 15 14 11 8 11 12 11 21 31 37 38 39
51 53 52 51 47 46 41 40 46 35 26 23 22 22 25 28 28 22 23 29 31 28 26 24 25 25 18 17 17 18 16 16 15 13 12 12 10 9 7 10 21 37 37 38 38
52 54 51 47 43 46 41 44 33 30 25 23 23 23 25 24 24 21 22 24 23 22 23 22 22 24 20 21 20 17 18 15 12 13 12 11 8 11 20 32 33 37 36 37 37
54 52 51 49 43 43 43 39 30 23 23 21 23 21 21 21 19 19 21 19 22 21 20 25 26 21 21 19 19 18 16 16 18 16 15 12 10 18 35 37 36 35 35 33 34
52 49 47 47 43 42 42 33 28 24 22 22 22 20 21 20 16 18 20 20 18 21 21 24 21 25 20 18 17 16 19 18 20 22 17 17 18 33 36 35 36 34 32 32 32
45 43 42 47 45 43 39 33 29 29 29 25 23 23 22 23 18 17 19 21 17 19 23 26 27 23 20 18 17 15 18 22 20 13 9 7 9 11 35 35 34 32 31 31 31
44 36 40 48 47 39 33 35 36 31 23 22 22 20 20 20 19 16 16 23 23 25 28 26 24 22 21 18 15 16 15 15 16 18 16 13 13 34 37 35 33 30 29 30 30
40 33 41 46 34 35 35 38 35 28 20 20 21 20 20 21 18 17 15 26 26 30 27 27 26 23 20 17 18 16 16 16 20 14 12 10 5 34 34 31 30 29 28 28 30
35 33 39 42 32 33 37 34 32 23 22 23 22 21 25 26 19 19 22 27 26 27 25 28 23 18 14 14 17 14 15 15 17 17 15 18 15 32 30 29 31 26 27 28 30
36 30 33 35 37 36 35 33 27 29 27 25 24 22 23 27 26 27 25 24 26 24 29 28 20 15 8 7 15 16 11 13 18 23 15 10 9 20 24 21 19 25 29 29 30
39 35 34 31 34 35 35 32 26 22 23 22 24 24 24 25 26 26 29 25 25 30 24 23 19 15 12 9 7 10 11 13 12 16 18 15 18 17 16 18 25 29 28 27 28
37 37 34 30 30 35 35 33 30 26 24 22 23 23 25 23 22 22 23 22 23 27 26 25 22 20 15 11 9 10 8 6 7 11 11 8 14 15 17 26 28 29 28 28 27
42 37 33 34 35 34 32 33 31 28 23 21 20 20 19 18 19 21 21 20 20 24 26 24 21 17 15 7 8 8 9 7 6 9 10 19 18 26 28 33 28 28 27 26 27

GFSSW_sfc_dewp_114.txt.gz
Dewpoint
60 60 59 59 58 57 56 55 54 53 52 52 52 52 51 52 50 39 37 38 38 45 44 23 29 28 22 16 21 21 20 19 20 20 21 21 20 22 23 22 25 25 26 30 32
61 60 60 59 59 58 57 56 55 53 52 52 52 51 51 52 41 39 46 53 51 53 19 25 26 26 24 23 22 22 23 23 22 22 21 19 18 19 18 19 24 24 28 31 28
61 61 60 60 59 58 57 56 55 53 52 52 51 50 51 47 40 30 53 54 51 47 27 27 25 21 23 22 21 22 23 24 23 23 22 19 18 20 19 19 20 24 24 25 28
58 60 60 60 59 59 57 56 55 53 52 51 49 49 50 42 35 37 54 55 53 39 35 29 25 23 22 23 22 20 22 22 22 21 19 17 17 17 18 23 23 22 23 23 25
56 56 58 59 59 59 57 56 55 54 52 49 48 48 42 45 41 45 56 50 39 33 31 29 28 27 25 24 24 23 21 20 19 19 19 18 14 16 17 17 16 17 20 23 25
55 56 56 57 58 59 58 56 55 54 51 47 46 47 40 41 45 41 34 37 33 32 31 30 27 27 25 25 23 24 23 22 19 18 19 19 16 19 21 20 18 17 19 21 24
54 55 55 55 56 57 58 56 54 53 48 46 46 38 39 42 45 45 33 30 31 32 32 30 30 27 25 24 24 23 21 21 21 21 23 23 21 21 20 21 21 21 21 22 29
54 54 54 55 54 55 57 55 54 51 47 46 46 38 41 45 44 43 43 42 33 31 32 32 31 28 26 25 23 22 23 22 22 21 21 21 19 19 20 20 19 20 21 22 22
54 53 53 54 54 54 56 54 52 49 46 45 41 41 40 44 42 41 38 35 34 33 31 30 29 28 28 24 23 24 23 24 23 22 21 20 19 19 21 20 20 21 21 21 22
53 53 53 53 54 54 53 51 49 46 43 40 38 39 40 38 39 35 29 30 32 28 27 28 25 24 25 24 21 21 19 18 19 19 19 18 18 20 20 19 22 20 22 22 21
51 52 52 53 54 52 49 48 45 44 41 41 34 36 33 35 31 31 32 29 26 25 20 26 25 24 24 25 23 21 20 19 20 19 20 20 16 17 19 18 19 21 20 20 22
51 51 52 53 53 51 50 47 43 44 40 41 41 39 37 35 33 34 35 31 30 24 23 22 24 26 26 23 22 21 20 19 19 18 19 17 15 15 16 17 17 19 20 20 22
50 51 52 52 53 51 50 47 48 43 41 37 34 35 35 36 33 33 32 33 31 28 27 26 24 23 20 18 17 17 17 19 16 14 17 17 14 15 17 19 18 19 20 26 30
50 50 52 52 50 50 49 51 43 49 37 28 26 32 33 31 32 33 34 32 30 29 29 25 23 21 21 20 19 17 20 20 17 17 18 17 14 16 15 12 15 17 32 37 37
49 50 51 52 49 47 46 41 46 48 23 13 19 29 28 32 28 23 32 32 30 29 28 27 25 23 25 26 25 23 23 25 23 23 24 17 15 15 15 11 14 28 38 38 38
49 50 51 51 51 48 41 42 48 35 25 17 21 25 27 28 29 27 24 26 29 28 28 27 28 26 26 30 28 20 18 23 25 21 19 18 15 13 12 17 17 37 37 37 38
49 51 51 52 47 44 42 46 34 28 20 15 16 22 21 21 24 26 26 22 21 25 26 25 24 24 28 26 23 20 20 17 23 19 17 15 13 14 36 35 38 37 36 36 35
49 50 52 51 47 43 45 39 30 22 23 14 16 17 20 21 22 22 21 19 21 22 21 20 22 21 25 26 22 20 21 24 17 17 18 28 23 28 36 39 38 35 33 32 32
49 51 51 50 46 44 43 32 27 23 17 20 19 18 16 18 19 18 18 17 19 20 20 23 22 25 24 25 22 22 22 25 25 26 21 20 28 37 35 34 33 32 31 30 29
47 45 43 49 46 46 39 33 30 26 23 21 19 21 21 17 17 19 18 19 18 20 22 23 21 30 26 19 18 17 16 21 30 23 15 14 14 28 34 33 33 31 30 29 28
46 39 42 47 47 40 33 35 34 30 27 28 25 21 24 23 24 28 23 17 22 21 22 22 26 28 27 22 18 17 15 17 19 18 21 14 17 36 36 37 35 30 29 27 28
42 34 43 46 34 34 34 38 37 31 33 32 28 26 25 25 25 20 25 26 28 26 25 30 28 26 24 21 18 17 19 19 20 16 18 17 15 35 37 34 30 28 28 28 28
35 34 41 43 31 33 34 38 36 34 32 29 25 24 26 26 24 22 19 28 27 30 29 31 30 21 19 24 19 17 17 17 22 23 18 18 16 32 29 26 30 29 28 28 28
37 30 33 35 37 35 33 35 34 35 34 28 25 25 24 24 27 25 21 25 27 26 32 32 26 25 22 19 16 18 16 13 18 21 18 16 15 18 29 24 22 27 29 27 29
39 34 34 29 31 36 36 35 34 35 33 34 31 28 24 24 28 28 26 26 25 29 25 26 21 21 19 15 13 9 8 12 11 14 17 20 20 20 18 23 27 28 27 27 27
35 37 36 35 32 34 37 35 34 33 31 32 27 27 25 28 28 27 25 27 28 26 28 27 24 21 18 15 11 9 6 6 7 9 11 10 15 16 18 29 30 29 28 27 27
41 43 38 35 33 33 35 32 32 30 29 28 27 28 29 28 27 25 29 27 24 27 29 26 23 19 15 12 8 8 10 7 8 9 10 17 20 29 30 32 29 29 27 26 27

GFSSW_sfc_dewp_117.txt.gz
Dewpoint
60 60 60 60 59 58 58 57 56 55 54 53 53 53 53 53 50 42 39 43 43 53 47 22 22 29 30 20 17 19 19 18 18 19 20 24 18 21 22 23 26 29 28 30 33
61 61 61 60 59 59 58 57 56 56 55 54 54 53 52 52 42 40 50 52 52 52 23 21 25 27 25 23 19 18 20 19 22 24 23 23 20 20 20 20 25 27 29 31 29
57 58 61 61 60 59 58 58 57 56 55 54 53 52 51 49 40 33 52 53 51 48 27 29 31 25 21 24 23 22 20 22 23 25 25 21 20 20 20 22 22 24 26 26 28
54 56 57 58 60 60 58 57 57 56 54 53 52 50 51 44 38 37 54 54 52 42 36 37 32 25 24 21 24 22 22 22 22 23 22 22 20 18 18 22 23 20 23 25 24
55 55 55 55 56 58 58 58 57 56 54 52 50 49 42 43 43 45 55 53 44 36 31 30 29 28 27 25 25 25 24 24 24 23 21 20 20 20 19 18 19 18 19 22 23
54 55 55 56 56 56 57 58 57 55 53 50 48 48 40 41 45 46 45 40 33 32 31 31 29 29 27 25 25 25 24 23 23 23 23 21 20 20 22 19 20 19 19 20 21
54 54 54 55 55 55 55 57 56 55 52 48 47 42 38 42 46 45 44 42 36 36 34 35 32 30 29 27 27 25 23 23 23 22 22 22 20 22 23 22 21 21 22 20 26
54 54 54 53 54 54 54 55 56 54 50 47 47 39 38 44 44 43 44 43 42 32 32 32 33 31 30 29 26 23 24 22 23 24 24 22 20 22 23 22 21 21 21 22 25
53 53 53 53 53 53 54 55 54 51 48 46 42 39 39 44 43 44 44 42 39 41 33 31 31 31 29 27 25 24 22 22 23 25 25 23 21 22 22 21 20 20 22 21 21
52 52 52 52 53 53 53 52 51 48 46 43 40 37 38 35 38 40 42 39 35 35 33 29 28 25 25 26 23 23 22 22 20 21 21 20 19 20 22 20 22 21 20 21 22
52 52 52 52 53 51 50 48 44 42 42 40 38 36 34 36 35 37 31 31 31 31 26 27 25 24 23 24 25 24 23 22 22 22 21 20 18 18 18 20 19 22 21 21 37
51 51 52 52 52 52 49 46 44 43 40 42 42 39 36 36 35 34 35 31 28 24 25 22 22 26 27 27 26 25 22 20 19 19 18 18 16 16 17 16 17 17 18 20 40
51 51 51 52 51 51 49 47 48 43 39 37 38 40 40 40 36 35 34 33 31 29 28 24 24 24 24 23 23 23 21 19 17 20 23 21 20 16 18 17 17 18 18 23 40
51 50 50 51 48 49 47 50 47 46 33 32 30 33 34 37 33 36 36 33 32 29 30 29 29 27 25 23 20 19 24 24 23 27 23 25 21 23 22 20 20 19 35 36 38
49 50 50 51 49 45 45 49 45 46 17 17 23 31 33 32 30 29 32 33 31 31 30 28 29 28 28 26 24 23 30 21 19 24 27 23 22 20 20 18 24 36 38 38 38
49 50 50 48 49 48 48 45 47 33 22 23 25 28 28 30 31 29 29 33 33 31 31 29 29 28 27 27 29 31 27 23 21 24 23 23 22 20 19 24 38 40 37 36 35
49 49 49 49 46 46 43 46 33 25 21 13 16 24 26 25 27 26 27 27 23 21 23 25 27 28 29 27 31 31 24 21 20 20 17 20 20 19 38 39 40 37 34 34 33
49 49 47 48 51 43 47 39 27 24 18 16 18 18 20 22 22 22 25 24 25 22 21 21 22 25 31 28 29 28 22 24 19 19 20 24 22 33 41 40 41 35 31 30 30
48 45 49 52 49 46 43 30 26 24 19 21 20 19 18 18 21 20 22 23 21 20 20 21 23 25 26 26 29 25 21 25 25 26 23 21 31 37 39 38 39 38 37 36 34
42 43 44 48 47 47 38 30 29 28 24 24 22 22 19 20 22 20 21 21 21 21 24 25 22 29 30 22 22 22 20 25 29 21 18 18 20 32 37 37 37 35 32 28 29
42 39 43 48 47 42 33 33 32 32 29 28 26 24 26 25 27 30 33 33 29 23 24 28 26 28 30 26 19 19 19 20 28 25 21 20 22 36 37 38 34 32 29 28 28
41 33 43 47 36 34 33 34 35 32 33 31 32 30 31 29 27 29 32 36 33 30 27 31 31 27 28 28 26 22 23 22 20 16 20 21 19 38 38 37 34 29 29 28 28
36 34 42 42 32 31 34 34 35 33 34 32 32 31 34 27 26 28 29 31 32 32 31 30 28 22 22 26 29 27 21 23 25 25 21 21 22 35 34 31 32 30 28 27 28
36 29 33 36 38 35 32 32 33 36 34 34 34 32 28 26 29 27 27 30 32 30 35 33 29 25 20 24 26 22 21 19 21 21 18 18 18 23 32 31 29 29 28 27 27
37 33 32 27 31 35 36 34 31 32 34 35 34 32 29 27 26 27 28 27 28 32 30 27 22 25 23 21 21 25 21 16 16 19 19 18 22 24 28 29 29 29 28 27 27
33 34 37 33 32 33 35 35 31 31 33 36 32 32 33 32 31 32 29 29 28 30 27 28 25 23 21 19 18 15 11 10 12 14 13 11 18 32 31 30 29 27 27 26 26
40 42 39 33 34 31 31 33 34 34 36 35 34 34 33 33 34 31 27 31 31 29 28 27 25 22 19 18 15 12 15 16 12 24 23 18 29 30 28 27 27 27 26 25 26

GFSSW_sfc_dewp_120.txt.gz
Dewpoint
61 61 60 60 59 59 59 58 57 56 56 55 55 55 54 53 51 43 40 44 46 52 47 21 23 23 32 25 19 20 17 18 18 19 20 25 22 21 22 20 23 26 27 32 35
58 59 61 61 60 59 59 58 57 57 56 55 55 54 53 52 44 42 49 52 51 51 23 22 28 28 26 23 20 16 19 18 21 21 22 24 23 21 20 20 23 23 27 28 31
54 55 56 58 60 60 59 58 58 57 56 55 55 54 52 50 42 40 52 52 52 46 26 29 32 31 24 24 24 21 17 20 21 23 23 24 24 23 21 20 22 24 25 25 27
54 55 55 55 56 57 57 58 58 58 57 55 53 52 51 45 34 36 53 53 54 40 38 36 35 28 24 22 23 22 23 22 22 23 23 22 22 21 19 22 22 23 21 22 22
55 55 54 54 55 56 56 57 57 58 56 54 52 50 43 43 44 46 56 52 41 36 31 31 30 29 28 26 26 25 25 25 25 24 24 24 22 21 21 21 21 19 20 21 22
53 54 54 54 54 55 55 55 56 57 56 54 49 48 40 39 42 45 46 41 34 34 31 31 30 31 29 27 26 26 25 24 24 24 24 22 22 22 23 23 22 22 21 22 22
54 54 54 53 53 54 55 54 55 56 55 52 47 44 39 41 45 44 43 43 42 36 34 35 35 32 30 28 30 26 24 24 24 23 23 24 22 23 23 23 23 23 23 23 26
54 53 53 53 53 53 53 54 54 56 54 50 47 41 40 43 44 43 43 43 44 44 37 32 33 33 31 30 28 25 25 23 24 25 24 23 22 24 24 23 23 23 23 22 23
53 52 52 52 52 53 54 54 55 55 51 48 43 40 39 44 37 44 44 43 44 43 33 32 33 30 31 27 25 26 22 22 23 25 25 24 21 23 22 21 22 21 21 21 22
52 52 52 52 52 53 53 52 52 49 47 46 42 39 38 34 38 43 44 44 43 39 36 33 28 26 25 25 22 24 23 25 22 23 23 21 21 21 21 20 21 21 21 21 30
51 52 52 52 53 52 49 47 41 41 42 39 36 37 33 37 36 37 39 41 36 34 30 30 25 23 24 25 25 26 24 23 24 24 21 20 19 19 19 18 19 19 21 31 43
51 51 52 52 52 52 50 44 44 44 39 42 42 39 37 38 36 36 36 32 30 27 29 26 24 26 26 25 24 24 25 24 25 24 21 19 19 20 20 21 21 18 18 38 43
51 51 51 51 51 51 48 45 48 44 38 39 41 41 41 41 37 35 36 34 32 26 24 23 24 25 26 25 25 25 23 23 22 23 25 24 23 23 25 25 24 25 24 39 41
50 50 50 50 46 46 45 47 47 46 34 29 36 34 39 40 38 39 37 34 32 30 30 29 28 27 27 27 26 23 23 24 25 21 19 25 21 23 23 23 27 37 38 38 37
50 49 50 51 46 44 41 46 47 44 -3 17 27 36 38 35 31 29 37 35 32 31 30 29 29 29 28 28 29 28 30 30 26 24 22 22 21 21 22 20 34 37 37 37 37
50 50 50 46 47 47 48 48 45 22 4 21 28 30 33 33 31 29 32 34 34 32 32 31 32 30 29 29 29 29 26 23 22 21 21 19 22 20 33 37 36 36 34 35 34
50 50 48 47 43 47 46 46 31 19 18 17 23 29 30 30 30 30 28 28 27 28 28 29 28 27 29 27 30 30 29 26 20 18 17 23 22 30 37 37 37 35 35 33 33
50 49 47 46 46 46 47 39 23 20 22 17 17 16 24 25 27 29 26 26 27 23 21 22 21 24 30 28 27 30 30 26 19 18 18 22 18 31 38 38 39 39 38 38 35
49 44 43 47 48 46 42 30 23 24 22 22 20 19 16 16 20 23 25 24 25 26 23 22 21 26 24 27 29 26 24 27 26 26 23 21 30 37 39 37 37 38 37 38 39
43 39 39 49 49 45 37 29 27 28 26 25 23 23 21 22 23 21 20 28 27 25 24 23 20 29 30 23 23 26 26 23 28 21 19 19 20 28 35 34 37 36 36 36 36
43 35 39 46 48 41 31 29 28 28 29 29 25 25 26 27 27 26 28 32 32 29 30 28 25 26 29 24 20 19 19 21 28 27 21 19 17 34 36 37 36 34 31 29 29
40 32 40 48 36 36 32 33 32 30 31 28 29 28 29 30 28 28 31 32 37 32 26 31 28 25 27 28 24 23 21 23 24 21 22 20 16 38 38 38 34 28 28 28 28
34 32 43 43 30 31 34 32 32 31 32 32 31 33 31 29 26 27 32 35 38 33 31 30 27 22 22 25 28 27 24 24 27 26 21 19 18 36 36 35 31 28 27 27 27
35 30 34 37 38 33 30 31 32 34 33 33 34 35 34 31 32 27 27 30 31 31 39 34 28 23 18 22 26 23 25 23 24 25 24 21 20 22 33 31 28 29 28 27 27
37 32 31 28 31 34 34 31 29 29 33 35 33 31 33 27 27 27 28 27 29 33 30 28 24 26 25 25 26 31 29 25 21 21 19 19 22 28 29 29 28 28 27 26 26
33 33 37 31 30 32 33 31 29 32 31 31 32 33 34 31 28 28 28 26 25 29 26 28 25 22 20 21 19 21 22 18 14 15 17 13 27 29 28 28 27 26 26 25 25
38 41 38 34 32 31 29 30 31 32 33 31 31 34 32 33 35 37 36 32 32 28 27 26 25 21 19 18 14 13 16 14 13 27 25 19 28 28 27 28 27 25 25 25 24

GFSSW_sfc_dewp_123.txt.gz
Dewpoint
61 61 61 60 60 60 59 59 58 58 57 56 56 55 55 54 52 45 43 44 46 51 47 22 25 28 29 27 19 20 17 18 18 19 20 25 23 24 23 20 22 25 27 29 34
57 57 58 59 60 60 59 59 58 58 58 57 56 55 54 53 46 43 50 52 52 48 20 25 29 31 25 24 21 16 17 18 20 21 21 23 23 24 21 21 22 21 27 31 29
54 54 55 55 56 57 58 58 58 58 58 56 55 54 53 51 42 41 54 53 54 45 26 31 33 33 25 24 24 20 17 20 20 22 25 24 24 25 22 20 21 22 21 24 27
54 54 54 54 55 56 55 56 57 58 58 56 54 52 52 45 14 38 54 54 53 38 35 33 33 29 24 22 23 21 23 23 23 23 24 23 23 23 21 23 24 22 24 22 22
54 54 54 53 54 55 55 55 56 57 58 56 53 51 44 43 43 46 56 53 40 35 30 31 30 29 27 27 27 25 25 25 25 25 24 24 23 24 23 24 24 22 22 23 23
53 54 53 52 52 53 54 54 54 56 57 55 50 48 40 38 40 45 43 42 36 34 32 31 30 32 31 29 27 27 26 26 25 25 25 24 23 23 25 24 24 24 24 25 24
54 53 52 52 52 52 53 54 54 55 55 53 48 44 41 40 43 43 42 42 42 41 39 36 34 30 31 29 31 28 26 26 25 26 23 25 23 24 25 25 24 23 23 24 28
52 52 52 52 52 52 53 54 54 52 54 51 48 42 41 44 43 43 43 42 43 43 43 42 34 32 31 30 29 26 26 24 25 24 25 25 23 24 24 23 22 21 22 23 24
51 52 52 52 52 52 53 54 54 54 51 49 42 41 40 44 36 38 43 42 44 44 43 40 34 30 31 28 26 26 24 22 23 25 24 24 23 24 23 22 21 20 20 21 25
51 51 51 51 52 52 51 52 52 50 48 46 43 39 37 31 36 42 44 43 43 42 37 36 29 26 25 26 24 23 23 23 23 24 24 23 23 22 22 20 21 19 20 22 42
50 50 51 51 52 52 48 44 40 39 43 38 37 38 35 36 37 34 43 43 39 35 31 30 29 25 26 25 26 25 25 24 24 25 25 24 22 22 20 21 23 23 23 42 43
50 50 51 51 51 51 47 41 42 44 39 42 41 40 38 38 36 36 36 36 33 28 30 27 26 28 27 26 25 24 23 23 25 26 25 23 22 24 23 24 25 25 26 42 41
50 50 50 50 50 49 43 43 47 46 38 38 41 41 40 41 37 34 36 33 29 27 26 26 26 28 26 25 24 24 24 24 24 24 24 24 22 22 24 26 30 38 34 41 39
49 50 49 50 43 44 42 45 46 47 32 27 37 38 40 40 38 39 36 33 32 30 29 27 26 24 24 25 25 23 25 25 27 26 24 23 22 24 23 33 36 35 36 37 37
50 49 49 50 45 41 41 46 47 41 -5 14 33 38 39 37 33 36 38 34 30 30 31 29 29 30 28 27 29 28 31 29 28 26 22 22 22 21 34 35 33 33 34 35 36
51 50 49 44 46 45 47 47 44 17 -5 13 32 34 36 36 32 34 35 36 34 32 31 30 32 30 29 29 29 30 29 28 26 22 24 23 20 21 32 35 32 33 33 33 34
51 50 47 46 41 46 45 46 29 10 12 12 26 32 32 31 31 30 31 31 28 28 28 29 30 31 32 30 30 29 27 27 23 19 18 22 20 26 36 36 35 35 35 36 37
50 49 47 45 45 45 47 38 21 13 16 20 15 20 29 28 29 29 27 27 29 27 23 22 21 24 27 27 27 29 28 24 19 18 18 22 19 27 37 37 36 36 37 38 38
49 42 44 44 46 45 42 29 22 23 22 20 17 13 11 18 23 27 28 25 26 27 24 23 22 25 27 28 28 27 27 30 25 24 23 21 28 34 37 36 37 38 38 38 39
41 41 39 45 46 44 36 27 27 28 25 26 20 21 20 21 23 21 23 26 26 27 27 24 21 27 29 23 23 26 28 23 26 20 19 20 21 24 35 34 35 38 38 37 37
40 32 37 45 47 40 28 27 28 27 28 29 26 22 25 28 27 27 26 29 31 28 26 24 24 25 28 24 22 19 21 23 28 25 21 18 19 32 34 35 36 36 35 34 29
37 30 37 47 35 35 30 28 30 26 29 27 28 27 26 28 28 29 29 29 33 32 27 31 29 25 26 28 24 22 21 23 22 20 23 20 17 29 36 36 36 34 29 29 28
34 33 39 43 29 31 31 30 29 29 29 30 31 30 31 27 26 28 28 33 37 32 30 31 26 24 24 24 27 26 25 24 27 25 21 20 19 38 38 36 32 29 28 28 27
35 29 33 38 36 31 28 28 29 32 31 31 33 34 33 31 33 31 28 30 33 32 38 34 27 23 19 20 25 25 25 24 25 24 23 23 22 27 34 30 29 27 27 27 26
36 32 32 28 29 33 31 27 27 27 31 33 31 31 31 29 29 30 30 28 27 33 32 30 25 26 26 25 28 29 28 28 26 27 25 23 23 28 31 29 28 27 26 25 25
32 31 36 32 29 28 31 31 27 27 27 29 31 31 33 30 29 26 29 26 26 29 25 28 25 23 21 22 22 25 28 27 27 26 23 21 25 28 28 28 27 27 26 25 24
36 36 34 29 32 28 26 27 28 30 31 30 29 32 31 32 35 36 36 34 32 29 27 26 27 26 24 20 15 14 21 24 23 25 24 16 24 28 27 26 26 25 25 24 24